     2.11           OBSERVATION DATA    G (GPS)             RINEX VERSION / TYPE
teqc 2010Oct21 OPUS Account 20111028 22:05:25UTC            PGM / RUN BY / DATE
J 1521                                                      MARKER NAME
1124                                                        MARKER NUMBER
CSMIDDLETON NGS                                             OBSERVER / AGENCY
0220320152 TRIMBLE 5700 2.01                                REC # / TYPE / VERS
12214372 TRM41249.00 NONE                                   ANT # / TYPE
  -740158.1266 -5465718.4272  3192442.1803                  APPROX POSITION XYZ
        2.0000        0.0000        0.0000                  ANTENNA: DELTA H/E/N
     1     1                                                WAVELENGTH FACT L1/2
     5    L1    L2    C1    P1    P2                        # / TYPES OF OBSERV
    15                                                      LEAP SECONDS
  2011     9    21    20    37   30.0000000     GPS         TIME OF FIRST OBS
                                                            END OF HEADER
 11  9 21 20 37 30.0000000  0  7G02G04G09G10G12G17G28
   -653613.20358   -475332.13356  21766679.2194                   21766678.0864
   -118052.45758    -85120.56257  19975784.7664                   19975784.9024
   -168961.55957   -126349.63355  22140132.2274                   22140134.4184
   -803286.12157   -583758.21955  22699582.5864                   22699585.8594
   -875757.50856   -635091.69953  24240405.6414                   24240409.2424
     63644.37157     40753.02356  21840761.8364                   21840761.3914
    275050.87157    197354.61355  22445177.9774                   22445179.7034
 11  9 21 20 38  0.0000000  0  7G02G04G09G10G12G17G28
   -746213.80148   -547488.35246  21749057.6884                   21749056.7814
   -133630.76248    -97259.49647  19972820.5234                   19972820.0664
   -191397.89547   -143832.53545  22135862.7424                   22135864.3524
   -917890.92247   -673060.52045  22677773.7584                   22677777.8404
  -1001254.05547   -732881.03943  24216524.6024                   24216527.3984
     72095.07047     47337.93046  21842369.5784                   21842369.6884
    315516.19147    228885.85945  22452877.9614                   22452879.7934
 11  9 21 20 38 30.0000000  0  7G02G04G09G10G12G17G28
   -838562.95348   -619448.65246  21731484.4064                   21731483.6804
   -148768.71948   -109055.31247  19969939.9454                   19969939.7384
   -213296.39147   -160896.32845  22131695.8524                   22131697.5944
  -1032359.10547   -762256.40645  22655991.1024                   22655995.1214
  -1126814.55547   -830720.31643  24192630.6724                   24192633.1914
     80541.90648     53919.83246  21843977.1174                   21843977.1994
    356248.55947    260625.23845  22460629.0474                   22460631.1334
 11  9 21 20 39  0.0000000  0  7G02G04G09G10G12G17G28
   -930638.16448   -691195.48846  21713962.3594                   21713961.7624
   -163446.30548   -120492.37947  19967146.6254                   19967146.2814
   -234636.34047   -177524.88745  22127634.7424                   22127636.6884
  -1146666.16047   -851326.71145  22634238.5164                   22634242.3054
  -1252415.97347   -928591.42644  24168729.8674                   24168732.5514
     89006.59048     60515.62946  21845587.7194                   21845587.9804
    397268.43447    292588.62145  22468435.3054                   22468437.5274
 11  9 21 20 39 30.0000000  0  7G02G04G09G10G12G17G28
  -1022430.37948   -762721.81246  21696495.3054                   21696493.9024
   -177656.65648   -131565.38747  19964442.7034                   19964442.2304
   -255410.76647   -193712.77745  22123681.9064                   22123684.0744
  -1260800.34847   -940262.31645  22612519.7894                   22612522.6564
  -1378047.86347  -1026486.29344  24144823.2664                   24144825.2664
     97497.17648     67131.60546  21847203.8984                   21847204.2234
    438583.21947    324781.81645  22476297.4064                   22476299.8914
 11  9 21 20 40  0.0000000  0  7G02G04G09G10G12G17G28
  -1113931.99248   -834021.70346  21679083.2734                   21679082.4534
   -191394.21548   -142269.98047  19961828.3204                   19961827.9534
   -275613.44547   -209455.14845  22119837.4384                   22119838.9774
  -1374751.23847  -1029055.10545  22590835.6884                   22590838.7814
  -1503701.09447  -1124397.77744  24120912.0784                   24120914.0554
    106020.53147     73773.14146  21848825.4384                   21848825.9144
    480199.32047    357209.78945  22484217.0704                   22484218.6254
 11  9 21 20 40 30.0000000  0  7G02G04G09G10G12G17G28
  -1205140.98848   -905093.56246  21661726.4224                   21661725.5044
   -204659.14148   -152606.28147  19959303.9844                   19959303.9384
   -295244.22747   -224751.88745  22116101.5784                   22116103.1994
  -1488514.28547  -1117701.49245  22569187.5554                   22569191.0784
  -1629372.89547  -1222323.78144  24096996.9454                   24096998.4614
    114578.32048     80441.49646  21850454.7664                   21850454.7074
    522117.00047    389872.77045  22492193.5084                   22492195.4384
 11  9 21 20 41  0.0000000  0  7G02G04G09G10G12G17G28
  -1296056.16048   -975936.47346  21644425.6954                   21644425.1604
   -217452.43748   -162575.09047  19956869.6884                   19956869.7664
   -314303.94947   -239603.62545  22112474.7344                   22112476.4804
  -1602086.01647  -1206198.82045  22547574.9534                   22547578.7304
  -1755060.81247  -1320262.29344  24073079.4454                   24073081.8714
    123170.85248     87136.93446  21852088.5004                   21852089.9144
    564335.68447    422770.28945  22500227.5704                   22500230.3134
 11  9 21 20 41 30.0000000  0  7G02G04G09G10G12G17G28
  -1386677.14848  -1046550.14846  21627180.9454                   21627179.9734
   -229775.78148   -172177.68447  19954524.4384                   19954524.2934
   -332793.79747   -254011.31645  22108956.1024                   22108957.6094
  -1715462.61747  -1294544.09445  22525999.8134                   22526003.6054
  -1880763.14847  -1418212.01644  24049158.9064                   24049161.1914
    131798.00048     93859.35246  21853730.9064                   21853731.3284
    606854.85947    455901.93845  22508319.0234                   22508320.7894
 11  9 21 20 42  0.0000000  0  7G02G04G09G10G12G17G28
  -1477002.52748  -1116933.48846  21609992.3134                   21609991.7544
   -241630.22348   -181414.91447  19952268.6644                   19952268.2424
   -350714.67247   -267975.67245  22105546.3134                   22105548.4224
  -1828640.88747  -1382734.84045  22504462.7034                   22504466.5594
  -2006477.31247  -1516170.98444  24025236.1724                   24025238.8164
    140460.16048    100609.02746  21855379.5634                   21855380.1994
    649673.98047    489267.34845  22516466.9844                   22516469.7704
 11  9 21 20 42 30.0000000  0  7G02G04G09G10G12G17G28
  -1567031.84048  -1187086.12546  21592860.5234                   21592859.7734
   -253017.22748   -190287.90647  19950101.8914                   19950101.6414
   -368067.80547   -281497.61345  22102243.8364                   22102245.9924
  -1941617.45347  -1470768.40245  22482964.2034                   22482967.5784
  -2132201.32047  -1614137.65644  24001311.2894                   24001313.2624
    149157.35948    107386.02346  21857034.4304                   21857034.9454
    692792.32047    522865.90245  22524672.4924                   22524675.3094
 11  9 21 20 43  0.0000000  0  7G02G04G09G10G12G17G28
  -1656760.94148  -1257004.82446  21575785.6954                   21575784.8674
   -263934.84848   -198795.15247  19948024.2114                   19948024.3674
   -384850.38347   -294574.98845  22099050.6884                   22099052.4884
  -2054385.23447  -1558639.24645  22461505.1644                   22461508.4534
  -2257929.66446  -1712107.62944  23977385.9924                   23977387.9454
    157893.68447    114193.51646  21858697.0164                   21858697.4184
    736212.39547    556699.59845  22532935.4224                   22532937.4574
 11  9 21 20 43 30.0000000  0  7G02G04G09G10G12G17G28
  -1746189.37948  -1326689.25046  21558767.7974                   21558767.0984
   -274385.05548   -206938.17247  19946035.6954                   19946035.1454
   -401064.39847   -307209.31245  22095965.3054                   22095966.7034
  -2166941.30147  -1646345.16845  22440086.0474                   22440089.1374
  -2383660.62146  -1810079.67644  23953459.9224                   23953462.4184
    166668.62147    121031.09846  21860366.2034                   21860367.2274
    779933.07847    590767.50445  22541255.2194                   22541257.3484
 11  9 21 20 44  0.0000000  0  7G02G04G09G10G12G17G28
  -1835314.41048  -1396137.25846  21541808.0864                   21541807.2584
   -284367.05948   -214716.36347  19944135.9534                   19944135.7544
   -416708.69547   -319399.70345  22092987.8674                   22092989.7234
  -2279280.22347  -1733881.88345  22418708.2504                   22418711.7894
  -2509390.43746  -1908050.87944  23929533.6484                   23929536.3754
    175484.60547    127900.65646  21862044.2194                   21862045.3204
    823955.68447    625070.68444  22549631.9384                   22549634.4304
 11  9 21 20 44 30.0000000  0  7G02G04G09G10G12G17G28
  -1924116.89548  -1465333.91846  21524909.1564                   21524908.4304
   -293864.33248   -222116.83647  19942328.6804                   19942328.8054
   -431766.39847   -331133.00445  22090122.4144                   22090124.5824
  -2391380.57447  -1821232.67645  22397376.5084                   22397380.2074
  -2635098.66847  -2006005.22744  23905612.4454                   23905615.5554
    184359.59847    134816.19146  21863733.3134                   21863733.9304
    868297.52747    659622.61344  22558070.5554                   22558072.1134
 11  9 21 20 45  0.0000000  0  7G02G04G09G10G12G17G28
  -2012564.32048  -1534253.91446  21508078.4844                   21508077.5554
   -302846.05548   -229115.58647  19940619.6644                   19940619.3874
   -446206.78147   -342385.28145  22087374.2344                   22087375.8364
  -2503206.56247  -1908369.69145  22376096.6174                   22376100.0204
  -2760750.97347  -2103915.99244  23881701.3134                   23881704.7074
    193325.89548    141802.86746  21865439.1644                   21865440.4494
    912989.70747    694447.53944  22566575.3834                   22566577.2504
 11  9 21 20 45 30.0000000  0  7G02G04G09G10G12G17G28
  -2100650.97748  -1602892.78546  21491315.9614                   21491315.0664
   -311309.19548   -235710.24246  19939008.8204                   19939009.3054
   -460026.03147   -353153.55145  22084745.0474                   22084747.0204
  -2614750.01247  -1995286.55145  22354870.8444                   22354873.6454
  -2886340.58247  -2201777.92244  23857802.9304                   23857805.2934
    202389.00048    148864.97346  21867164.5554                   21867164.7424
    958036.54747    729548.82844  22575147.3204                   22575149.5204
 11  9 21 20 46  0.0000000  0  7G02G04G09G10G12G17G28
  -2188387.19148  -1671258.58646  21474620.1484                   21474619.5394
   -319266.21148   -241910.53147  19937494.8204                   19937494.8674
   -473236.82447   -363447.70745  22082230.8914                   22082232.4884
  -2726018.74247  -2081989.34045  22333697.0164                   22333699.7814
  -3011876.34847  -2299597.89144  23833914.2194                   23833917.0274
    211537.80948    155993.86346  21868905.1334                   21868905.5204
   1003426.02347    764917.07444  22583785.5234                   22583787.4654
 11  9 21 20 46 30.0000000  0  7G02G04G09G10G12G17G28
  -2275784.79748  -1739360.54346  21457988.7734                   21457988.0164
   -326731.04348   -247727.28547  19936074.4144                   19936074.0084
   -485852.73447   -373278.32845  22079830.0944                   22079831.8014
  -2837021.91847  -2168485.21945  22312574.3284                   22312577.3954
  -3137368.56247  -2397383.94944  23810033.8674                   23810036.3484
    220759.95748    163179.90246  21870659.8914                   21870660.7934
   1049144.81647    800541.95344  22592484.8914                   22592486.3984
 11  9 21 20 47  0.0000000  0  7G02G04G09G10G12G17G28
  -2362850.14148  -1807203.59446  21441420.9144                   21441419.7304
   -333712.14848   -253167.10947  19934745.6334                   19934745.8834
   -497881.87147   -382651.71545  22077541.1804                   22077543.2304
  -2947762.66047  -2254776.55945  22291500.3674                   22291503.0274
  -3262821.97346  -2495139.75844  23786160.5634                   23786163.5204
    230049.11348    170418.13346  21872427.8284                   21872428.5394
   1095185.46147    836417.62544  22601245.7504                   22601247.9774
 11  9 21 20 47 30.0000000  0  7G02G04G09G10G12G17G28
  -2449587.16048  -1874790.79746  21424915.3834                   21424914.2034
   -340215.89848   -258234.97347  19933508.3914                   19933508.2344
   -509330.10947   -391572.46545  22075362.7424                   22075365.2154
  -3058242.44547  -2340864.59045  22270476.5474                   22270478.6564
  -3388238.96147  -2592867.20744  23762294.9694                   23762296.9224
    239400.59448    177704.96546  21874207.4694                   21874207.9734
   1141542.13347    872539.53944  22610067.3524                   22610070.3134
 11  9 21 20 48  0.0000000  0  7G02G04G09G10G12G17G28
  -2535997.19148  -1942123.21146  21408472.0704                   21408471.5314
   -346245.97348   -262933.73047  19932361.2894                   19932360.4734
   -520201.30147   -400043.53145  22073294.1024                   22073296.2774
  -3168460.26247  -2426748.49645  22249502.6804                   22249505.1254
  -3513619.72746  -2690566.41444  23738435.3834                   23738437.5044
    248812.73048    185039.03546  21875998.8524                   21875998.7974
   1188211.62147    908905.19144  22618947.9774                   22618951.6174
 11  9 21 20 48 30.0000000  0  7G02G04G09G10G12G17G28
  -2622081.09448  -2009201.50046  21392090.6564                   21392089.9184
   -351805.29348   -267265.67646  19931302.7424                   19931302.9024
   -530498.25047   -408067.16045  22071335.0004                   22071336.4304
  -3278413.65247  -2512426.33245  22228579.0944                   22228582.2584
  -3638963.35946  -2788236.71544  23714583.1804                   23714584.1804
    258284.17648    192419.32846  21877800.7814                   21877801.2974
   1235191.78547    945512.93844  22627888.7894                   22627891.4964
 11  9 21 20 49  0.0000000  0  7G02G04G09G10G12G17G28
  -2707837.76648  -2076024.79346  21375772.1094                   21375771.1484
   -356895.35548   -271231.96547  19930334.5864                   19930333.8874
   -540221.84847   -415644.00445  22069484.1174                   22069486.9884
  -3388098.84847  -2597895.18445  22207706.6094                   22207709.3524
  -3764267.47347  -2885876.21544  23690738.4454                   23690739.7814
    267815.57048    199846.33646  21879615.1254                   21879615.6374
   1282482.09047    982362.34844  22636888.1884                   22636890.8244
 11  9 21 20 49 30.0000000  0  7G02G04G09G10G12G17G28
  -2793267.84048  -2142593.59046  21359514.7114                   21359513.7114
   -361518.77348   -274834.62547  19929454.7734                   19929454.5474
   -549374.92647   -422776.32445  22067742.1024                   22067744.5004
  -3497514.07447  -2683153.69545  22186885.3054                   22186888.0824
  -3889530.97347  -2983484.04744  23666901.9534                   23666904.1214
    277406.27347    207319.56346  21881439.5704                   21881440.4734
   1330080.51647   1019451.85544  22645946.1954                   22645948.2304
 11  9 21 20 50  0.0000000  0  7G02G04G09G10G12G17G28
  -2878368.99248  -2208906.10946  21343320.1484                   21343319.4344
   -365675.34448   -278073.52347  19928663.6174                   19928663.4454
   -557956.84047   -429463.55545  22066109.1334                   22066111.5394
  -3606653.83247  -2768197.54745  22166116.7734                   22166120.1024
  -4014749.65246  -3081056.94144  23643072.9614                   23643075.3484
    287058.25448    214840.55146  21883276.6484                   21883276.9844
   1377987.99647   1056782.17645  22655062.6334                   22655065.9804
 11  9 21 20 50 30.0000000  0  7G02G04G09G10G12G17G28
  -2963143.05948  -2274963.74246  21327188.5314                   21327187.6844
   -369369.15248   -280951.80947  19927960.4694                   19927960.4104
   -565972.01647   -435709.16045  22064584.0944                   22064586.0864
  -3715517.35547  -2853026.12945  22145400.4224                   22145403.1914
  -4139923.97746  -3178595.27044  23619252.2114                   23619255.3754
    296769.09847    222407.36746  21885124.2974                   21885125.2584
   1426201.08247   1094350.62544  22664237.6024                   22664240.4064
 11  9 21 20 51  0.0000000  0  7G02G04G09G10G12G17G28
  -3047584.78948  -2340762.41846  21311119.4774                   21311118.4454
   -372597.43748   -283467.36347  19927346.2734                   19927346.2424
   -573417.03147   -441510.49645  22063167.5634                   22063169.1374
  -3824096.55947  -2937633.17645  22124738.5164                   22124741.1914
  -4265046.94546  -3276093.54344  23595442.4144                   23595445.1954
    306544.00048    230024.13746  21886984.6564                   21886984.5944
   1474723.30547   1132159.96544  22673471.1094                   22673473.6604
 11  9 21 20 51 30.0000000  0  7G02G04G09G10G12G17G28
  -3131694.61748  -2406302.45746  21295114.0084                   21295112.4694
   -375362.75048   -285622.16047  19926820.1954                   19926820.1374
   -580294.82047   -446869.82445  22061859.0314                   22061860.9454
  -3932389.21147  -3022016.94145  22104131.0234                   22104133.6254
  -4390117.49246  -3373550.98844  23571642.2814                   23571644.8594
    316382.25048    237690.26246  21888856.4844                   21888857.3914
   1523552.53147   1170208.52744  22682762.8204                   22682765.8284
 11  9 21 20 52  0.0000000  0  7G02G04G09G10G12G17G28
  -3215472.26648  -2471583.65646  21279171.6174                   21279170.2384
   -377666.96148   -287417.64546  19926381.3674                   19926381.5664
   -586606.89147   -451788.35245  22060657.8054                   22060659.6644
  -4040391.93447  -3106174.77345  22083578.6334                   22083581.5234
  -4515133.46147  -3470965.94144  23547852.6724                   23547854.1804
    326283.76248    245405.67646  21890741.1094                   21890741.7194
   1572687.94147   1208495.66444  22692112.8524                   22692116.3914
 11  9 21 20 52 30.0000000  0  7G02G04G09G10G12G17G28
  -3298915.93748  -2536604.60946  21263292.4614                   21263291.9924
   -379510.67648   -288854.30947  19926030.9144                   19926030.6484
   -592353.83247   -456266.50845  22059563.9614                   22059566.0314
  -4148100.00047  -3190103.01645  22063082.6484                   22063085.2384
  -4640091.65247  -3568335.86744  23524074.5234                   23524076.5164
    336250.17648    253171.66046  21892637.7114                   21892637.8404
   1622129.48847   1247021.37144  22701522.0234                   22701525.2624
 11  9 21 20 53  0.0000000  0  7G02G04G09G10G12G17G28
  -3382023.01648  -2601363.27746  21247477.5084                   21247476.5164
   -380893.47347   -289931.82047  19925767.7194                   19925767.5204
   -597535.03547   -460303.83245  22058578.2424                   22058580.4264
  -4255508.45747  -3273797.78545  22042643.2584                   22042645.9304
  -4764987.52047  -3665657.20345  23500307.2974                   23500309.8324
    346283.96948    260990.16846  21894547.0784                   21894547.3014
   1671878.21547   1285786.41844  22710989.4064                   22710993.0984
 11  9 21 20 53 30.0000000  0  7G02G04G09G10G12G17G28
  -3464794.01648  -2665860.09046  21231727.1174                   21231725.7584
   -381818.09848   -290652.31247  19925591.5394                   19925591.5234
   -602153.26247   -463902.47345  22057699.0474                   22057701.3094
  -4362614.88347  -3357257.22345  22022261.4454                   22022264.0704
  -4889819.54347  -3762928.80544  23476552.1954                   23476554.5204
    356384.30148    268860.49646  21896469.2974                   21896470.0354
   1721932.37547   1324789.47744  22720513.6254                   22720517.5274
 11  9 21 20 54  0.0000000  0  7G02G04G09G10G12G17G28
  -3547226.91048  -2730093.44946  21216040.6334                   21216039.5514
   -382285.00448   -291016.13347  19925502.8594                   19925502.7584
   -606208.90647   -467062.73445  22056927.6804                   22056929.3404
  -4469414.09848  -3440477.25045  22001938.4534                   22001940.9924
  -5014584.12147  -3860147.83645  23452810.6564                   23452813.2774
    366552.93448    276784.06646  21898404.5084                   21898404.5204
   1772292.11347   1364030.66044  22730097.4454                   22730100.9104
 11  9 21 20 54 30.0000000  0  7G02G04G09G10G12G17G28
  -3629322.02048  -2794063.57446  21200418.1954                   21200416.8164
   -382296.79748   -291025.32447  19925500.8524                   19925500.6294
   -609704.59447   -469786.68045  22056262.1024                   22056263.5314
  -4575903.96947  -3523456.26645  21981673.6174                   21981676.1604
  -5139280.00447  -3957313.34045  23429081.7424                   23429084.1604
    376789.63348    284760.68046  21900352.2344                   21900352.6134
   1822955.66047   1403508.55944  22739738.0474                   22739741.2074
 11  9 21 20 55  0.0000000  0  7G02G04G09G10G12G17G28
  -3711077.78948  -2857769.30146  21184860.6884                   21184859.5434
   -381853.94148   -290680.25446  19925585.0164                   19925584.3954
   -612640.70347   -472074.60245  22055703.7034                   22055706.1524
  -4682079.72348  -3606190.49245  21961468.7034                   21961471.1564
  -5263903.83247  -4054422.69944  23405366.6174                   23405368.3054
    387095.97747    292791.53146  21902313.5784                   21902313.9774
   1873922.83647   1443223.06344  22749436.5784                   22749440.5904
 11  9 21 20 55 30.0000000  0  7G02G04G09G10G12G17G28
  -3792494.38748  -2921210.72746  21169367.3834                   21169366.1374
   -380958.84448   -289982.78146  19925755.2814                   19925755.1334
   -615019.60247   -473928.32045  22055250.9844                   22055252.8914
  -4787938.78147  -3688677.94545  21941324.6414                   21941326.7344
  -5388453.42247  -4151474.23844  23381665.3834                   23381666.6884
    397470.96147    300875.88346  21904288.1334                   21904288.6454
   1925192.22347   1483173.02344  22759193.4924                   22759196.6604
 11  9 21 20 56  0.0000000  0  7G02G04G09G10G12G17G28
  -3873569.07048  -2984385.75046  21153939.5634                   21153938.0984
   -379611.23048   -288932.68747  19926011.7344                   19926011.7704
   -616841.14147   -475347.75445  22054904.1024                   22054906.2704
  -4893475.68047  -3770914.36745  21921241.8204                   21921244.0204
  -5512924.52747  -4248464.62144  23357979.1954                   23357981.1804
    407917.61747    309016.09046  21906275.5474                   21906276.5394
   1976764.82447   1523359.27744  22769007.7734                   22769011.2034
 11  9 21 20 56 30.0000000  0  7G02G04G09G10G12G17G28
  -3954304.34848  -3047296.28146  21138576.1174                   21138574.7704
   -377815.75848   -287533.63346  19926353.3594                   19926353.3674
   -618109.73447   -476336.32845  22054663.6174                   22054665.5554
  -4998690.19548  -3852899.59445  21901220.0394                   21901222.3914
  -5637317.87547  -4345394.38744  23334307.7034                   23334310.0704
    418433.18447    317209.97746  21908276.7584                   21908277.4774
   2028636.60247   1563778.62144  22778879.0784                   22778882.4844
 11  9 21 20 57  0.0000000  0  7G02G04G09G10G12G17G28
  -4034696.77748  -3109939.68446  21123277.9924                   21123276.6414
   -375571.40648   -285784.79746  19926780.3524                   19926780.1994
   -618824.45347   -476893.28545  22054527.5394                   22054529.2384
  -5103575.61748  -3934628.36745  21881260.7034                   21881262.6334
  -5761627.97747  -4442259.28944  23310651.8284                   23310652.9224
    429021.40247    325460.48045  21910291.9304                   21910292.0434
   2080809.44147   1604432.59844  22788806.7114                   22788810.7544
 11  9 21 20 57 30.0000000  0  7G02G04G09G10G12G17G28
  -4114747.50448  -3172316.80546  21108044.5784                   21108043.0744
   -372880.99648   -283688.38346  19927292.7584                   19927292.4614
   -618988.43747   -477021.10545  22054495.7974                   22054498.1684
  -5208130.16847  -4016099.32445  21861364.7194                   21861367.0004
  -5885853.96547  -4539058.71544  23287013.4064                   23287013.5164
    439681.21947    333766.77746  21912320.6804                   21912321.1374
   2133280.98447   1645319.28544  22798792.3284                   22798795.3094
 11  9 21 20 58  0.0000000  0  7G02G04G09G10G12G17G28
  -4194455.77748  -3234427.08646  21092876.4844                   21092875.2234
   -369746.76248   -281246.12946  19927888.9144                   19927888.4844
   -618603.64547   -476721.30545  22054569.5554                   22054571.3284
  -5312350.60247  -4097309.91845  21841531.8524                   21841533.7304
  -6009993.40247  -4635790.62145  23263389.8594                   23263392.0394
    450412.82847    342129.00046  21914362.1804                   21914364.2504
   2186049.94947   1686437.74644  22808834.3134                   22808837.4224
 11  9 21 20 58 30.0000000  0  7G02G04G09G10G12G17G28
  -4273820.13748  -3296269.39146  21077773.9224                   21077772.4654
   -366169.03948   -278458.30146  19928569.5234                   19928569.4884
   -617670.64547   -475994.35245  22054746.3984                   22054749.3674
  -5416232.18448  -4178256.49245  21821763.9534                   21821765.9304
  -6134042.73047  -4732452.33644  23239783.2034                   23239785.0864
    461218.09048    350548.63346  21916419.1954                   21916419.6174
   2239116.33247   1727787.94944  22818932.2664                   22818936.0434
 11  9 21 20 59  0.0000000  0  7G02G04G09G10G12G17G28
  -4352840.88347  -3357843.94946  21062736.7734                   21062735.2734
   -362150.74248   -275327.17246  19929334.7584                   19929333.9774
   -616192.42247   -474842.52745  22055027.4614                   22055030.2424
  -5519772.58647  -4258937.21145  21802060.7734                   21802063.2734
  -6258000.58647  -4829042.75444  23216195.1724                   23216196.6174
    472096.55147    359025.30945  21918489.0084                   21918490.2894
   2292478.25847   1769368.46144  22829087.2274                   22829090.3014
 11  9 21 20 59 30.0000000  0  7G02G04G09G10G12G17G28
  -2856093.49648  -2191547.22746  21347558.3674                   21347557.0314
   1217727.69148    955746.91046  20229975.3444                   20229975.3014
    961250.63747    754333.80545  22355205.2664                   22355208.1174
  -4047543.31647  -3111745.44945  22082217.0554                   22082219.3164
  -4806438.56247  -3697955.37545  23492418.5314                   23492420.0084
   2058469.89147   1595160.29745  22220365.6024                   22220366.3134
   3921554.57447   3038778.36744  23139089.7274                   23139094.5984
 11  9 21 21  0  0.0000000  0  7G02G04G09G10G12G17G28
  -2934425.50448  -2252585.09446  21332652.4694                   21332650.6524
   1222622.10248    959560.73047  20230906.4144                   20230906.4144
    963814.05547    756331.23445  22355693.2664                   22355695.4344
  -4150390.83248  -3191886.25045  22062645.1174                   22062647.8674
  -4930205.21947  -3794396.81644  23468866.0164                   23468867.7894
   2069496.26247   1603752.20746  22222463.9924                   22222465.0904
   3975504.56347   3080817.11344  23149356.5704                   23149360.9534
 11  9 21 21  0 30.0000000  0  7G02G04G09G10G12G17G28
  -3012413.03948  -2313354.55146  21317811.7894                   21317810.5394
   1227951.26248    963713.32047  20231920.8284                   20231920.6684
    966916.76647    758748.87545  22356283.9384                   22356286.2814
  -4252887.42648  -3271753.60245  22043140.8134                   22043143.4494
  -5053873.34447  -3890761.46545  23445332.6724                   23445334.3484
   2080596.41847   1612401.61745  22224576.5164                   22224577.2854
   4029746.26647   3123083.12944  23159678.6254                   23159682.1134
 11  9 21 21  1  0.0000000  0  7G02G04G09G10G12G17G28
  -3090055.28948  -2373854.94546  21303036.7424                   21303035.7854
   1233714.00848    968203.75846  20233017.5234                   20233017.3834
    970557.34847    761585.66045  22356976.4224                   22356978.4144
  -4355029.21548  -3351344.48845  22023703.4224                   22023705.8954
  -5177439.60947  -3987046.79345  23421818.7974                   23421819.6334
   2091771.96947   1621109.78946  22226703.1484                   22226703.4884
   4084279.36347   3165576.21544  23170056.2194                   23170059.3794
 11  9 21 21  1 30.0000000  0  7G02G04G09G10G12G17G28
  -3167351.06248  -2434085.35946  21288327.9384                   21288326.1214
   1239909.10548    973031.09047  20234196.2424                   20234196.6134
    974734.38347    764840.43045  22357771.5704                   22357773.7814
  -4456812.27748  -3430655.85945  22004334.3914                   22004337.0434
  -5300901.11347  -4083250.44945  23398324.5164                   23398326.2934
   2103023.62547   1629877.25446  22228844.3984                   22228845.2384
   4139102.93446   3208295.65644  23180488.1334                   23180492.6454
 11  9 21 21  2  0.0000000  0  7G02G04G09G10G12G17G28
  -3244298.00448  -2494043.95746  21273685.1644                   21273683.7424
   1246536.64148    978195.39546  20235457.3364                   20235457.4774
    979448.08647    768513.41445  22358668.7344                   22358670.1524
  -4558231.24647  -3509683.50445  21985034.9144                   21985037.2854
  -5424253.12547  -4179368.80945  23374852.0234                   23374852.3444
   2114354.41847   1638706.37146  22231000.8444                   22231002.1294
   4194218.34847   3251242.49644  23190976.7894                   23190980.7704
 11  9 21 21  2 30.0000000  0  7G02G04G09G10G12G17G28
  -3320897.43748  -2553731.77346  21259108.8054                   21259107.5314
   1253593.18048    983693.98446  20236800.2974                   20236800.0234
    984694.43847    772601.41445  22359666.5704                   22359669.2034
  -4659284.75048  -3588426.39145  21965804.9454                   21965807.8754
  -5547495.16047  -4275401.46545  23351399.8754                   23351401.1914
   2125762.83647   1647595.98846  22233171.3054                   22233172.4694
   4249622.27047   3294414.15644  23201520.2974                   23201523.4344
 11  9 21 21  3  0.0000000  0  8G02G04G09G10G12G17G05G28
  -3397154.10948  -2613152.48846  21244597.8674                   21244596.3794
   1261071.34848    989521.11346  20238223.2894                   20238223.1914
    990466.18447    777098.84045  22360765.5474                   22360767.3594
  -4759974.46948  -3666885.81245  21946645.0784                   21946647.1764
  -5670629.81647  -4371350.43045  23327967.5944                   23327969.6884
   2137244.14847   1656542.41845  22235356.2504                   22235356.9184
   1311912.34455   1037634.84053  24764955.9144                   24764967.2934
   4305308.42647   3337805.75444  23212117.3594                   23212121.1054
 11  9 21 21  3 30.0000000  0  8G02G04G09G10G12G17G05G28
  -3473074.23048  -2672310.96546  21230150.4224                   21230148.7074
   1268962.97748    995670.42247  20239724.8754                   20239725.1214
    996754.75046    781998.95745  22361961.8204                   22361965.1134
  -4860303.59848  -3745064.25845  21927552.6954                   21927554.8284
  -5793660.97747  -4467218.77345  23304555.3754                   23304557.3754
   2148792.52048   1665541.07046  22237553.8754                   22237554.7934
   1176371.20346    932018.81643  24739163.1724                   24739174.0554
   4361269.24247   3381411.36344  23222766.1804                   23222770.9224
 11  9 21 21  4  0.0000000  0  8G02G04G09G10G12G17G05G28
  -3548657.51648  -2731206.97746  21215767.1564                   21215765.6764
   1277266.23448   1002140.47747  20241305.1024                   20241304.9384
   1003557.95747    787300.09445  22363256.5784                   22363259.4574
  -4960268.73848  -3822959.05545  21908529.8524                   21908531.9614
  -5916586.37147  -4563004.67244  23281162.6024                   23281164.4344
   2160408.48048   1674592.41846  22239764.8444                   22239765.1524
   1040721.20746    826317.92643  24713350.0234                   24713359.8404
   4417503.41447   3425229.98044  23233468.2034                   23233471.8914
 11  9 21 21  4 30.0000000  0  8G02G04G09G10G12G17G05G28
  -3623896.81248  -2789834.94946  21201449.9304                   21201448.4384
   1285985.65248   1008934.82046  20242964.4534                   20242964.4454
   1010880.40547    793005.78545  22364650.3134                   22364653.0164
  -5059860.27747  -3900562.75845  21889577.9694                   21889580.0594
  -6039396.36747  -4658700.67244  23257793.0784                   23257794.7544
   2172099.09047   1683701.91446  22241989.3134                   22241990.4614
    904971.85946    720539.61343  24687517.0084                   24687526.8284
   4474016.22747   3469265.70344  23244221.1884                   23244226.1214
 11  9 21 21  5  0.0000000  0  8G02G04G09G10G12G17G05G28
  -3698787.85248  -2848191.54746  21187198.4534                   21187197.0394
   1295123.61748   1016055.28946  20244702.9614                   20244703.0354
   1018724.07047    799117.72345  22366142.3524                   22366145.0044
  -5159070.42648  -3977869.26245  21870699.0234                   21870701.3364
  -6162084.42647  -4754301.65645  23234446.6484                   23234447.1644
   2183869.22748   1692873.39546  22244229.2894                   22244229.4804
    769129.92646    614689.24243  24661666.6174                   24661676.7464
   4530810.87947   3513521.08244  23255029.8444                   23255033.5474
 11  9 21 21  5 30.0000000  0  8G02G04G09G10G12G17G05G28
  -3773327.68448  -2906274.47746  21173013.8204                   21173011.9384
   1304680.75448   1023502.39846  20246521.8834                   20246521.8244
   1027089.56648    805636.23445  22367734.9224                   22367736.5784
  -5257893.69147  -4054874.30945  21851893.3754                   21851895.6954
  -6284645.59047  -4849803.79745  23211124.2274                   23211124.3404
   2195721.55147   1702108.93046  22246484.1484                   22246485.0514
    633200.77046    508770.90643  24635799.8364                   24635810.0704
   4587888.62547   3557997.04344  23265891.1254                   23265895.1254
 11  9 21 21  6  0.0000000  0  8G02G04G09G10G12G17G05G28
  -3847515.12548  -2964082.82446  21158896.4224                   21158895.0594
   1314656.09048   1031275.37547  20248420.4614                   20248419.8094
   1035975.55947    812560.31645  22369425.7814                   22369428.0044
  -5356325.91448  -4131574.64145  21833162.2894                   21833164.1994
  -6407076.26647  -4945204.21945  23187826.0634                   23187827.5904
   2207657.94547   1711409.93846  22248755.9694                   22248757.4184
    497189.09846    402788.27343  24609916.8444                   24609927.6484
   4645248.93447   3602693.16444  23276807.1254                   23276810.7464
 11  9 21 21  6 30.0000000  0  8G02G04G09G10G12G17G05G28
  -3921348.84848  -3021615.54346  21144846.0234                   21144845.1254
   1325048.48848   1039373.32847  20250397.9614                   20250398.1094
   1045380.85547    819889.07445  22371215.4454                   22371217.8284
  -5454362.86748  -4207966.97346  21814506.6484                   21814508.4184
  -6529373.09447  -5040500.37145  23164553.5394                   23164554.6844
   2219679.58247   1720777.39146  22251043.7034                   22251044.2814
    361097.03146    296742.96143  24584019.5784                   24584029.4104
   4702891.68847   3647609.35544  23287776.3834                   23287779.2624
 11  9 21 21  7  0.0000000  0  8G02G04G09G10G12G17G05G28
  -3994829.46548  -3078873.10546  21130863.4144                   21130861.9534
   1335855.27748   1047794.18447  20252454.4384                   20252454.6214
   1055302.43447    827620.12145  22373103.0864                   22373105.3594
  -5552001.98048  -4284049.29345  21795926.5084                   21795928.5274
  -6651534.26247  -5135690.80145  23141307.4304                   23141308.2734
   2231786.35947   1730211.17645  22253347.3914                   22253347.9224
    224927.19146    190637.05143  24558107.2814                   24558117.1334
   4760814.67247   3692743.93044  23298798.5394                   23298802.4844
 11  9 21 21  7 30.0000000  0  8G02G04G09G10G12G17G05G28
  -4067955.18448  -3135854.13346  21116948.2504                   21116946.5274
   1347076.21548   1056537.74646  20254589.3754                   20254589.5984
   1065739.50047    835752.81645  22375090.0864                   22375092.2384
  -5649238.83648  -4359818.19145  21777422.8364                   21777424.2854
  -6773555.73847  -5230772.37945  23118086.6564                   23118088.7814
   2243980.56347   1739713.10545  22255667.8524                   22255668.5984
     88684.18046     84474.07043  24532180.5704                   24532190.4694
   4819018.15646   3738097.04744  23309874.0474                   23309879.5274
 11  9 21 21  8  0.0000000  0  8G02G04G09G10G12G17G05G28
  -4140725.73048  -3192558.41446  21103100.0864                   21103098.7504
   1358709.04748   1065602.25846  20256803.6254                   20256803.2344
   1076689.31647    844285.06645  22377173.3364                   22377176.4574
  -5746070.24247  -4435271.14545  21758996.4454                   21758998.0314
  -6895434.71547  -5325742.91845  23094893.8054                   23094895.7114
   2256262.82048   1749283.60545  22258005.7734                   22258006.2974
    -47629.33246    -21743.82043  24506240.1414                   24506250.1884
   4877500.72746   3783667.65244  23321002.8914                   23321008.0744
 11  9 21 21  8 30.0000000  0  8G02G04G09G10G12G17G05G28
  -4213142.87148  -3248987.30546  21089319.8754                   21089318.1524
   1370750.00048   1074984.80546  20259094.5084                   20259094.8284
   1088148.47747    853214.20745  22379354.2274                   22379356.7034
  -5842494.69948  -4510406.98445  21740647.1334                   21740649.0514
  -7017170.54347  -5420601.92645  23071728.6024                   23071729.8094
   2268631.42647   1758921.43045  22260358.6094                   22260359.6254
   -184012.10945   -128015.74243  24480287.0234                   24480296.0824
   4936259.39546   3829453.39843  23332184.7664                   23332189.8834
 11  9 21 21  9  0.0000000  0  8G02G04G09G10G12G17G05G28
  -4285206.23848  -3305140.53146  21075606.1564                   21075604.6094
   1383197.08248   1084683.80546  20261463.2504                   20261463.4384
   1100114.12948    862537.99645  22381631.7194                   22381633.2894
  -5938508.84848  -4585223.09445  21722376.2194                   21722378.0664
  -7138760.76247  -5515347.46545  23048591.0004                   23048592.3164
   2281087.16847   1768627.13345  22262729.3284                   22262730.8874
   -320461.82446   -234339.82043  24454321.5234                   24454330.9024
   4995292.64146   3875453.11344  23343418.5394                   23343423.2974
 11  9 21 21  9 30.0000000  0  8G02G04G09G10G12G17G05G28
  -4356914.54748  -3361017.09846  21061960.7504                   21061958.7854
   1396049.68048   1094698.78546  20263909.1334                   20263908.8634
   1112585.28547    872255.72345  22384004.2584                   22384007.5944
  -6034108.51247  -4659716.25045  21704183.7504                   21704185.7894
  -7260201.44947  -5609976.50445  23025480.7814                   23025482.0124
   2293631.76248   1778402.07446  22265116.9064                   22265117.9184
   -456974.28146   -340712.78143  24428343.9614                   24428352.8874
   5054600.65246   3921666.91444  23354704.6644                   23354710.5984
 11  9 21 21 10  0.0000000  0  8G02G04G09G10G12G17G05G28
  -4428266.82848  -3416616.23846  21048382.8834                   21048381.4454
   1409306.34448   1105028.63746  20266431.6334                   20266431.4384
   1125560.50848    882366.19145  22386473.9844                   22386475.7194
  -6129289.84047  -4733883.42645  21686071.7194                   21686073.8204
  -7381489.48047  -5704486.56245  23002400.7114                   23002402.2974
   2306266.46947   1788247.23445  22267520.8754                   22267522.4614
   -593546.05146   -447131.93743  24402353.9064                   24402364.7734
   5114182.73846   3968094.25044  23366042.9304                   23366048.5434
 11  9 21 21 10 30.0000000  0  8G02G04G09G10G12G17G05G28
  -4499265.49648  -3471939.82846  21034872.4774                   21034870.5124
   1422962.62948   1115669.85946  20269030.2664                   20269030.5634
   1139034.67247    892865.47345  22389037.4924                   22389039.6254
  -6224051.95748  -4807723.94545  21668038.7814                   21668040.8874
  -7502624.36347  -5798877.30145  22979349.4694                   22979350.7774
   2318989.28547   1798161.04745  22269942.1024                   22269942.6334
   -730176.57045   -553596.90643  24376354.8754                   24376364.4964
   5174034.69546   4014731.88743  23377432.8134                   23377437.0274
 11  9 21 21 11  0.0000000  0  8G02G04G09G10G12G17G05G28
  -4569908.55948  -3526986.33246  21021429.5234                   21021427.7504
   1437018.05548   1126622.12547  20271705.1954                   20271705.3164
   1153007.35547    903753.18845  22391696.9224                   22391699.5084
  -6318390.45348  -4881234.36745  21650086.7584                   21650088.5354
  -7623602.20747  -5893145.68445  22956328.2584                   22956329.4734
   2331802.61747   1808145.39546  22272379.8444                   22272381.6374
   -866861.49246   -660104.22744  24350343.7584                   24350353.9494
   5234156.83646   4061580.10943  23388873.6024                   23388878.5354
 11  9 21 21 11 30.0000000  0  8G02G04G09G10G12G17G05G28
  -4640195.00848  -3581754.94946  21008053.8834                   21008052.4224
   1451471.55548   1137884.57846  20274455.3364                   20274455.6454
   1167476.98847    915028.14845  22394449.8984                   22394452.5904
  -6412301.24648  -4954411.53945  21632216.6024                   21632217.7704
  -7744419.33247  -5987288.82845  22933337.5394                   22933338.6294
   2344708.06647   1818201.50445  22274836.2584                   22274837.9884
  -1003596.85546   -766650.85944  24324323.6174                   24324333.7464
   5294548.77346   4108638.48843  23400365.7894                   23400371.1294
 11  9 21 21 12  0.0000000  0  8G02G04G09G10G12G17G05G28
  -4710126.12948  -3636246.68746  20994746.5944                   20994744.7544
   1466319.92248   1149454.71146  20277281.0164                   20277281.0234
   1182439.68447    926687.30145  22397297.8594                   22397299.8914
  -6505782.26647  -5027253.80946  21614427.7584                   21614428.9414
  -7865074.48447  -6081305.74645  22910377.5084                   22910379.1254
   2357704.68447   1828328.68045  22277309.2974                   22277310.9184
  -1140381.10946   -873235.60544  24298294.2734                   24298304.0784
   5355207.89546   4155905.12944  23411909.2504                   23411914.8324
 11  9 21 21 12 30.0000000  0  8G02G04G09G10G12G17G05G28
  -4779700.35548  -3690460.32446  20981506.6094                   20981504.5514
   1481562.45748   1161331.97746  20280181.5394                   20280182.0274
   1197894.38747    938729.84045  22400238.4534                   22400241.7384
  -6598829.34448  -5099757.93046  21596721.0554                   21596722.8634
  -7985563.66847  -6175193.34445  22887448.8984                   22887450.8674
   2370794.72347   1838528.63745  22279800.5784                   22279801.2504
  -1277210.07446   -979855.18044  24272256.0554                   24272265.7814
   5416133.98846   4203379.74643  23423503.2894                   23423508.9614
 11  9 21 21 13  0.0000000  0  8G02G04G09G10G12G17G05G28
  -4848918.83248  -3744396.76246  20968335.3754                   20968333.2464
   1497195.40648   1173513.48046  20283156.4454                   20283156.4924
   1213837.14147    951152.71545  22403272.3364                   22403275.1054
  -6691440.80147  -5171922.62946  21579097.8054                   21579099.3364
  -8105885.65247  -6268950.64145  22864552.5634                   22864553.8014
   2383976.97347   1848800.46545  22282309.3754                   22282309.1024
  -1414082.64146  -1086508.66044  24246209.6804                   24246218.8714
   5477324.15646   4251060.15643  23435147.4924                   23435152.0904
 11  9 21 21 13 30.0000000  0  8G02G04G09G10G12G17G05G28
  -4917781.05948  -3798055.59046  20955230.9844                   20955229.3524
   1513217.41848   1185998.14846  20286205.6564                   20286205.5904
   1230265.98847    963954.31345  22406398.4064                   22406401.3164
  -6783613.02047  -5243745.04346  21561557.7734                   21561560.0554
  -8226037.37547  -6362575.25845  22841688.4534                   22841689.4694
   2397252.80547   1859145.20345  22284835.6174                   22284835.9964
  -1550994.88746  -1193193.12944  24220156.1174                   24220165.4534
   5538777.68446   4298945.78143  23446842.4384                   23446847.9534
 11  9 21 21 14  0.0000000  0  8G02G04G09G10G12G17G05G28
  -4986286.24248  -3851436.19946  20942194.8444                   20942192.8324
   1529627.37548   1198785.10946  20289328.0554                   20289328.0514
   1247179.50447    977133.60545  22409617.2194                   22409620.3984
  -6875342.12947  -5315222.19946  21544102.4774                   21544103.5984
  -8346014.95347  -6456064.20745  22818857.0554                   22818858.6134
   2410623.70747   1869564.03545  22287379.8134                   22287380.3524
  -1687943.23047  -1299905.75444  24194095.7664                   24194104.6414
   5600494.24246   4347036.35243  23458586.1254                   23458591.2664
 11  9 21 21 14 30.0000000  0  8G02G04G09G10G12G17G05G28
  -5054433.91048  -3904538.23046  20929226.8134                   20929225.2424
   1546423.59448   1211873.05146  20292524.4844                   20292524.2814
   1264575.29347    990688.71545  22412927.7034                   22412929.2704
  -6966624.92247  -5386351.55545  21526731.4694                   21526732.4694
  -8465815.74647  -6549415.36745  22796059.7974                   22796061.1094
   2424090.52047   1880057.57845  22289942.0634                   22289943.7274
  -1824924.64147  -1406644.14544  24168028.7584                   24168037.7704
   5662472.28146   4395330.71143  23470380.3524                   23470387.2074
 11  9 21 21 15  0.0000000  0  8G02G04G09G10G12G17G05G28
  -5122220.24248  -3957358.70746  20916327.5864                   20916325.8484
   1563607.82848   1225263.34446  20295794.4534                   20295794.5044
   1282454.67647   1004620.63345  22416330.4224                   22416332.6564
  -7057454.36747  -5457127.66446  21509447.1644                   21509448.8324
  -8585433.25847  -6642623.73045  22773297.8834                   22773298.5554
   2437657.78148   1890629.40245  22292524.5784                   22292525.8054
  -1961932.43446  -1513403.09044  24141956.4844                   24141965.7974
   5724714.20346   4443830.65243  23482224.9694                   23482230.9574
 11  9 21 21 15 30.0000000  0  8G02G04G09G10G12G17G05G28
  -5189648.54348  -4009900.17646  20903496.4304                   20903494.1484
   1581174.64548   1238951.76646  20299137.4064                   20299137.4104
   1300811.78547   1018924.82045  22419823.3594                   22419826.4304
  -7147830.78148  -5527550.77746  21492249.1884                   21492250.8134
  -8704868.07847  -6735689.72745  22750569.6334                   22750570.9304
   2451322.50847   1901277.18445  22295124.7194                   22295126.5664
  -2098966.71546  -1620182.67643  24115879.1414                   24115887.8094
   5787215.38346   4492532.58243  23494119.0004                   23494124.7034
 11  9 21 21 16  0.0000000  0  8G02G04G09G10G12G17G05G28
  -5256718.23448  -4062162.24246  20890733.2114                   20890731.2114
   1599122.19948   1252936.85946  20302552.9694                   20302552.6374
   1319644.35247   1033599.49245  22423407.1254                   22423410.0234
  -7237750.93447  -5597618.34046  21475137.6804                   21475139.3554
  -8824117.03947  -6828610.89845  22727877.0234                   22727877.5434
   2465085.79747   1912001.74245  22297744.0784                   22297745.4574
  -2236024.15246  -1726980.27743  24089797.1174                   24089807.0864
   5849974.42246   4541435.45343  23506060.5234                   23506067.6604
 11  9 21 21 16 30.0000000  0  8G02G04G09G10G12G17G05G28
  -5323430.48048  -4114145.76246  20878038.4844                   20878036.4494
   1617447.17648   1267216.05146  20306039.8054                   20306039.4964
   1338948.67647   1048641.77745  22427080.6564                   22427083.1454
  -7327213.14148  -5667329.06646  21458113.3914                   21458114.7854
  -8943178.94947  -6921386.29345  22705220.5634                   22705221.2624
   2478947.40248   1922802.92645  22300382.2034                   22300382.5944
  -2373103.41046  -1833794.87544  24063712.4304                   24063721.1564
   5912988.75446   4590537.25843  23518052.9534                   23518059.4064
 11  9 21 21 17  0.0000000  0  8G02G04G09G10G12G17G05G28
  -5389786.22748  -4165851.49646  20865411.3284                   20865409.2274
   1636146.67248   1281787.06646  20309598.0164                   20309598.2304
   1358720.89548   1064048.63345  22430843.8204                   22430846.1024
  -7416215.35947  -5736681.37146  21441176.9304                   21441178.8554
  -9062052.12947  -7014014.65245  22682599.3754                   22682600.1884
   2492906.43047   1933680.03145  22303038.0394                   22303039.9494
  -2510202.48447  -1940624.93043  24037623.0704                   24037630.4104
   5976255.84046   4639835.96543  23530093.0944                   23530099.0514
 11  9 21 21 17 30.0000000  0  8G02G04G09G10G12G17G05G28
  -5455781.74248  -4217276.52346  20852852.7114                   20852850.5594
   1655222.37948   1296651.25046  20313228.0004                   20313228.8134
   1378962.54747   1079821.28545  22434695.1334                   22434698.3834
  -7504751.03947  -5805670.14546  21424328.7894                   21424330.5984
  -9180730.03947  -7106490.84045  22660015.2894                   22660015.9414
   2506967.50447   1944636.65645  22305713.8134                   22305714.6564
  -2647314.26247  -2047464.91843  24011531.2894                   24011539.3054
   6039778.13346   4689333.60943  23542181.2814                   23542186.2464
 11  9 21 21 18  0.0000000  0  8G02G04G09G10G12G17G05G28
  -5521419.56248  -4268422.82046  20840362.2194                   20840360.3634
   1674669.52748   1311804.84846  20316928.7664                   20316929.0084
   1399668.20346   1095955.48844  22438634.7664                   22438638.4614
  -7592819.63748  -5874294.93046  21407570.3054                   21407571.5044
  -9299212.47347  -7198814.70745  22637469.0314                   22637468.9344
   2521128.53148   1955671.15645  22308408.8364                   22308409.5314
  -2784438.68046  -2154314.77343  23985436.8834                   23985444.5784
   6103551.35546   4739026.75044  23554316.4384                   23554322.2074
 11  9 21 21 18 30.0000000  0  8G02G04G09G10G12G17G05G28
  -5586697.34048  -4319288.57846  20827940.3364                   20827938.0514
   1694488.72748   1327248.35546  20320700.3524                   20320699.8984
   1420837.80547   1112451.22744  22442663.2894                   22442666.5704
  -7680415.48447  -5942551.34846  21390900.8054                   21390902.3674
  -9417494.23847  -7290982.20345  22614960.2894                   22614961.5354
   2535392.93847   1966786.21145  22311123.1724                   22311124.2464
  -2921570.14546  -2261170.07843  23959341.1174                   23959348.5004
   6167576.79746   4788916.45343  23566500.4144                   23566506.5044
 11  9 21 21 19  0.0000000  0  8G02G04G09G10G12G17G05G28
  -5651618.42648  -4369876.39546  20815586.2814                   20815584.0394
   1714674.34848   1342977.39546  20324541.4924                   20324541.3484
   1442465.06346   1129303.55944  22446779.5394                   22446782.2194
  -7767539.30947  -6010439.96146  21374321.7344                   21374323.2504
  -9535576.00447  -7382993.87545  22592490.1094                   22592490.9454
   2549757.90648   1977979.61345  22313856.9534                   22313858.5664
  -3058709.20346  -2368031.30944  23933244.6804                   23933252.3634
   6231849.03946   4838998.42244  23578731.5634                   23578737.8984
 11  9 21 21 19 30.0000000  0  8G02G04G09G10G12G17G05G28
  -5716181.04348  -4420184.87946  20803300.1644                   20803298.2464
   1735225.96148   1358991.60546  20328452.3204                   20328452.7194
   1464549.40647   1146512.06645  22450981.7894                   22450985.1804
  -7854186.82047  -6077957.41846  21357833.5474                   21357834.8524
  -9653453.25047  -7474846.17645  22570059.2814                   22570060.4064
   2564226.18447   1989253.52745  22316609.8834                   22316611.6724
  -3195851.21146  -2474894.82844  23907146.5164                   23907154.5274
   6296368.51247   4889273.02744  23591009.4614                   23591015.2154
 11  9 21 21 20  0.0000000  0  8G02G04G09G10G12G17G05G28
  -5780383.45748  -4470212.69146  20791082.8834                   20791081.0314
   1756143.37548   1375290.86746  20332432.9304                   20332433.1094
   1487089.61347   1164075.80945  22455271.1804                   22455273.5904
  -7940352.73847  -6145099.61346  21341436.5944                   21341438.5864
  -9771121.43747  -7566535.58645  22547668.0314                   22547668.3594
   2578799.87947   2000609.59845  22319382.9304                   22319384.8134
  -3332991.36747  -2581756.89544  23881049.8204                   23881057.5044
   6361135.73846   4939740.68043  23603334.4534                   23603341.3594
 11  9 21 21 20 30.0000000  0  8G02G04G09G10G12G17G05G28
  -5844225.97348  -4519960.06646  20778933.7734                   20778931.9964
   1777424.28948   1391873.37546  20336482.3834                   20336482.7504
   1510082.92647   1181992.62545  22459646.7974                   22459648.6414
  -8026034.98047  -6211864.91846  21325131.8134                   21325132.7854
  -9888578.62147  -7658060.58245  22525316.3834                   22525316.8094
   2593479.22347   2012047.96545  22322176.7734                   22322178.6644
  -3470126.89147  -2688615.36344  23854952.7504                   23854961.4144
   6426148.55946   4990399.77743  23615705.7814                   23615713.4184
 11  9 21 21 21  0.0000000  0  8G02G04G09G10G12G17G05G28
  -5907709.55948  -4569427.74646  20766853.5944                   20766851.4224
   1799065.60248   1408736.69546  20340600.4614                   20340600.8094
   1533526.02047   1200259.90245  22464108.3054                   22464111.1094
  -8111231.40648  -6278251.67646  21308919.4454                   21308920.2734
 -10005822.28947  -7749419.23045  22503005.9144                   22503006.3054
   2608264.12147   2023568.60545  22324990.5394                   22324991.4694
  -3607255.56647  -2795468.50444  23828858.8834                   23828866.2974
   6491404.91046   5041248.58243  23628124.1484                   23628130.6334
 11  9 21 21 21 30.0000000  0  8G02G04G09G10G12G17G05G28
  -5970833.49648  -4618615.19946  20754841.5234                   20754839.4964
   1821065.98448   1425879.82046  20344787.2814                   20344787.8484
   1557416.53947   1218875.80545  22468653.7344                   22468657.4574
  -8195938.38347  -6344257.02746  21292799.8834                   21292801.2194
 -10122849.40247  -7840609.09845  22480735.4534                   22480736.3834
   2623156.09847   2035172.67645  22327824.2814                   22327824.7734
  -3744373.47347  -2902313.28144  23802765.3594                   23802772.7584
   6556903.37946   5092286.08643  23640588.1334                   23640594.4024
 11  9 21 21 22  0.0000000  0  8G02G04G09G10G12G17G05G28
  -6033597.71548  -4667522.34046  20742897.6954                   20742895.5554
   1843423.53548   1443301.26246  20349041.5394                   20349042.0784
   1581751.80947   1237838.25445  22473284.9454                   22473288.2344
  -8280153.05548  -6409878.76646  21276774.3754                   21276775.7814
 -10239657.05147  -7931627.98045  22458508.3754                   22458509.5944
   2638155.73847   2046860.63745  22330678.6254                   22330680.0394
  -3881477.68447  -3009147.34844  23776675.1254                   23776682.1844
   6622642.98446   5143511.42643  23653098.8134                   23653104.6024
 11  9 21 21 22 30.0000000  0  8G02G04G09G10G12G17G05G28
  -6096001.41048  -4716148.55546  20731022.6724                   20731020.3444
   1866136.94148   1460999.99246  20353364.0234                   20353364.3714
   1606529.99247   1257145.82445  22478000.2664                   22478003.6994
  -8363871.74248  -6475114.03946  21260843.4454                   21260844.2934
 -10356241.43447  -8022472.89145  22436322.7504                   22436323.7074
   2653264.92248   2058633.96545  22333554.2114                   22333555.4494
  -4018564.57446  -3115967.91444  23750587.5634                   23750595.1914
   6688622.74646   5194923.93443  23665654.2584                   23665661.1844
 11  9 21 21 23  0.0000000  0  8G02G04G09G10G12G17G05G28
  -6158044.98448  -4764494.16846  20719216.0554                   20719214.3634
   1889203.79348   1478974.14146  20357753.3914                   20357753.5044
   1631748.18847   1276796.27345  22482799.5634                   22482802.3324
  -8447092.13348  -6539961.02046  21245006.7114                   21245008.3754
 -10472600.18047  -8113141.94945  22414180.3364                   22414181.0394
   2668483.96147   2070492.91045  22336449.6414                   22336451.4454
  -4155631.14847  -3222772.66844  23724504.5944                   23724512.3164
   6754840.88346   5246522.23043  23678256.0234                   23678262.6254
 11  9 21 21 23 30.0000000  0  8G02G04G09G10G12G17G05G28
  -6219725.96948  -4812557.24646  20707478.6024                   20707476.4304
   1912624.63748   1497224.11746  20362210.3204                   20362210.3134
   1657406.21947   1296789.46545  22487682.0704                   22487684.0984
  -8529808.57048  -6604415.32446  21229266.3674                   21229267.2234
 -10588727.60247  -8203630.81645  22392081.9144                   22392082.4494
   2683816.07847   2082439.94945  22339367.3444                   22339369.3524
  -4292671.66047  -3329557.10944  23698426.8054                   23698434.1174
   6821298.53946   5298307.10943  23690901.7974                   23690909.4414
 11  9 21 21 24  0.0000000  0  8G02G04G09G10G12G17G05G28
  -6281047.66848  -4860340.35946  20695809.6484                   20695807.5904
   1936394.48848   1515746.07046  20366733.3674                   20366733.9654
   1683498.03547   1317120.69145  22492647.3754                   22492649.5744
  -8612021.60248  -6668477.35546  21213621.6804                   21213623.0784
 -10704624.25847  -8293939.84845  22370027.6334                   22370027.3244
   2699259.03147   2094473.36745  22342306.1254                   22342307.7344
  -4429686.10547  -3436321.26244  23672354.0554                   23672361.0704
   6887990.85946   5350274.86743  23703594.4694                   23703599.9774
 11  9 21 21 24 30.0000000  0  8G02G04G09G10G12G17G05G28
  -6342009.93748  -4907843.40646  20684208.7734                   20684207.0164
   1960511.06648   1534538.18846  20371323.0164                   20371323.4924
   1710021.18447   1337788.00845  22497694.7034                   22497696.5314
  -8693728.31248  -6732144.85246  21198073.2584                   21198074.3754
 -10820287.57047  -8384067.01245  22348017.4384                   22348017.7424
   2714813.47747   2106593.64545  22345265.9144                   22345267.9264
  -4566671.49247  -3543062.76644  23646286.2424                   23646292.9734
   6954916.36746   5402424.32443  23716329.5394                   23716335.3874
 11  9 21 21 25  0.0000000  0  8G02G04G09G10G12G17G05G28
  -6402612.40248  -4955066.07046  20672676.4924                   20672674.7344
   1984972.99648   1553599.40246  20375978.0944                   20375978.3754
   1736973.41047   1358789.67245  22502822.8674                   22502825.8984
  -8774925.56648  -6795415.37145  21182621.7504                   21182622.9304
 -10935714.05947  -8474009.67245  22326052.1334                   22326052.6604
   2730480.63347   2118801.77345  22348247.9064                   22348248.4694
  -4703624.27347  -3649778.84444  23620223.2114                   23620231.1454
   7022074.10546   5454754.68843  23729110.0864                   23729115.8284
 11  9 21 21 25 30.0000000  0  8G02G04G09G10G12G17G05G28
  -4887435.70748  -3774408.89146  20961004.7584                   20961002.5164
   3585194.94548   2800525.57846  20680490.2194                   20680490.2544
   3339768.40247   2607720.76244  22807824.2584                   22807827.7304
  -7280190.16848  -5630686.43446  21467060.8524                   21467061.6994
  -9475479.23447  -7336164.28145  22603925.8284                   22603926.1174
   4321678.73447   3358696.33245  22651042.4384                   22651043.8164
  -3265119.19147  -2528865.42244  23893962.2664                   23893969.4654
   8664877.77346   6734861.09843  24041724.7894                   24041731.4144
 11  9 21 21 26  0.0000000  0  8G02G04G09G10G12G17G05G28
  -4947322.09048  -3821073.57846  20949609.0004                   20949606.6954
   3610338.08648   2820117.62546  20685274.2344                   20685274.7854
   3367566.90647   2629381.80544  22813114.5474                   22813118.6454
  -7360363.18048  -5693158.82046  21451804.2344                   21451805.3594
  -9590426.46947  -7425733.46545  22582052.0784                   22582052.7074
   4337570.57448   3371079.52345  22654066.4694                   22654068.0634
  -3402000.66447  -2635525.94944  23867914.3284                   23867921.0784
   8732491.83246   6787547.04743  24054590.7974                   24054599.2344
 11  9 21 21 26 30.0000000  0  8G02G04G09G10G12G17G05G28
  -5006851.40648  -3867460.05146  20938280.8364                   20938278.8794
   3635817.78148   2839971.91046  20690123.2894                   20690123.2974
   3395783.59847   2651368.72745  22818484.2814                   22818487.9614
  -7440020.93048  -5755229.74646  21436646.0864                   21436647.2194
  -9705130.61347  -7515113.24645  22560223.8444                   22560225.2424
   4353575.09448   3383550.53145  22657112.4614                   22657114.3404
  -3538842.54747  -2742155.66044  23841873.5784                   23841880.3204
   8800330.69946   6840408.22743  24067500.3054                   24067508.2544
 11  9 21 21 27  0.0000000  0  8G02G04G09G10G12G17G05G28
  -5066020.75048  -3913565.99646  20927021.2814                   20927019.3594
   3661635.03148   2860089.22346  20695036.0234                   20695036.4804
   3424418.58647   2673681.60945  22823933.8524                   22823937.1954
  -7519157.76248  -5816894.74646  21421586.8674                   21421588.2274
  -9819586.21547  -7604299.35245  22538444.2424                   22538444.4264
   4369695.84047   3396112.09045  22660179.9924                   22660182.0594
  -3675638.75047  -2848749.79344  23815842.6884                   23815848.3874
   8868395.84446   6893445.64143  24080453.1254                   24080460.5434
 11  9 21 21 27 30.0000000  0  8G02G04G09G10G12G17G05G28
  -5124831.13348  -3959392.23446  20915829.8134                   20915827.8244
   3687786.96948   2880467.33246  20700012.6414                   20700012.7974
   3453468.31647   2696317.64545  22829461.5314                   22829464.6454
  -7597771.83248  -5878152.40646  21406626.9924                   21406628.1684
  -9933791.21147  -7693290.18445  22516711.6334                   22516712.2464
   4385932.81647   3408764.20345  22663269.5944                   22663271.3054
  -3812387.07047  -2955306.61344  23789819.6094                   23789825.9344
   8936684.76647   6946657.47343  24093448.7504                   24093455.9534
 11  9 21 21 28  0.0000000  0  8G02G04G09G10G12G17G05G28
  -5183284.88348  -4004940.58646  20904706.4454                   20904704.5084
   3714269.51248   2901103.06646  20705052.2894                   20705052.2114
   3482927.96147   2719273.13745  22835067.6724                   22835070.5824
  -7675862.50448  -5939002.21546  21391766.6804                   21391767.6604
 -10047744.44548  -7782084.81245  22495026.9614                   22495027.7034
   4402284.73447   3421505.89845  22666381.0784                   22666383.0904
  -3949086.25446  -3061825.12544  23763806.1884                   23763813.1684
   9005193.91446   7000040.88743  24106485.6414                   24106493.3834
 11  9 21 21 28 30.0000000  0  8G02G04G09G10G12G17G05G28
  -5241382.71148  -4050211.59446  20893650.6414                   20893648.7544
   3741079.86348   2921994.21546  20710154.1414                   20710153.9614
   3512793.64547   2742544.98444  22840751.0554                   22840754.0864
  -7753428.02348  -5999442.81646  21377006.3914                   21377007.6644
 -10161443.93447  -7870681.73045  22473390.3754                   22473391.3404
   4418751.71147   3434337.23045  22669515.2114                   22669517.3484
  -4085733.80547  -3168303.40644  23737803.0004                   23737809.1684
   9073921.10546   7053594.18043  24119563.6644                   24119571.9384
 11  9 21 21 29  0.0000000  0  8G02G04G09G10G12G17G05G28
  -5299121.70348  -4095202.98846  20882663.2584                   20882661.2734
   3768219.11748   2943141.66846  20715318.0704                   20715318.3754
   3543065.95347   2766133.69544  22846512.1334                   22846514.3554
  -7830462.47348  -6059469.59846  21362346.8134                   21362348.5004
 -10274883.72747  -7959076.29345  22451803.2344                   22451804.3984
   4435338.16447   3447261.68045  22672671.2504                   22672672.9844
  -4222323.45346  -3274736.62544  23711809.9774                   23711816.2624
   9142867.48446   7107318.28943  24132684.3524                   24132691.9844
 11  9 21 21 29 30.0000000  0  8G02G04G09G10G12G17G05G28
  -5356502.22348  -4139915.03946  20871744.1334                   20871742.3594
   3795684.81648   2964543.48846  20720545.0234                   20720545.1254
   3573741.55947   2790036.67245  22852348.7584                   22852352.6294
  -7906963.73448  -6119080.91446  21347789.3204                   21347790.6684
 -10388061.25448  -8047266.51246  22430266.8524                   22430267.7154
   4452043.59847   3460278.83645  22675850.1564                   22675851.9344
  -4358852.60547  -3381122.69144  23685829.8444                   23685835.5204
   9212031.35546   7161211.89543  24145845.8134                   24145854.4024
 11  9 21 21 30  0.0000000  0  8G02G04G09G10G12G17G05G28
  -5413526.48048  -4184349.48846  20860892.5394                   20860890.9654
   3823473.15248   2986196.70746  20725833.1484                   20725833.1414
   3604815.73047   2814250.19144  22858262.8284                   22858265.0704
  -7982930.97748  -6178276.09846  21333333.0784                   21333334.0634
 -10500975.63747  -8135251.66445  22408779.6334                   22408780.1414
   4468867.59847   3473388.36745  22679051.8914                   22679054.6334
  -4495319.86347  -3487460.51244  23659861.1334                   23659866.7034
   9281409.39146   7215272.34043  24159049.0784                   24159056.4384
 11  9 21 21 30 30.0000000  0  8G02G04G09G10G12G17G05G28
  -5470194.34048  -4228506.22346  20850109.4304                   20850107.3164
   3851582.32848   3008099.92646  20731181.8674                   20731182.4924
   3636285.85947   2838772.26645  22864251.4774                   22864254.3874
  -8058361.57048  -6237053.13346  21318979.1484                   21318980.5204
 -10613623.72747  -8223029.32445  22387343.7664                   22387343.2774
   4485811.35247   3486591.22745  22682276.4384                   22682278.3444
  -4631721.74247  -3593747.38744  23633904.3674                   23633909.3714
   9351000.06346   7269498.52743  24172292.1094                   24172299.6644
 11  9 21 21 31  0.0000000  0  8G02G04G09G10G12G17G05G28
  -5526504.83648  -4272384.50846  20839393.8834                   20839391.7664
   3880011.32048   3030252.34846  20736591.7424                   20736592.1254
   3668150.04747   2863601.38345  22870315.8134                   22870318.4734
  -8133251.86748  -6295409.14846  21304727.7664                   21304728.8674
 -10726001.55948  -8310596.39845  22365959.1644                   22365959.4144
   4502876.31347   3499888.53945  22685523.8284                   22685525.5784
  -4768054.10547  -3699980.12544  23607960.4534                   23607965.9804
   9420802.38346   7323889.57843  24185574.1024                   24185583.6334
 11  9 21 21 31 30.0000000  0  8G02G04G09G10G12G17G05G28
  -5582457.48848  -4315983.94546  20828746.0704                   20828744.0594
   3908758.85248   3052652.98446  20742062.4614                   20742062.9064
   3700406.32047   2888736.03545  22876453.5474                   22876456.8794
  -8207598.20348  -6353341.30146  21290580.2664                   21290580.8634
 -10838105.48848  -8397950.04745  22344626.1484                   22344626.1174
   4520063.85247   3513281.34845  22688794.9694                   22688796.6684
  -4904312.93047  -3806155.54344  23582031.2424                   23582037.6094
   9490815.81646   7378445.11343  24198897.3444                   24198906.4534
 11  9 21 21 32  0.0000000  0  8G02G04G09G10G12G17G05G28
  -5638053.81648  -4359305.73047  20818166.7664                   20818164.9574
   3937821.68048   3075299.31346  20747592.6884                   20747593.4804
   3733050.73047   2914173.12545  22882665.5314                   22882668.1414
  -8281399.57048  -6410848.80546  21276536.0864                   21276537.0594
 -10949933.68048  -8485088.82045  22323345.7424                   22323345.3164
   4537373.95747   3526769.68045  22692088.1094                   22692090.3554
  -5040495.95747  -3912271.89145  23556116.5084                   23556122.3834
   9561037.69146   7433163.11743  24212261.5554                   24212269.0474
 11  9 21 21 32 30.0000000  0  8G02G04G09G10G12G17G05G28
  -5693294.49248  -4402350.38347  20807654.7584                   20807652.8714
   3967197.30148   3098189.37546  20753182.9534                   20753182.8244
   3766079.68447   2939909.86744  22888950.4304                   22888954.4184
  -8354654.26248  -6467930.31646  21262595.9064                   21262597.3324
 -11061483.83648  -8572010.95345  22302118.6724                   22302118.3594
   4554806.89547   3540353.72345  22695406.3204                   22695407.2304
  -5176600.94947  -4018327.43445  23530215.7194                   23530222.0084
   9631465.31646   7488041.48843  24225663.7034                   24225671.1844
 11  9 21 21 33  0.0000000  0  8G02G04G09G10G12G17G05G28
  -5748178.42648  -4445117.04746  20797210.5164                   20797208.5204
   3996884.82048   3121322.46546  20758832.3594                   20758832.5274
   3799491.60947   2965945.01644  22895308.2734                   22895312.0514
  -8427358.26248  -6524582.74246  21248761.3834                   21248763.0084
 -11172752.22748  -8658713.53545  22280944.6804                   22280945.2894
   4572364.75847   3554035.09845  22698746.6644                   22698749.0864
  -5312623.02347  -4124318.37945  23504332.4304                   23504337.8954
   9702098.75046   7543080.18842  24239103.8054                   24239112.3284
 11  9 21 21 33 30.0000000  0  8G02G04G09G10G12G17G05G28
  -5802706.89148  -4487606.73846  20786834.3594                   20786832.2774
   4026881.17648   3144696.20746  20764540.1644                   20764540.6484
   3833282.22747   2992275.28944  22901738.6174                   22901742.3204
  -8499510.61348  -6580805.29746  21235030.9534                   21235032.1604
 -11283736.97748  -8745195.10245  22259825.0394                   22259824.5784
   4590047.00047   3567813.39545  22702112.3364                   22702114.3634
  -5448560.36347  -4230243.27344  23478464.1174                   23478469.5594
   9772934.80146   7598276.77042  24252584.6884                   24252592.5984
 11  9 21 21 34  0.0000000  0  8G02G04G09G10G12G17G05G28
  -5856882.02748  -4529821.10246  20776524.9304                   20776522.4734
   4057182.50448   3168307.58646  20770306.9924                   20770307.1884
   3867447.14147   3018897.17644  22908239.8364                   22908243.4144
  -8571110.25848  -6636597.15646  21221405.8364                   21221406.7734
 -11394436.60248  -8831454.48045  22238759.4454                   22238758.7504
   4607852.80147   3581687.97345  22705500.8914                   22705503.2424
  -5584411.91447  -4336101.30144  23452611.2344                   23452616.9774
   9843970.15646   7653628.69143  24266102.6174                   24266110.9774
 11  9 21 21 34 30.0000000  0  8G02G04G09G10G12G17G05G28
  -5910702.77748  -4571759.31247  20766283.2974                   20766281.2774
   4087788.15648   3192156.12546  20776130.3984                   20776131.1764
   3901984.61747   3045809.38344  22914812.2584                   22914816.2894
  -8642153.45748  -6691955.44146  21207886.6954                   21207888.1914
 -11504847.09848  -8917488.58245  22217748.9144                   22217748.8364
   4625784.23847   3595660.45745  22708913.4144                   22708914.7544
  -5720172.57847  -4441888.56644  23426777.1254                   23426781.9494
   9915204.57846   7709135.62943  24279657.8054                   24279666.6134
 11  9 21 21 35  0.0000000  0  8G02G04G09G10G12G17G05G28
  -5964169.42248  -4613421.59847  20756108.6334                   20756107.1054
   4118696.10548   3216240.20746  20782012.6174                   20782012.2624
   3936891.57047   3073009.50844  22921454.9224                   22921458.9964
  -8712638.07048  -6746878.44946  21194474.0084                   21194474.6094
 -11614965.68048  -9003295.22745  22196794.1414                   22196794.3674
   4643842.21147   3609731.53945  22712348.9224                   22712350.3054
  -5855839.21947  -4547602.57844  23400960.0864                   23400965.5634
   9986636.26246   7764796.40242  24293251.1724                   24293258.7504
 11  9 21 21 35 30.0000000  0  8G02G04G09G10G12G17G05G28
  -6017285.34448  -4654810.59047  20746000.7974                   20745998.9694
   4149901.18048   3240555.80546  20787950.7974                   20787951.3164
   3972162.07447   3100492.89544  22928166.6954                   22928170.3634
  -8782564.70748  -6801366.69946  21181167.7894                   21181168.5044
 -11724792.35948  -9088874.39845  22175894.4454                   22175894.3054
   4662024.49247   3623899.46945  22715808.9924                   22715810.9304
  -5991411.41447  -4653242.94144  23375161.3594                   23375166.6954
  10058260.48046   7820607.15642  24306881.4144                   24306888.8404
 11  9 21 21 36  0.0000000  0  8G02G04G09G10G12G17G05G28
  -6070050.69548  -4695926.41846  20735960.3054                   20735957.8874
   4181401.28548   3265101.30946  20793944.5864                   20793945.2504
   4007793.02047   3128257.13744  22934947.6804                   22934950.9304
  -8851931.23048  -6855418.48046  21167967.3204                   21167967.8634
 -11834324.30548  -9174223.90645  22155051.6484                   22155051.2384
   4680331.64147   3638164.73045  22719293.1254                   22719294.5704
  -6126886.59047  -4758807.73844  23349381.6414                   23349386.3954
  10130075.43446   7876566.46143  24320547.7974                   24320556.1954
 11  9 21 21 36 30.0000000  0  8G02G04G09G10G12G17G05G28
  -6122466.18448  -4736769.61746  20725986.0084                   20725983.9454
   4213194.30148   3289875.04746  20799994.5634                   20799994.7624
   4043781.35947   3156299.88744  22941795.7734                   22941799.4264
  -8920735.48048  -6909032.12946  21154874.2814                   21154875.5664
 -11943558.93448  -9259341.74646  22134264.7114                   22134264.8204
   4698764.60247   3652528.00845  22722800.1484                   22722802.6294
  -6262261.41447  -4864294.32844  23323619.5784                   23323625.0164
  10202079.23447   7932672.94143  24334249.8134                   24334258.2114
 11  9 21 21 37  0.0000000  0  7G02G04G09G10G12G17G05
  -6174533.98048  -4777341.89146  20716077.8674                   20716075.1684
   4245275.94148   3314873.68446  20806100.0314                   20806100.1844
   4080121.86347   3184616.99244  22948711.9304                   22948715.3754
  -8988977.39848  -6962207.60246  21141888.2194                   21141888.5354
 -12052495.48048  -9344227.30946  22113535.2344                   22113535.4694
   4717322.00447   3666988.22345  22726332.4694                   22726333.8954
  -6397534.70747  -4969701.78544  23297877.9774                   23297883.0594
 11  9 21 21 37 30.0000000  0  7G02G04G09G10G12G17G05
  -6226248.55148  -4817638.91447  20706236.6564                   20706234.6684
   4277650.50048   3340100.57446  20812260.3284                   20812260.9694
   4116817.83647   3213211.14144  22955694.8134                   22955698.0944
  -9056648.49648  -7014938.27346  21129010.6884                   21129011.8164
 -12161124.98048  -9428873.61746  22092863.3364                   22092863.0704
   4736010.56347   3681550.66845  22729888.1804                   22729890.9384
  -6532697.14547  -5075022.87945  23272157.2734                   23272161.9534
 11  9 21 21 38  0.0000000  0  7G02G04G09G10G12G17G05
  -6277602.28948  -4857654.78147  20696464.3524                   20696462.3094
   4310323.10548   3365559.70346  20818477.8834                   20818478.2734
   4153873.60247   3242085.63344  22962746.1254                   22962750.4964
  -9123739.18048  -7067216.68046  21116243.9304                   21116244.5474
 -12269436.76647  -9513272.36346  22072252.0004                   22072251.8134
   4754838.62547   3696221.81345  22733471.5164                   22733473.6564
  -6667737.94547  -5180249.21944  23246459.4774                   23246463.8134
 11  9 21 21 38 30.0000000  0  7G02G04G09G10G12G17G05
  -6328593.82848  -4897388.41847  20686761.0704                   20686758.8094
   4343294.04348   3391251.29746  20824751.9144                   20824751.8914
   4191288.13347   3271239.67244  22969865.5864                   22969869.5434
  -9190245.06648  -7119039.40246  21103588.3134                   21103588.8754
 -12377426.46948  -9597420.11746  22051702.1724                   22051703.0984
   4773809.10947   3711003.93845  22737081.9454                   22737083.1954
  -6802652.01247  -5285376.82045  23220786.4534                   23220791.2234
 11  9 21 21 39  0.0000000  0  7G02G04G09G10G12G17G05
  -6379232.51248  -4936847.09446  20677124.7734                   20677122.6454
   4376552.48448   3417166.91846  20831081.0864                   20831081.4024
   4229049.70747   3300664.12944  22977051.6564                   22977055.4774
  -9256172.70348  -7170411.53946  21091042.6564                   21091043.9574
 -12485099.57848  -9681321.19546  22031212.5554                   22031213.4964
   4792914.11347   3725890.87145  22740717.3444                   22740718.8524
  -6937444.74647  -5390409.85245  23195136.0394                   23195140.9804
 11  9 21 21 39 30.0000000  0  7G02G04G09G10G12G17G05
  -6429522.10548  -4976033.75046  20667554.9844                   20667553.1054
   4410092.74648   3443302.13746  20837463.6094                   20837464.4804
   4267151.86347   3330353.97344  22984302.5004                   22984306.2854
  -9321523.67248  -7221334.33246  21078606.7894                   21078607.1844
 -12592456.85248  -9764976.14846  22010783.3524                   22010783.5704
   4812150.89847   3740880.50845  22744377.7194                   22744380.0514
  -7072116.71147  -5495348.77045  23169508.8204                   23169513.2894
 11  9 21 21 40  0.0000000  0  7G02G04G09G10G12G17G05
  -6479464.68448  -5014950.00847  20658051.1724                   20658048.9574
   4443910.94948   3469653.95746  20843898.7974                   20843899.0664
   4305589.63747   3360305.31344  22991616.7664                   22991620.7894
  -9386297.96548  -7271807.75846  21066280.4924                   21066281.1454
 -12699497.35548  -9848384.27746  21990414.1414                   21990413.8444
   4831518.21147   3755971.84845  22748062.6254                   22748065.2774
  -7206666.61747  -5600192.56645  23143904.7734                   23143909.0084
 11  9 21 21 40 30.0000000  0  7G02G04G09G10G12G17G05
  -6529060.96148  -5053596.43047  20648613.2664                   20648611.1134
   4478005.19548   3496220.85246  20850386.8524                   20850387.2584
   4344359.97347   3390515.83244  22998994.9304                   22998998.7304
  -9450493.12548  -7321829.91046  21054064.5554                   21054065.1134
 -12806218.26648  -9931543.36346  21970105.5554                   21970105.9494
   4851017.04347   3771165.64545  22751774.2194                   22751775.9534
  -7341090.75847  -5704938.42645  23118324.1414                   23118328.2774
 11  9 21 21 41  0.0000000  0  7G02G04G09G10G12G17G05
  -6578314.32848  -5091975.64547  20639240.5004                   20639238.1684
   4512369.91848   3522998.51246  20856926.2584                   20856926.3954
   4383456.27047   3420980.32444  23006434.8444                   23006439.2894
  -9514110.75448  -7371402.04746  21041958.5234                   21041959.9614
 -12912620.20748 -10014453.92646  21949858.2814                   21949859.0434
   4870644.70747   3786459.87545  22755509.2664                   22755510.5004
  -7475389.60247  -5809586.63345  23092767.9144                   23092772.0864
 11  9 21 21 41 30.0000000  0  7G02G04G09G10G12G17G05
  -6627226.58648  -5130089.06647  20629932.7114                   20629930.4264
   4547002.05148   3549984.53946  20863516.6884                   20863517.2504
   4422874.53547   3451695.70344  23013937.1024                   23013939.2194
  -9577149.83248  -7420523.35546  21029962.3914                   21029963.5004
 -13018701.22348 -10097114.40246  21929671.0474                   21929671.6564
   4890401.05947   3801854.35545  22759268.5004                   22759270.3324
  -7609560.93047  -5914135.50045  23067235.4304                   23067240.0554
 11  9 21 21 42  0.0000000  0  7G02G04G09G10G12G17G05
  -6675795.52748  -5167934.95747  20620690.4144                   20620688.4144
   4581901.80148   3577179.10946  20870157.8914                   20870158.3244
   4462613.94547   3482661.35544  23021498.5784                   23021502.1644
  -9639606.10547  -7469190.54346  21018077.2344                   21018078.3094
 -13124456.52047 -10179521.06646  21909546.5394                   21909546.1804
   4910289.18047   3817351.52745  22763053.5004                   22763054.5554
  -7743599.26647  -6018580.69545  23041728.6174                   23041733.2114
 11  9 21 21 42 30.0000000  0  7G02G04G09G10G12G17G05
  -6724020.89848  -5205513.15247  20611513.6484                   20611511.1454
   4617068.16048   3604581.44546  20876849.7734                   20876850.6174
   4502672.43447   3513875.58644  23029120.9614                   23029125.1914
  -9701476.43748  -7517401.14846  21006303.4844                   21006304.9694
 -13229881.96947 -10261670.70346  21889485.4304                   21889484.9104
   4930310.69547   3832952.63345  22766863.3284                   22766865.5044
  -7877500.44947  -6122919.02745  23016248.1724                   23016253.0514
 11  9 21 21 43  0.0000000  0  7G02G04G09G10G12G17G05
  -6771904.94548  -5242825.37947  20602401.5164                   20602399.1564
   4652497.29748   3632188.52746  20883592.0004                   20883592.1844
   4543045.17647   3545334.75044  23036804.2584                   23036808.4184
  -9762760.89147  -7565155.22346  20994641.6724                   20994642.7734
 -13334976.72347 -10343562.65246  21869485.9924                   21869486.2544
   4950464.57047   3848656.87945  22770697.9844                   22770700.7774
  -8011262.92647  -6227149.30545  22990794.0784                   22990798.5904
 11  9 21 21 43 30.0000000  0  7G02G04G09G10G12G17G05
  -6819448.37148  -5279872.18447  20593354.0084                   20593351.8364
   4688186.97748   3659998.62546  20890383.4144                   20890383.3364
   4583728.78547   3577036.08244  23044545.7734                   23044549.7504
  -9823457.57847  -7612451.29346  20983090.9534                   20983092.6564
 -13439737.91047 -10425194.70746  21849550.7114                   21849550.8204
   4970751.20347   3864464.57045  22774559.2504                   22774560.5514
  -8144883.82447  -6331269.25045  22965365.8834                   22965369.8714
 11  9 21 21 44  0.0000000  0  7G02G04G09G10G12G17G05
  -6866654.53948  -5316656.19547  20584371.3674                   20584369.0204
   4724131.93848   3688007.64846  20897223.4774                   20897223.7854
   4624717.03547   3608974.82844  23052346.6024                   23052350.6914
  -9883567.66848  -7659290.29346  20971652.6884                   20971653.6844
 -13544165.57047 -10506566.85946  21829678.4304                   21829678.5744
   4991168.61347   3880374.14545  22778444.6024                   22778446.3594
  -8278362.73447  -6435278.57445  22939965.2734                   22939969.4104
 11  9 21 21 44 30.0000000  0  7G02G04G09G10G12G17G05
  -6913521.80548  -5353176.12147  20575452.6564                   20575450.5044
   4760332.68048   3716215.98046  20904111.9694                   20904112.8914
   4666008.96147   3641150.20744  23060203.7504                   23060208.1724
  -9943087.21148  -7705669.11346  20960326.5234                   20960327.5354
 -13648255.32048 -10587675.69946  21809871.2894                   21809870.8204
   5011719.94547   3896388.10545  22782354.6884                   22782358.0904
  -8411694.16447  -6539172.96945  22914593.2814                   22914597.4224
 11  9 21 21 45  0.0000000  0  7G02G04G09G10G12G17G05
  -6960050.34848  -5389432.11347  20566598.5084                   20566596.0434
   4796787.17648   3744622.04346  20911049.6884                   20911049.6994
   4707601.60547   3673559.93044  23068118.2584                   23068122.7704
 -10002014.28148  -7751586.27346  20949113.0634                   20949113.8444
 -13752003.93447 -10668518.70746  21790128.2194                   21790127.8524
   5032405.98447   3912507.00845  22786291.9304                   22786294.2894
  -8544874.94547  -6642949.99645  22889249.9844                   22889253.9384
 11  9 21 21 45 30.0000000  0  7G02G04G09G10G12G17G05
  -7006238.31248  -5425422.72746  20557809.3364                   20557807.2974
   4833496.00048   3773226.30146  20918034.9774                   20918035.2194
   4749494.34047   3706203.46144  23076091.4304                   23076095.2074
 -10060344.52347  -7797038.37546  20938013.1174                   20938013.9804
 -13855406.06647 -10749091.74246  21770451.3594                   21770451.7034
   5053229.99247   3928733.43045  22790254.6254                   22790255.7664
  -8677899.60547  -6746605.34445  22863936.2114                   22863940.3284
 11  9 21 21 46  0.0000000  0  7G02G04G09G10G12G17G05
  -7052090.77748  -5461151.90646  20549083.8984                   20549081.2114
   4870452.55548   3802023.57446  20925067.2734                   20925067.8794
   4791679.51647   3739074.91044  23084118.2814                   23084122.4924
 -10118080.55148  -7842027.44946  20927026.3834                   20927027.3134
 -13958463.32448 -10829396.04746  21750840.2194                   21750840.6254
   5074188.14847   3945064.36745  22794242.9384                   22794244.4964
  -8810769.14147  -6850139.82845  22838651.5704                   22838655.5904
 11  9 21 21 46 30.0000000  0  8G02G04G09G10G12G17G05G25
  -7097611.26648  -5496622.41047  20540421.5704                   20540419.5704
   4907651.56348   3831009.77746  20932146.0084                   20932146.1884
   4834150.86347   3772169.33644  23092200.4774                   23092204.3794
 -10175224.01248  -7886554.77746  20916152.5084                   20916153.7114
 -14061176.45747 -10909432.19946  21731294.2814                   21731294.8754
   5095277.94947   3961497.91045  22798255.7274                   22798258.1094
  -8943483.40247  -6953553.32845  22813396.6334                   22813400.7624
   2891589.74256   2275832.80553  24528046.5474                   24528052.5704
 11  9 21 21 47  0.0000000  0  8G02G04G09G10G12G17G05G25
  -7142808.06248  -5531840.68447  20531820.8284                   20531818.6134
   4945083.37548   3860177.37946  20939269.0234                   20939269.6804
   4876897.69147   3805478.42644  23100335.0084                   23100339.2934
 -10231780.64548  -7930624.84846  20905389.9454                   20905390.4384
 -14163549.91448 -10989203.67646  21711813.6564                   21711813.3014
   5116492.62547   3978028.75045  22802292.8364                   22802295.6804
  -9076047.12147  -7056849.55945  22788170.8914                   22788174.2974
   2757844.05546   2171615.50043  24502595.9844                   24502601.5554
 11  9 21 21 47 30.0000000  0  8G02G04G09G10G12G17G05G25
  -7187682.48848  -5566807.75847  20523281.6724                   20523279.1134
   4982745.45748   3889524.42246  20946436.1414                   20946436.7154
   4919916.26647   3838999.25844  23108521.0164                   23108525.6374
 -10287749.60248  -7974236.99646  20894739.5314                   20894740.3914
 -14265581.46148 -11068708.71546  21692397.5474                   21692397.3554
   5137832.61747   3994657.21945  22806353.5394                   22806356.2384
  -9208457.36747  -7160026.17645  22762973.8914                   22762977.5474
   2624190.19946   2067469.76644  24477161.6414                   24477168.1334
 11  9 21 21 48  0.0000000  0  8G02G04G09G10G12G17G05G25
  -7232228.31248  -5601518.78147  20514804.7734                   20514802.4454
   5020642.23048   3919054.33646  20953647.7424                   20953647.6524
   4963209.80547   3872734.32044  23116760.4844                   23116763.9414
 -10343122.77748  -8017384.89146  20884202.2734                   20884203.2424
 -14367262.49648 -11147940.62946  21673048.2344                   21673047.8244
   5159304.64147   4011388.56645  22810440.0394                   22810442.3164
  -9340704.61347  -7263075.75045  22737807.9064                   22737811.6054
   2490637.31346   1963402.71144  24451747.1254                   24451753.2704
 11  9 21 21 48 30.0000000  0  8G02G04G09G10G12G17G05G25
  -7276443.15248  -5635971.88347  20506390.8674                   20506388.3444
   5058774.67248   3948767.87946  20960904.2504                   20960904.7114
   5006778.24247   3906683.62144  23125051.3834                   23125055.9774
 -10397895.34448  -8060064.77046  20873779.4454                   20873780.2934
 -14468586.35248 -11226894.23046  21653766.9774                   21653766.7934
   5180912.99647   4028226.13745  22814551.6884                   22814553.4884
  -9472782.49647  -7365993.37945  22712673.5164                   22712677.5824
   2357191.24247   1859418.89544  24426354.0634                   24426359.7974
 11  9 21 21 49  0.0000000  0  8G02G04G09G10G12G17G05G25
  -7320326.55948  -5670166.73447  20498040.2194                   20498037.9804
   5097141.85248   3978664.34446  20968205.5554                   20968206.1644
   5050619.28547   3940845.34044  23133394.1644                   23133397.8134
 -10452064.47348  -8102274.45346  20863471.3914                   20863472.1524
 -14569549.60948 -11305566.86346  21634554.3594                   21634554.6024
   5202659.15647   4045171.12945  22818690.0084                   22818691.9494
  -9604686.75847  -7468775.70345  22687573.0784                   22687576.7344
   2223855.70746   1755521.19544  24400980.4454                   24400986.7544
 11  9 21 21 49 30.0000000  0  8G02G04G09G10G12G17G05G25
  -7363877.29348  -5704102.35247  20489752.9304                   20489750.4414
   5135743.81648   4008743.75446  20975551.0164                   20975551.3794
   5094731.64147   3975218.47744  23141788.1884                   23141793.2734
 -10505626.83648  -8144011.32046  20853278.5004                   20853280.1724
 -14670147.54747 -11383954.80946  21615410.8444                   21615411.3244
   5224545.91847   4062225.67245  22822855.5634                   22822857.5274
  -9736412.44947  -7571418.91045  22662506.4694                   22662510.6564
   2090635.26247   1651713.18844  24375629.6484                   24375634.9964
 11  9 21 21 50  0.0000000  0  8G02G04G09G10G12G17G05G25
  -7407092.48448  -5737776.52047  20481529.1174                   20481526.8914
   5174581.65648   4039006.94946  20982941.4064                   20982941.5594
   5139115.60247   4009803.23444  23150233.7974                   23150239.2424
 -10558577.71948  -8185271.70746  20843202.4774                   20843202.8674
 -14770374.38348 -11462053.60546  21596338.3754                   21596338.1684
   5246577.17647   4079392.79345  22827047.6334                   22827050.5824
  -9867952.97347  -7673917.82045  22637475.0004                   22637478.8554
   1957535.79346   1547999.44144  24350302.2274                   24350307.6294
 11  9 21 21 50 30.0000000  0  8G02G04G09G10G12G17G05G25
  -7449975.09448  -5771191.52347  20473368.7194                   20473366.2664
   5213650.98847   4069450.53546  20990376.3054                   20990376.4734
   5183765.55147   4044595.25844  23158730.4224                   23158735.1564
 -10610917.91847  -8226056.25046  20833242.4384                   20833242.7074
 -14870229.50048 -11539862.73846  21577336.9454                   21577336.4304
   5268751.69947   4096671.55945  22831266.8984                   22831270.0274
  -9999307.51647  -7776271.77345  22612478.5234                   22612483.1564
   1824557.88346   1444380.41443  24324996.3674                   24325001.9964
 11  9 21 21 51  0.0000000  0  8G02G04G09G10G12G17G05G25
  -7492525.64548  -5804347.77747  20465271.7504                   20465269.6134
   5252950.01248   4100073.11746  20997854.8524                   20997855.0704
   5228678.74247   4079592.42244  23167277.3524                   23167280.8404
 -10662645.81248  -8266363.66046  20823398.9304                   20823399.6414
 -14969710.08647 -11617380.02746  21558405.8754                   21558405.6484
   5291070.53547   4114062.78945  22835514.7664                   22835516.5084
 -10130472.52747  -7878478.04345  22587518.8674                   22587522.5904
   1691704.25046   1340858.24243  24299714.3834                   24299720.9614
 11  9 21 21 51 30.0000000  0  8G02G04G09G10G12G17G05G25
  -5959322.92648  -4609644.35547  20757030.3984                   20757028.4654
   6867895.97748   5358472.52746  21305168.7894                   21305169.5554
   6849270.66047   5342391.19544  23475664.8914                   23475670.0004
  -9138337.84448  -7078591.19546  21113465.0554                   21113465.8874
 -13493389.93747 -10467000.64846  21839340.2194                   21839340.0234
   6888953.27347   5359166.14845  23139581.5944                   23139583.8134
  -8686020.13747  -6752930.54345  22862389.4144                   22862391.9734
   3134402.52346   2465038.82043  24574250.8914                   24574257.0314
 11  9 21 21 52  0.0000000  0  8G02G04G09G10G12G17G05G25
  -6001210.59448  -4642284.08247  20749059.4694                   20749057.6134
   6907649.56348   5389449.27746  21312733.7504                   21312734.5554
   6894701.09047   5377791.37944  23484311.6334                   23484315.8954
  -9188836.02048  -7117940.38746  21103855.4384                   21103856.2664
 -13592112.50448 -10543927.26646  21820553.8594                   21820553.9534
   6911562.39547   5376783.54745  23143883.2344                   23143886.4654
  -8816796.19547  -6854833.78145  22837502.6804                   22837506.3714
   3001806.46546   2361717.29743  24549018.6884                   24549023.8134
 11  9 21 21 52 30.0000000  0  8G02G04G09G10G12G17G05G25
  -6042769.37948  -4674667.53547  20741151.0084                   20741148.6684
   6947625.63348   5420599.42246  21320340.9144                   21320341.3634
   6940383.80547   5413388.18044  23493004.4924                   23493009.8794
  -9238718.71548  -7156809.98846  21094363.3834                   21094363.6644
 -13690453.27748 -10620556.38346  21801840.8524                   21801840.9414
   6934316.52347   5394513.91045  23148214.7034                   23148217.2854
  -8947374.15247  -6956582.61745  22812654.2734                   22812657.9344
   2869341.72746   2258498.12543  24523810.5554                   24523816.3714
 11  9 21 21 53  0.0000000  0  8G02G04G09G10G12G17G05G25
  -6083999.05548  -4706794.54347  20733305.3834                   20733303.0044
   6987823.15648   5451922.11346  21327990.1094                   21327990.5594
   6986316.28147   5449179.58244  23501745.4304                   23501750.4304
  -9287984.03948  -7195198.53146  21084988.5164                   21084988.3164
 -13788409.09048 -10696885.54746  21783199.8444                   21783199.4614
   6957217.09847   5412358.44145  23152572.2664                   23152574.3244
  -9077750.36747  -7058174.27345  22787844.4224                   22787848.6414
   2737011.86346   2155384.09043  24498630.2344                   24498635.4774
 11  9 21 21 53 30.0000000  0  8G02G04G09G10G12G17G05G25
  -6124900.02048  -4738665.41847  20725522.4224                   20725520.0314
   7028240.33247   5483415.96546  21335681.2504                   21335681.9064
   7032495.49247   5485163.22344  23510533.5704                   23510537.9964
  -9336630.16847  -7233104.56646  21075730.9534                   21075731.6374
 -13885977.06648 -10772912.50046  21764633.4694                   21764633.0314
   6980264.98447   5430317.78145  23156957.9224                   23156959.8284
  -9207921.31647  -7159606.00445  22763073.7034                   22763076.8754
   2604819.75447   2052377.34443  24473475.2274                   24473479.5474
 11  9 21 21 54  0.0000000  0  8G02G04G09G10G12G17G05G25
  -6165475.63748  -4770282.77047  20717801.1334                   20717798.5274
   7068872.50448   5515077.34446  21343413.4924                   21343414.0234
   7078915.43047   5521334.46144  23519366.3054                   23519372.0354
  -9384658.79748  -7270529.44946  21066591.8204                   21066591.7274
 -13983156.87548 -10848636.98046  21746140.9454                   21746139.9064
   7003458.43047   5448390.50045  23161371.6094                   23161373.7624
  -9337886.62547  -7260877.48845  22738342.0314                   22738345.6334
   2472765.48047   1949477.99243  24448345.6954                   24448350.5664
 11  9 21 21 54 30.0000000  0  8G02G04G09G10G12G17G05G25
  -6205726.64848  -4801647.18047  20710141.0394                   20710139.0514
   7109717.68048   5546904.69946  21351185.9844                   21351186.5864
   7125573.27047   5557691.06344  23528245.5234                   23528250.6254
  -9432068.36748  -7307471.93746  21057570.0634                   21057570.4694
 -14079946.16448 -10924057.16846  21727722.3054                   21727722.3674
   7026797.99647   5466577.05145  23165812.8834                   23165816.0354
  -9467643.09847  -7361986.26245  22713650.0394                   22713653.2424
   2340851.97347   1846688.33644  24423243.6254                   24423248.6804
 11  9 21 21 55  0.0000000  0  8G02G04G09G10G12G17G05G25
  -6245651.83248  -4832757.69947  20702543.5944                   20702541.7814
   7150775.62148   5578897.85546  21358999.3524                   21358999.1764
   7172467.16447   5594231.59844  23537169.1024                   23537174.0514
  -9478855.99248  -7343929.80146  21048666.6174                   21048667.1564
 -14176340.42248 -10999169.52346  21709379.0164                   21709379.1804
   7050286.14147   5484879.39145  23170282.8134                   23170285.6914
  -9597185.79747  -7462928.44945  22688999.1644                   22689002.1764
   2209083.48847   1744011.73044  24398168.5004                   24398173.6484
 11  9 21 21 55 30.0000000  0  8G02G04G09G10G12G17G05G25
  -6285255.26648  -4863617.51246  20695007.3134                   20695005.1564
   7192041.14548   5611052.75046  21366851.4924                   21366852.2464
   7219590.82447   5630951.14844  23546136.3364                   23546142.2704
  -9525023.81648  -7379904.69946  21039881.1804                   21039881.7664
 -14272340.20748 -11073974.51246  21691110.7814                   21691110.7704
   7073920.34447   5503295.55145  23174780.3204                   23174782.7074
  -9726514.77347  -7563704.11745  22664388.1644                   22664391.3444
   2077459.59847   1641447.79344  24373120.6954                   24373126.7074
 11  9 21 21 56  0.0000000  0  8G02G04G09G10G12G17G05G25
  -6324538.73848  -4894228.00847  20687532.2344                   20687529.8524
   7233511.23048   5643367.05546  21374743.0004                   21374744.5394
   7266940.07047   5667846.50444  23555146.5164                   23555151.8524
  -9570571.90248  -7415396.68746  21031213.6174                   21031214.1174
 -14367943.93048 -11148470.86746  21672917.8284                   21672917.7624
   7097700.29747   5521825.27745  23179305.6484                   23179307.2274
  -9855627.59847  -7664311.34045  22639818.5164                   22639821.2974
   1945982.03147   1538997.93844  24348102.2034                   24348107.1844
 11  9 21 21 56 30.0000000  0  8G02G04G09G10G12G17G05G25
  -6363501.96148  -4924588.94147  20680117.6254                   20680115.3914
   7275185.05148   5675840.12146  21382673.6024                   21382674.5234
   7314512.53547   5704915.79744  23564200.1254                   23564204.5084
  -9615497.93748  -7450403.94946  21022664.1484                   21022664.8834
 -14463147.92248 -11222655.75046  21654801.1174                   21654800.9494
   7121627.80547   5540469.98845  23183858.9614                   23183861.3794
  -9984520.67247  -7764747.34445  22615291.0314                   22615293.9654
   1814654.41447   1436664.86344  24323111.3054                   24323115.8954
 11  9 21 21 57  0.0000000  0  8G02G04G09G10G12G17G05G25
  -6402144.80148  -4954700.24247  20672764.6724                   20672761.8284
   7317061.11748   5708470.77046  21390642.6414                   21390642.9694
   7362305.71947   5742157.07844  23573295.2114                   23573299.6174
  -9659799.82848  -7484924.89146  21014234.1954                   21014234.7974
 -14557948.81248 -11296526.53146  21636760.8524                   21636760.6414
   7145704.32447   5559230.80145  23188440.6414                   23188444.3244
 -10113189.63347  -7865008.69545  22590805.6254                   22590808.6374
   1683480.48447   1334451.57444  24298149.3754                   24298154.5784
 11  9 21 21 57 30.0000000  0  8G02G04G09G10G12G17G05G25
  -6440469.31248  -4984563.48447  20665471.2274                   20665468.6884
   7359136.50448   5741256.73046  21398649.0784                   21398649.6954
   7410315.25046   5779566.92644  23582430.9534                   23582435.3204
  -9703477.64548  -7518959.53546  21005922.3054                   21005922.7074
 -14652345.07448 -11370082.01646  21618798.2114                   21618797.8054
   7169929.09047   5578107.13745  23193051.1094                   23193053.3134
 -10241632.47747  -7965093.87945  22566364.0314                   22566366.9694
   1552461.75446   1232359.21544  24273217.8834                   24273222.5864
 11  9 21 21 58  0.0000000  0  8G02G04G09G10G12G17G05G25
  -6478475.85248  -5014178.95347  20658238.7974                   20658236.5944
   7401409.58648   5774196.75046  21406693.1564                   21406694.1414
   7458538.15247   5817143.08644  23591607.4614                   23591612.7154
  -9746530.31248  -7552507.02746  20997729.6484                   20997730.5124
 -14746334.04348 -11443320.13746  21600912.3134                   21600911.9884
   7194303.09047   5597099.78145  23197688.2734                   23197691.4024
 -10369846.01647  -8065000.37945  22541965.8364                   22541968.9224
   1421601.08646   1130390.05143  24248314.8984                   24248320.7034
 11  9 21 21 58 30.0000000  0  8G02G04G09G10G12G17G05G25
  -6516162.06648  -5043544.82847  20651067.5234                   20651065.2584
   7443881.14148   5807291.42246  21414775.6564                   21414776.4774
   7506974.14546   5854885.24644  23600824.5784                   23600829.7894
  -9788953.87948  -7585564.33246  20989656.6724                   20989657.2154
 -14839909.91448 -11516236.36346  21583105.1024                   21583105.2624
   7218830.14847   5616211.67645  23202355.9064                   23202359.1884
 -10497824.03947  -8164723.34445  22517612.1334                   22517615.6994
   1290904.39146   1028548.65644  24223443.9694                   24223450.2344
 11  9 21 21 59  0.0000000  0  8G02G04G09G10G12G17G05G25
  -6553529.63348  -5072662.39147  20643956.3914                   20643954.1884
   7486548.43848   5840538.60946  21422894.7664                   21422895.8554
   7555619.05946   5892790.17644  23610081.4224                   23610086.5474
  -9830748.04748  -7618131.19946  20981703.1884                   20981703.8164
 -14933071.13348 -11588829.48846  21565377.2974                   21565377.4804
   7243509.97747   5635442.60245  23207052.3364                   23207055.8914
 -10625564.39147  -8264261.12545  22493303.9304                   22493306.2074
   1160373.45346    926836.39844  24198605.0164                   24198610.8094
 11  9 21 21 59 30.0000000  0  8G02G04G09G10G12G17G05G25
  -6590579.46948  -5101532.37547  20636906.4144                   20636903.6334
   7529409.73848   5873936.99646  21431051.4144                   21431051.4964
   7604469.60546   5930855.35944  23619377.6804                   23619382.8014
  -9871911.87148  -7650206.88346  20973870.3754                   20973870.2854
 -15025814.86748 -11661097.29746  21547729.0634                   21547728.5004
   7268343.42247   5654793.21945  23211778.5084                   23211781.2894
 -10753063.46947  -8363610.91845  22469041.3674                   22469044.5944
   1030011.23846    825255.60944  24173797.5164                   24173803.8874
 11  9 21 22  0  0.0000000  0  8G02G04G09G10G12G17G05G25
  -6627311.53148  -5130154.74647  20629916.6884                   20629914.3284
   7572463.69948   5907485.49246  21439244.0234                   21439244.1484
   7653523.32046   5969078.85244  23628712.9384                   23628718.6374
  -9912443.98848  -7681790.32046  20966157.1484                   20966157.4384
 -15118137.77348 -11733037.19146  21530160.4614                   21530160.5274
   7293331.92247   5674264.67245  23216533.5084                   23216537.3444
 -10880317.78147  -8462769.97345  22444825.4224                   22444828.5044
    899821.14847    723808.89144  24149023.0944                   24149027.9494
 11  9 21 22  0 30.0000000  0  8G02G04G09G10G12G17G05G25
  -6663728.03948  -5158531.21547  20622986.0634                   20622984.0744
   7615706.91048   5941181.46146  21447473.4064                   21447473.4774
   7702775.62146   6007457.06644  23638084.4454                   23638090.3714
  -9952344.65648  -7712881.72746  20958564.3364                   20958564.9454
 -15210038.84047 -11804648.38346  21512672.1484                   21512672.2074
   7318474.80947   5693856.42645  23221318.6564                   23221321.6524
 -11007325.59447  -8561736.93045  22420656.7734                   22420659.2544
    769804.42247    622497.23444  24124281.7974                   24124286.2774
 11  9 21 22  1  0.0000000  0  8G02G04G09G10G12G17G05G25
  -6699826.41448  -5186659.79747  20616117.1174                   20616114.7074
   7659141.08248   5975026.22746  21455738.2584                   21455738.8284
   7752226.71147   6045990.17244  23647494.8284                   23647501.8204
  -9991609.82448  -7743477.93046  20951092.5164                   20951092.6914
 -15301512.54348 -11875926.55946  21495265.5784                   21495265.1334
   7343775.38346   5713571.05944  23226132.8594                   23226134.6024
 -11134080.41847  -8660506.78545  22396535.5314                   22396538.8404
    639967.33246    521325.55943  24099574.9064                   24099578.2464
 11  9 21 22  1 30.0000000  0  8G02G04G09G10G12G17G05G25
  -6735610.61348  -5214543.56247  20609307.7814                   20609305.2704
   7702760.90648   6009015.65246  21464039.2034                   21464040.1214
   7801870.36347   6084673.35944  23656942.2584                   23656946.8954
 -10030241.55148  -7773580.55546  20943740.7814                   20943741.6844
 -15392559.10948 -11946871.91046  21477939.9534                   21477939.8484
   7369231.59446   5733406.96144  23230976.5864                   23230979.8134
 -11260582.07847  -8759079.35246  22372463.1954                   22372466.3484
    510309.49647    420293.59844  24074901.3594                   24074906.6094
 11  9 21 22  2  0.0000000  0  8G02G04G09G10G12G17G05G25
  -6771080.01248  -5242182.02747  20602558.0164                   20602555.4024
   7746565.77348   6043149.27346  21472374.7814                   21472374.8554
   7851704.34846   6123504.82444  23666425.1024                   23666430.8524
 -10068237.90248  -7803188.06646  20936510.3284                   20936511.5514
 -15483174.80948 -12017481.52746  21460696.1484                   21460695.8204
   7394845.47346   5753365.72344  23235851.4534                   23235854.2544
 -11386826.37947  -8857451.38345  22348439.9144                   22348442.3554
    380834.92647    319404.39144  24050263.2504                   24050267.6524
 11  9 21 22  2 30.0000000  0  8G02G04G09G10G12G17G05G25
  -6806234.94147  -5269575.44947  20595867.9224                   20595866.2234
   7790554.64148   6077426.27046  21480745.6094                   21480746.6684
   7901726.18047   6162482.66844  23675945.2274                   23675949.7074
 -10105597.58247  -7832299.48846  20929401.1884                   20929401.3914
 -15573356.24248 -12087752.74246  21443535.1804                   21443535.0824
   7420618.46146   5773448.47744  23240755.9774                   23240758.0004
 -11512809.36747  -8955619.79346  22324465.8524                   22324468.1804
    251547.19547    218660.80944  24025660.5394                   24025664.8054
 11  9 21 22  3  0.0000000  0  8G02G04G09G10G12G17G05G25
  -6841077.34848  -5296725.35547  20589237.7274                   20589235.7074
   7834723.96548   6111843.86346  21489150.6414                   21489151.9574
   7951930.97347   6201603.09044  23685498.6954                   23685504.0084
 -10142321.32448  -7860915.36346  20922412.7664                   20922413.5704
 -15663102.78548 -12157685.08246  21426457.2274                   21426457.1024
   7446549.72746   5793654.57845  23245690.0084                   23245693.6294
 -11638529.55947  -9053583.43745  22300542.3984                   22300544.6294
    122447.57047    118063.77744  24001093.0474                   24001098.0314
 11  9 21 22  3 30.0000000  0  8G02G04G09G10G12G17G05G25
  -6875608.05548  -5323632.37947  20582666.8674                   20582664.5664
   7879072.45348   6146401.09046  21497590.2194                   21497590.5594
   8002315.98447   6240863.98844  23695086.8054                   23695091.6454
 -10178407.81248  -7889034.68046  20915545.7584                   20915545.8404
 -15752411.18048 -12227275.99646  21409462.5394                   21409461.9614
   7472640.00846   5813984.57444  23250654.9454                   23250657.8794
 -11763983.21547  -9151339.38746  22276669.2974                   22276671.3834
     -6460.80147     17615.78544  23976563.0554                   23976567.9344
 11  9 21 22  4  0.0000000  0  8G02G04G09G10G12G17G05G25
  -6909827.99247  -5350297.25047  20576155.0004                   20576152.7664
   7923598.04748   6181096.30946  21506063.3674                   21506064.1764
   8052878.06347   6280262.77044  23704707.6484                   23704713.1024
 -10213856.55547  -7916657.04346  20908799.9304                   20908800.6214
 -15841279.05548 -12296523.66046  21392550.8754                   21392550.9144
   7498890.05546   5834439.07044  23255650.9614                   23255652.4144
 -11889167.20347  -9248885.22345  22252847.6484                   22252849.5634
   -135175.05947    -82680.96144  23952069.0864                   23952074.6644
 11  9 21 22  4 30.0000000  0  8G02G04G09G10G12G17G05G25
  -6943740.44147  -5376722.52047  20569701.7504                   20569699.0514
   7968296.07848   6215925.87946  21514568.5314                   21514569.9534
   8103610.99647   6319794.75844  23714361.7584                   23714368.5164
 -10248669.74247  -7943784.18446  20902175.2504                   20902175.5744
 -15929706.73048 -12365428.30146  21375724.1414                   21375724.0514
   7525297.91846   5855016.53944  23260676.4454                   23260678.1684
 -12014081.80147  -9346221.12945  22229076.3834                   22229079.0944
   -263695.13746   -182826.37944  23927611.5944                   23927618.1054
 11  9 21 22  5  0.0000000  0  8G02G04G09G10G12G17G05G25
  -6977343.37148  -5402906.60547  20563307.5164                   20563304.9924
   8013167.52748   6250890.58646  21523107.5004                   21523108.6294
   8154514.46947   6359459.53544  23724049.2584                   23724055.6954
 -10282843.69548  -7970413.21946  20895672.2344                   20895672.8364
 -16017688.68048 -12433985.63346  21358981.5944                   21358981.5594
   7551866.62946   5875719.34844  23265732.0164                   23265734.5784
 -12138720.54747  -9443342.10246  22205358.5314                   22205361.5864
   -392015.46946   -282816.12544  23903192.7894                   23903198.7894
 11  9 21 22  5 30.0000000  0  8G02G04G09G10G12G17G05G25
  -7010638.18048  -5428850.60547  20556971.3204                   20556969.2424
   8058210.15648   6285988.66446  21531678.9614                   21531680.1484
   8205584.81647   6399254.37544  23733767.9224                   23733774.0744
 -10316378.38348  -7996544.12546  20889290.9534                   20889291.0394
 -16105223.53148 -12502194.57046  21342324.3834                   21342323.8554
   7578596.88746   5896548.02044  23270818.6644                   23270821.7774
 -12263080.89847  -9540246.12945  22181693.5704                   22181696.2774
   -520133.67247   -382648.38344  23878813.0234                   23878819.1764
 11  9 21 22  6  0.0000000  0  8G02G04G09G10G12G17G05G25
  -7043625.71148  -5454555.16447  20550694.2504                   20550691.9384
   8103422.21148   6321218.77346  21540282.8914                   21540283.3984
   8256819.01247   6439176.85944  23743517.6484                   23743523.3134
 -10349273.23847  -8022176.44146  20883030.9774                   20883031.5864
 -16192308.12148 -12570052.65246  21325752.5004                   21325752.7464
   7605489.03946   5917502.84045  23275935.6564                   23275938.7034
 -12387159.53547  -9636930.65245  22158081.8754                   22158084.2344
   -648046.74247   -482320.79344  23854472.7814                   23854477.6684
 11  9 21 22  6 30.0000000  0  8G02G04G09G10G12G17G05G25
  -7076307.30548  -5480021.33247  20544474.9844                   20544472.1994
   8148800.98048   6356578.78546  21548917.7974                   21548918.8484
   8308212.86347   6479223.78944  23753298.1334                   23753304.0744
 -10381528.24247  -8047310.21146  20876893.3524                   20876893.5434
 -16278940.89848 -12637558.67646  21309266.7814                   21309266.8524
   7632543.05146   5938583.79745  23281084.5004                   23281087.1844
 -12510954.20347  -9733393.90645  22134524.6334                   22134526.6334
   -775752.68747   -581831.80544  23830170.5704                   23830176.2934
 11  9 21 22  7  0.0000000  0  8G02G04G09G10G12G17G05G25
  -7108684.81647  -5505250.56647  20538313.9064                   20538311.7704
   8194343.76248   6392066.60545  21557584.3674                   21557585.2154
   8359762.09447   6519391.78544  23763107.7894                   23763113.9024
 -10413144.21547  -8071946.01646  20870876.8364                   20870877.3134
 -16365120.47748 -12704711.55146  21292867.1024                   21292866.7934
   7659758.64146   5959790.64844  23286263.3674                   23286266.8404
 -12634462.94947  -9829634.36345  22111021.3134                   22111023.5704
   -903249.65247   -681179.98444  23805909.1174                   23805914.2704
 11  9 21 22  7 30.0000000  0  8G02G04G09G10G12G17G05G25
  -7140758.42247  -5530242.98447  20532210.5164                   20532207.8204
   8240049.82448   6427681.64146  21566282.0864                   21566282.9104
   8411464.91847   6559679.47744  23772946.5084                   23772952.3954
 -10444119.60547  -8096082.66446  20864982.4304                   20864982.8364
 -16450843.18048 -12771508.43046  21276554.6254                   21276554.4734
   7687137.41447   5981124.65244  23291473.4144                   23291476.2974
 -12757681.55547  -9925648.73045  22087573.3914                   22087576.4574
  -1030533.78547   -780362.31644  23781687.8054                   23781692.6524
 11  9 21 22  8  0.0000000  0  8G02G04G09G10G12G17G05G25
  -7172527.00048  -5554997.72347  20526165.0084                   20526162.4414
   8285919.06648   6463423.82446  21575011.0004                   21575012.1024
   8463319.66046   6600085.55544  23782814.3754                   23782819.4924
 -10474452.27747  -8119718.49246  20859210.5004                   20859210.7304
 -16536105.47748 -12837946.56246  21260329.6564                   21260329.8164
   7714681.77346   6002587.71144  23296715.1804                   23296717.6764
 -12880605.17247 -10021433.24646  22064182.2664                   22064184.4024
  -1157600.64147   -879375.32044  23757507.4774                   23757512.0824
 11  9 21 22  8 30.0000000  0  8G02G04G09G10G12G17G05G25
  -7203992.85548  -5579516.56647  20520177.4064                   20520174.9494
   8331948.00048   6499290.44945  21583769.9304                   21583771.0234
   8515321.46946   6640606.21144  23792709.8524                   23792715.9104
 -10504143.20347  -8142854.26246  20853560.1024                   20853560.5394
 -16620905.75448 -12904024.66046  21244192.9774                   21244192.8714
   7742390.69547   6024178.97745  23301988.3834                   23301991.2814
 -13003232.15647 -10116986.62546  22040846.8754                   22040849.0204
  -1284448.66847   -978217.84444  23733369.0004                   23733372.4304
 11  9 21 22  9  0.0000000  0  8G02G04G09G10G12G17G05G25
  -7235154.23048  -5603798.15247  20514247.4144                   20514244.6454
   8378137.65648   6535282.32045  21592559.4924                   21592560.0084
   8567469.94546   6681241.14143  23802633.6954                   23802640.0984
 -10533189.24647  -8165487.52746  20848032.9384                   20848033.7504
 -16705239.65648 -12969739.35946  21228145.0784                   21228144.0664
   7770267.55947   6045901.11345  23307292.9064                   23307296.3634
 -13125556.84847 -10212304.44946  22017569.0784                   22017571.6484
  -1411072.49247  -1076885.67644  23709273.5554                   23709277.7344
 11  9 21 22  9 30.0000000  0  8G02G04G09G10G12G17G05G25
  -7266015.65648  -5627846.01247  20508374.8524                   20508372.4614
   8424482.31348   6571394.96946  21601378.8364                   21601379.5164
   8619758.11747   6721984.96544  23812583.7664                   23812589.3634
 -10561593.82048  -8187620.93746  20842627.8834                   20842627.7544
 -16789107.98848 -13035091.27046  21212185.2584                   21212184.8404
   7798309.12146   6067751.59444  23312628.5234                   23312632.4454
 -13247580.00847 -10307387.29346  21994348.5704                   21994351.0474
  -1537473.03947  -1175379.46144  23685219.9694                   23685224.4304
 11  9 21 22 10  0.0000000  0  8G02G04G09G10G12G17G05G25
  -7296575.46148  -5651658.85547  20502559.6174                   20502557.4494
   8470983.30948   6607629.44145  21610227.4774                   21610228.8444
   8672185.23846   6762837.03944  23822560.6334                   23822566.5944
 -10589353.84848  -8209252.12146  20837345.1644                   20837345.2854
 -16872505.68748 -13100076.46946  21196315.3754                   21196314.5274
   7826518.94146   6089733.14144  23317997.4454                   23318000.5514
 -13369295.76247 -10402230.62146  21971186.6254                   21971189.2504
  -1663644.55947  -1273694.80944  23661210.4224                   23661214.9144
 11  9 21 22 10 30.0000000  0  8G02G04G09G10G12G17G05G25
  -7326834.28547  -5675237.14547  20496801.2734                   20496798.7344
   8517638.75048   6643984.26645  21619106.2814                   21619107.2194
   8724748.60546   6803795.23444  23832563.3364                   23832569.4964
 -10616469.07048  -8230380.84446  20832185.2664                   20832185.7774
 -16955430.50048 -13164693.17246  21180534.9774                   21180534.5314
   7854898.02046   6111846.60544  23323397.8444                   23323400.1644
 -13490700.90247 -10496831.91446  21948084.1024                   21948086.2424
  -1789584.12147  -1371829.45344  23637244.7974                   23637248.5514
 11  9 21 22 11  0.0000000  0  8G02G04G09G10G12G17G05G25
  -7356795.08247  -5698583.21947  20491100.1334                   20491097.6214
   8564444.70348   6680456.38345  21628012.6334                   21628013.7934
   8777443.05547   6844855.59844  23842590.8914                   23842597.5664
 -10642941.28148  -8251008.52046  20827148.0004                   20827148.3714
 -17037882.02048 -13228941.07446  21164844.8984                   21164844.6134
   7883444.53146   6134090.53944  23328829.3754                   23328833.5394
 -13611794.48447 -10591190.43046  21925040.3444                   21925042.7194
  -1915291.06647  -1469782.78944  23613323.3204                   23613328.3134
 11  9 21 22 11 30.0000000  0  8G02G04G09G10G12G17G05G25
  -7386456.59848  -5721696.09447  20485455.8364                   20485452.9024
   8611401.60548   6717046.09845  21636948.2194                   21636949.5824
   8830267.02346   6886016.87544  23852642.5784                   23852650.0474
 -10668768.23048  -8271133.39546  20822232.8984                   20822233.5314
 -17119855.90248 -13292816.80146  21149245.7584                   21149245.1334
   7912160.70346   6156466.68844  23334294.4384                   23334298.5314
 -13732571.51647 -10685302.29346  21902057.5004                   21902059.6374
  -2040760.53947  -1567551.08644  23589446.4614                   23589451.7154
 11  9 21 22 12  0.0000000  0  8G02G04G09G10G12G17G05G25
  -7415819.08648  -5744575.94946  20479868.0084                   20479865.7154
   8658508.58248   6753752.76245  21645912.7584                   21645913.8984
   8883218.41447   6927277.44144  23862719.4924                   23862726.2194
 -10693948.78148  -8290754.59846  20817441.5864                   20817441.7114
 -17201349.02348 -13356317.91446  21133737.9384                   21133737.5784
   7941048.10947   6178976.27044  23339791.6804                   23339795.0664
 -13853027.89147 -10779164.28946  21879135.4774                   21879137.2624
  -2165988.78946  -1665131.42244  23565616.1954                   23565621.1564
 11  9 21 22 12 30.0000000  0  8G02G04G09G10G12G17G05G25
  -7444884.21948  -5767224.09047  20474337.0234                   20474334.8014
   8705762.81648   6790574.18445  21654905.0474                   21654905.8594
   8936293.09846   6968634.06343  23872818.7814                   23872826.8634
 -10718483.68048  -8309872.66846  20812772.3444                   20812773.0354
 -17282360.16848 -13419443.45346  21118322.3444                   21118321.8324
   7970106.79746   6201619.26244  23345320.7114                   23345324.8554
 -13973161.63347 -10872774.88346  21856274.5864                   21856276.5704
  -2290973.82447  -1762522.23044  23541832.1254                   23541837.9614
 11  9 21 22 13  0.0000000  0  8G02G04G09G10G12G17G05G25
  -7473656.75448  -5789644.23847  20468861.7344                   20468859.2974
   8753158.92248   6827506.14845  21663924.0554                   21663925.7034
   8989484.02046   7010081.28144  23882941.3284                   23882948.6414
 -10742376.71948  -8328490.59446  20808225.7814                   20808226.2384
 -17362890.84048 -13482194.60246  21102997.5004                   21102997.3364
   7999333.44946   6224393.16044  23350882.9924                   23350886.5164
 -14092973.58247 -10966134.72346  21833474.8674                   21833477.2624
  -2415716.62147  -1859724.30544  23518094.2974                   23518099.9734
 11  9 21 22 13 30.0000000  0  8G02G04G09G10G12G17G05G25
  -7502135.55148  -5811835.50447  20463442.6564                   20463440.1054
   8800696.91048   6864548.68845  21672970.5944                   21672971.4224
   9042789.97346   7051618.16443  23893085.2974                   23893092.0554
 -10765625.83648  -8346606.77046  20803801.7114                   20803802.2934
 -17442936.80548 -13544568.06246  21087765.6564                   21087764.9304
   8028730.29346   6247299.69144  23356477.1414                   23356481.1724
 -14212459.07847 -11059240.18046  21810737.3834                   21810739.8674
  -2540212.53147  -1956734.02044  23494404.2344                   23494408.7234
 11  9 21 22 14  0.0000000  0  8G02G04G09G10G12G17G05G25
  -7530321.87548  -5833798.85546  20458078.8594                   20458076.7234
   8848375.25448   6901700.59845  21682043.3134                   21682043.8324
   9096207.73447   7093242.13744  23903251.3524                   23903257.4884
 -10788230.70348  -8364220.94146  20799500.0084                   20799500.7034
 -17522495.87148 -13606562.11746  21072625.9224                   21072625.3714
   8058298.13346   6270339.43844  23362104.2194                   23362107.8094
 -14331614.62547 -11152088.52746  21788062.7274                   21788065.4534
  -2664458.57047  -2053549.00045  23470760.7734                   23470765.4734
 11  9 21 22 14 30.0000000  0  8G02G04G09G10G12G17G05G25
  -7558218.40647  -5855536.40247  20452770.3754                   20452768.1374
   8896190.00848   6938958.80545  21691142.3914                   21691143.3524
   9149732.10947   7134949.19943  23913436.1484                   23913444.0314
 -10810193.56648  -8381334.84046  20795320.6484                   20795321.1024
 -17601567.85948 -13668176.63346  21057579.1724                   21057578.8874
   8088035.23446   6293511.12544  23367762.2814                   23367766.6374
 -14450439.57447 -11244679.28146  21765450.8524                   21765453.1054
  -2788454.03947  -2150168.73045  23447165.2424                   23447170.6294
 11  9 21 22 15  0.0000000  0  8G02G04G09G10G12G17G05G25
  -7585825.60248  -5877048.48847  20447516.8364                   20447514.5824
   8944140.02348   6976322.38745  21700267.0004                   21700267.2384
   9203360.51247   7176737.35244  23923642.5784                   23923648.4534
 -10831513.94948  -8397948.09046  20791263.1484                   20791263.6914
 -17680149.79748 -13729409.28146  21042625.5784                   21042624.7664
   8117942.86746   6316815.65244  23373454.0704                   23373457.7584
 -14568930.15647 -11337009.47746  21742903.0554                   21742905.3404
  -2912195.41847  -2246590.48445  23423617.9224                   23423623.2664
 11  9 21 22 15 30.0000000  0  8G02G04G09G10G12G17G05G25
  -7613146.28548  -5898337.32047  20442317.7814                   20442315.4924
   8992221.85248   7013788.70745  21709416.9454                   21709417.3444
   9257087.76246   7218602.45743  23933866.0944                   23933873.0124
 -10852193.78948  -8414062.23446  20787328.4224                   20787328.7544
 -17758241.61748 -13790260.03946  21027764.4384                   21027764.3134
   8148019.73846   6340252.08644  23379176.8984                   23379180.9654
 -14687085.62947 -11429078.55146  21720418.4304                   21720420.7734
  -3035681.93447  -2342813.60544  23400118.9454                   23400123.8914
 11  9 21 22 16  0.0000000  0  8G02G04G09G10G12G17G05G25
  -7640181.85948  -5919403.99247  20437173.0234                   20437170.7114
   9040433.06648   7051355.84445  21718590.8444                   21718592.1804
   9310910.32846   7260541.90243  23944107.8674                   23944115.3874
 -10872233.46548  -8429677.54746  20783514.9304                   20783515.4264
 -17835841.61748 -13850727.55546  21012997.8914                   21012997.7894
   8178265.77347   6363820.34044  23384933.3984                   23384936.1054
 -14804903.32448 -11520884.43446  21697999.0164                   21698000.6214
  -3158911.06647  -2438836.19944  23376669.0314                   23376673.8914
 11  9 21 22 16 30.0000000  0  8G02G04G09G10G12G17G05G25
  -7666930.39848  -5940247.00047  20432083.0864                   20432080.8754
   9088774.87548   7089024.74645  21727790.0554                   21727790.8834
   9364827.59047   7302555.07443  23954368.7504                   23954375.6094
 -10891630.38348  -8444792.01646  20779823.7584                   20779823.5904
 -17912944.69948 -13910807.86746  20998325.8054                   20998325.1374
   8208684.35947   6387523.03144  23390722.2504                   23390725.5124
 -14922377.54348 -11612422.67246  21675644.2424                   21675645.5944
  -3281877.25447  -2534653.91044  23353268.9774                   23353274.7274
 11  9 21 22 17  0.0000000  0  8G02G04G09G10G12G17G05G25
  -7693395.75448  -5960869.34447  20427046.7584                   20427044.4104
   9137242.89148   7126791.98045  21737013.4774                   21737014.9104
   9418833.63747   7344637.44544  23964645.8674                   23964652.8324
 -10910387.62948  -8459408.04346  20776254.2194                   20776254.3914
 -17989551.73048 -13970501.64146  20983747.9144                   20983747.3244
   8239273.05147   6411358.27344  23396543.3284                   23396545.9144
 -15039508.34447 -11703693.31646  21653354.5634                   21653356.4144
  -3404580.53947  -2630266.73444  23329920.2034                   23329925.2274
 11  9 21 22 17 30.0000000  0  8G02G04G09G10G12G17G05G25
  -6144157.62148  -4753670.79747  20721857.1564                   20721854.7704
  10761253.99648   8392255.12145  22046052.1414                   22046052.7194
  11048343.97347   8614385.48044  24274731.2664                   24274738.4924
  -9353084.21948  -7245924.85546  21072599.3444                   21072599.9264
 -16490237.33248 -12802204.71146  21269057.8364                   21269057.7734
   9845451.98447   7662926.17244  23702188.7034                   23702192.0124
 -13580868.35947 -10567090.62146  21930924.6094                   21930926.7734
  -1951593.56247  -1498068.97344  23606413.8594                   23606418.0824
 11  9 21 22 18  0.0000000  0  8G02G04G09G10G12G17G05G25
  -6170056.93748  -4773852.07846  20716928.7344                   20716925.8834
  10809971.72348   8430216.94945  22055322.9224                   22055323.5904
  11102520.67247   8656600.84044  24285041.3834                   24285048.6414
  -9370559.72747  -7259542.10946  21069273.7504                   21069274.0904
 -16565843.06248 -12861118.25846  21254670.6724                   21254670.1524
   9876385.29746   7687029.95344  23708074.8914                   23708079.7704
 -13697300.83247 -10657817.10246  21908767.8594                   21908769.8834
  -2073759.85247  -1593263.42644  23583166.8914                   23583169.9144
 11  9 21 22 18 30.0000000  0  8G02G04G09G10G12G17G05G25
  -6195675.81248  -4793814.83647  20712053.4304                   20712051.3244
  10858810.45348   8468273.03945  22064616.7274                   22064617.5634
  11156776.72347   8698878.02044  24295366.9384                   24295373.3954
  -9387395.88348  -7272661.18046  21066069.9454                   21066070.1024
 -16640946.32848 -12919640.27046  21240379.2814                   21240378.8714
   9907490.45746   7711267.60944  23713994.2894                   23713998.5274
 -13813380.39848 -10748268.60946  21886678.9384                   21886680.3674
  -2195654.66847  -1688246.28144  23559970.5234                   23559974.5554
 11  9 21 22 19  0.0000000  0  8G02G04G09G10G12G17G05G25
  -6221016.64848  -4813560.94947  20707231.2974                   20707228.6254
  10907767.51247   8506421.35945  22073932.8754                   22073934.0234
  11211107.55147   8741213.48844  24305705.4304                   24305712.8284
  -9403594.24247  -7285283.26646  21062987.7894                   21062988.2894
 -16715546.17648 -12977770.00446  21226183.1724                   21226182.5164
   9938766.54346   7735638.46144  23719946.2664                   23719949.2074
 -13929106.18048 -10838444.43746  21864657.1564                   21864658.6804
  -2317276.44947  -1783016.42244  23536826.6564                   23536830.7074
 11  9 21 22 19 30.0000000  0  8G02G04G09G10G12G17G05G25
  -6246079.67248  -4833090.58247  20702461.9924                   20702459.4844
  10956841.67248   8544660.91845  22083271.4614                   22083272.4224
  11265511.08647   8783605.63343  24316057.2274                   24316065.2344
  -9419154.60547  -7297408.21946  21060026.6024                   21060027.4184
 -16789640.15248 -13035505.54746  21212083.5634                   21212082.8484
   9970214.68846   7760143.40244  23725930.5704                   23725933.5904
 -14044474.48847 -10928341.71146  21842702.6174                   21842704.1484
  -2438621.66047  -1877570.99244  23513734.6484                   23513739.8594
 11  9 21 22 20  0.0000000  0  8G02G04G09G10G12G17G05G25
  -6270867.69948  -4852405.93047  20697744.6804                   20697742.3164
  11006029.57447   8582989.10945  22092631.6884                   22092633.1954
  11319982.36347   8826050.47743  24326423.2664                   24326431.3634
  -9434078.88747  -7309037.51646  21057186.6414                   21057186.9494
 -16863227.57848 -13092846.37546  21198080.3284                   21198079.8284
  10001833.60946   7784781.41044  23731946.8984                   23731951.3484
 -14159484.23448 -11017959.58246  21820817.2344                   21820818.9494
  -2559689.23447  -1971909.27744  23490697.0314                   23490700.9304
 11  9 21 22 20 30.0000000  0  8G02G04G09G10G12G17G05G25
  -6295377.72748  -4871504.65246  20693080.9694                   20693078.4574
  11055333.42247   8621407.64545  22102013.8984                   22102014.9494
  11374521.84446   8868548.48043  24336802.2344                   24336809.3914
  -9448363.88347  -7320168.66046  21054468.2584                   21054468.2774
 -16936303.18047 -13149788.37946  21184174.3754                   21184174.1844
  10033627.50046   7809555.73044  23737997.9694                   23738001.0394
 -14274128.85547 -11107292.94946  21799000.8204                   21799002.8484
  -2680472.71547  -2066026.17644  23467712.1414                   23467717.1254
 11  9 21 22 21  0.0000000  0  8G02G04G09G10G12G17G05G25
  -6319614.39848  -4890390.38346  20688469.2974                   20688466.7934
  11104748.10547   8659912.54345  22111417.0944                   22111418.0864
  11429122.77346   8911094.38343  24347192.9144                   24347200.9804
  -9462013.07448  -7330804.39846  21051870.8754                   21051870.9804
 -17008868.34848 -13206332.62946  21170365.3444                   21170365.2194
  10065593.64146   7834464.28544  23744079.9384                   23744084.4224
 -14388408.34048 -11196341.78946  21777254.2664                   21777256.2504
  -2800972.64547  -2159922.10944  23444781.9694                   23444785.7234
 11  9 21 22 21 30.0000000  0  8G02G04G09G10G12G17G05G25
  -6343577.59048  -4909063.00047  20683908.7584                   20683906.5314
  11154273.06347   8698503.39145  22120840.7034                   22120842.3914
  11483783.11746   8953686.58243  24357594.4384                   24357602.1334
  -9475025.92248  -7340944.26646  21049394.5234                   21049394.7424
 -17080919.64848 -13262476.47746  21156654.6094                   21156654.5004
  10097733.23446   7859508.01244  23750196.3754                   23750201.1564
 -14502319.59848 -11285103.70346  21755577.5864                   21755579.5784
  -2921185.05947  -2253594.03145  23421905.9844                   23421910.3954
 11  9 21 22 22  0.0000000  0  8G02G04G09G10G12G17G05G25
  -6367266.91448  -4927522.21546  20679400.7344                   20679398.3634
  11203908.07847   8737179.94545  22130286.9454                   22130288.1054
  11538501.11746   8996323.71943  24368007.1254                   24368015.3794
  -9487401.61747  -7350587.65246  21047039.3134                   21047039.2584
 -17152454.11748 -13318217.59446  21143042.4774                   21143041.7544
  10130048.14546   7884688.33644  23756346.5314                   23756350.1214
 -14615858.21548 -11373575.25046  21733971.9304                   21733973.8984
  -3041106.00847  -2347038.79745  23399086.4844                   23399090.6254
 11  9 21 22 22 30.0000000  0  8G02G04G09G10G12G17G05G25
  -6390685.64848  -4945770.58646  20674944.5234                   20674941.8164
  11253649.07847   8775939.13345  22139752.5474                   22139753.4884
  11593271.33246   9039001.54743  24378428.9694                   24378437.6214
  -9499143.13347  -7359736.89146  21044804.9694                   21044805.3594
 -17223471.98848 -13373556.16046  21129527.9534                   21129528.0164
  10162536.64546   7910003.93044  23762528.6254                   23762532.1214
 -14729023.44947 -11461755.83246  21712436.7274                   21712438.6414
  -3160734.83247  -2440255.96145  23376321.8674                   23376325.1644
 11  9 21 22 23  0.0000000  0  8G02G04G09G10G12G17G05G25
  -6413835.82448  -4963809.69147  20670538.8364                   20670536.6214
  11303493.57847   8814778.96945  22149237.0164                   22149238.0354
  11648089.79346   9081716.93444  24388861.7734                   24388869.8594
  -9510251.89148  -7368393.05946  21042691.1954                   21042691.1994
 -17293972.35548 -13428491.47746  21116112.3444                   21116111.8874
  10195198.03946   7935454.25844  23768743.9614                   23768747.6954
 -14841813.10248 -11549643.77046  21690973.7894                   21690976.0124
  -3280069.75847  -2533244.12545  23353612.3134                   23353616.6914
 11  9 21 22 23 30.0000000  0  8G02G04G09G10G12G17G05G25
  -6436717.42248  -4981639.50447  20666184.9454                   20666182.4804
  11353440.81647   8853698.84445  22158742.4454                   22158743.5274
  11702954.37947   9124468.28143  24399302.1884                   24399310.7384
  -9520727.12948  -7376555.57846  21040697.7894                   21040698.3404
 -17363951.98048 -13483021.01646  21102795.8054                   21102794.8954
  10228033.82046   7961040.47744  23774992.8984                   23774996.2194
 -14954224.41448 -11637236.87946  21669582.5084                   21669584.1954
  -3399106.95747  -2626000.24245  23330960.3204                   23330964.9024
 11  9 21 22 24  0.0000000  0  8G02G04G09G10G12G17G05G25
  -6459332.62548  -4999261.75047  20661881.5554                   20661879.1454
  11403487.92247   8892696.53945  22168265.4384                   22168266.8444
  11757860.62146   9167252.10943  24409749.7274                   24409759.0514
  -9530570.95348  -7384226.09846  21038824.7894                   21038825.4224
 -17433410.77348 -13537144.71146  21089577.7344                   21089577.2664
  10261043.06646   7986761.84844  23781274.2344                   23781278.5354
 -15066255.53548 -11724533.76646  21648263.6804                   21648265.3874
  -3517845.00447  -2718523.30545  23308365.6094                   23308369.0274
 11  9 21 22 24 30.0000000  0  8G02G04G09G10G12G17G05G25
  -6481681.03148  -5016676.09047  20657628.4924                   20657626.0944
  11453635.02747   8931772.12945  22177808.4844                   22177809.8404
  11812807.03146   9210067.21543  24420206.9144                   24420214.8164
  -9539782.33247  -7391403.78146  21037071.4064                   21037071.8054
 -17502345.42648 -13590859.99646  21076460.0004                   21076459.4774
  10294227.86346   8012620.02044  23787589.6174                   23787593.8204
 -15177901.96147 -11811530.87146  21627017.8524                   21627019.4264
  -3636279.40247  -2810809.73045  23285827.8284                   23285831.4064
 11  9 21 22 25  0.0000000  0  8G02G04G09G10G12G17G05G25
  -6503764.18048  -5033883.75047  20653426.3524                   20653423.6174
  11503880.18447   8970924.14845  22187369.7114                   22187370.9384
  11867790.04346   9252910.84443  24430669.3834                   24430678.5004
  -9548362.39548  -7398089.53546  21035438.9844                   21035439.0594
 -17570754.22748 -13644165.53546  21063442.2584                   21063441.5904
  10327587.97346   8038614.81343  23793936.7734                   23793942.4414
 -15289161.30947 -11898226.35946  21605846.1254                   21605847.7234
  -3754407.90247  -2902857.80545  23263348.8754                   23263352.5664
 11  9 21 22 25 30.0000000  0  8G02G04G09G10G12G17G05G25
  -6525585.60548  -5050887.46547  20649273.7584                   20649271.5634
  11554219.07847   9010149.19145  22196949.1484                   22196951.1214
  11922804.11846   9295778.63343  24441138.5084                   24441146.8364
  -9556314.25448  -7404285.77746  21033925.6484                   21033926.3134
 -17638637.96548 -13697061.93046  21050524.5634                   21050523.2974
  10361121.11346   8064744.43843  23800318.2814                   23800322.2854
 -15400033.61748 -11984620.26646  21584747.5704                   21584749.4024
  -3872230.43047  -2994667.44944  23240927.4384                   23240932.0554
 11  9 21 22 26  0.0000000  0  8G02G04G09G10G12G17G05G25
  -6547146.72748  -5067688.33647  20645170.8444                   20645168.6334
  11604649.57047   9049445.60545  22206545.6884                   22206547.4924
  11977845.25046   9338667.57843  24451613.0704                   24451622.3444
  -9563639.20748  -7409993.53546  21032532.2034                   21032532.1094
 -17705995.55148 -13749548.35246  21037706.5004                   21037706.2274
  10394827.51246   8091009.05543  23806733.1564                   23806737.2934
 -15510516.49248 -12070710.71546  21563723.5394                   21563724.7194
  -3989744.44947  -3086236.70744  23218565.4924                   23218569.1724
 11  9 21 22 26 30.0000000  0  8G02G04G09G10G12G17G05G25
  -6568449.16848  -5084287.64147  20641117.1254                   20641114.7034
  11655169.73047   9088811.90645  22216159.3834                   22216160.7464
  12032909.66046   9381574.60243  24462091.6564                   24462100.7664
  -9570338.24248  -7415213.55146  21031257.0314                   21031257.1214
 -17772825.67248 -13801623.74646  21024989.4844                   21024989.0004
  10428706.74646   8117408.35943  23813180.1334                   23813183.2974
 -15620607.80948 -12156496.05146  21542773.8204                   21542775.1884
  -4106947.94147  -3177563.97745  23196262.3054                   23196266.1254
 11  9 21 22 27  0.0000000  0  8G02G04G09G10G12G17G05G25
  -6589495.16448  -5100687.11747  20637112.6484                   20637109.8054
  11705776.63347   9128245.78945  22225789.7424                   22225791.0634
  12087993.28946   9424496.64843  24472573.5704                   24472582.5354
  -9576413.65248  -7419947.64146  21030101.1724                   21030100.9654
 -17839127.38348 -13853287.40646  21012372.7274                   21012372.0394
  10462758.28946   8143941.85944  23819659.6564                   23819664.6024
 -15730306.10547 -12241975.14546  21521898.6174                   21521900.5664
  -4223839.17647  -3268647.94944  23174017.9454                   23174022.1914
 11  9 21 22 27 30.0000000  0  8G02G04G09G10G12G17G05G25
  -6610283.91048  -5116886.14147  20633156.2814                   20633153.6914
  11756470.73847   9167747.62545  22235436.9144                   22235438.1414
  12143094.94546   9467432.71943  24483059.0864                   24483067.8794
  -9581864.32047  -7424194.91446  21029063.8134                   21029064.0394
 -17904897.72348 -13904537.01646  20999856.9304                   20999856.2624
  10496983.94146   8170611.09844  23826172.6024                   23826177.4734
 -15839607.03947 -12327144.61746  21501099.6644                   21501100.8594
  -4340413.61747  -3359485.08644  23151834.3364                   23151839.0864
 11  9 21 22 28  0.0000000  0  8G02G04G09G10G12G17G05G25
  -6630817.41048  -5132886.27047  20629249.0234                   20629246.7544
  11807249.46947   9207315.39145  22245099.2814                   22245100.9454
  12198210.67646   9510379.78143  24493548.8364                   24493555.7894
  -9586692.08248  -7427956.80546  21028145.1564                   21028145.4494
 -17970135.53948 -13955371.68046  20987442.5004                   20987442.0514
  10531383.23046   8197415.62943  23832719.3364                   23832723.1844
 -15948508.77348 -12412003.01646  21480375.8444                   21480377.5944
  -4456669.50847  -3450073.96545  23129712.2734                   23129716.6134
 11  9 21 22 28 30.0000000  0  8G02G04G09G10G12G17G05G25
  -6651099.26248  -5148690.29747  20625389.6174                   20625386.9184
  11858108.77347   9246945.94145  22254777.5554                   22254778.9224
  12253334.81346   9553333.39543  24504038.3204                   24504046.7034
  -9590900.37547  -7431236.00046  21027344.3754                   21027344.0084
 -18034842.10948 -14005792.39146  20975129.3444                   20975128.7704
  10565954.05546   8224353.78543  23839297.8054                   23839302.2624
 -16057011.08248 -12496550.17646  21459728.7274                   21459729.9264
  -4572606.65247  -3540414.51644  23107649.8984                   23107653.9654
 11  9 21 22 29  0.0000000  0  8G02G04G09G10G12G17G05G25
  -6671128.25048  -5164297.29747  20621578.0474                   20621575.4344
  11909049.27747   9286639.77045  22264471.3444                   22264473.2464
  12308466.59446   9596292.95743  24514529.7424                   24514538.6954
  -9594487.72747  -7434031.33646  21026661.6094                   21026662.2034
 -18099012.95748 -14055795.66046  20962917.7894                   20962917.2664
  10600698.78546   8251427.51643  23845908.7274                   23845913.6484
 -16165108.77748 -12580782.05146  21439157.8984                   21439159.5234
  -4688219.96547  -3630502.71545  23085649.0234                   23085652.5474
 11  9 21 22 29 30.0000000  0  8G02G04G09G10G12G17G05G25
  -6690906.15648  -5179708.64847  20617814.3984                   20617812.4144
  11960068.91447   9326395.25045  22274180.4304                   22274181.7034
  12363602.16046   9639255.48443  24525022.1334                   24525029.6484
  -9597455.71947  -7436344.06646  21026096.8914                   21026097.5394
 -18162647.48048 -14105381.01646  20950808.6484                   20950807.6914
  10635617.14146   8278636.47743  23852554.2274                   23852558.1174
 -16272800.69548 -12664697.73846  21418665.0474                   21418666.3754
  -4803507.40647  -3720337.01645  23063711.0704                   23063714.2274
 11  9 21 22 30  0.0000000  0  8G02G04G09G10G12G17G05G25
  -6710435.66448  -5194926.43047  20614097.9304                   20614095.4344
  12011164.36347   9366209.82445  22283903.2344                   22283905.2584
  12418736.64147   9682217.16844  24535514.1564                   24535522.8554
  -9599807.06647  -7438176.29746  21025649.1804                   21025649.7074
 -18225745.76647 -14154548.52346  20938801.6484                   20938801.0784
  10670707.74246   8305979.66843  23859231.3054                   23859235.9144
 -16380085.64848 -12748296.29746  21398249.4454                   21398250.6094
  -4918468.03947  -3809916.66045  23041834.8524                   23041838.3754
 11  9 21 22 30 30.0000000  0  8G02G04G09G10G12G17G05G25
  -6729717.03548  -5209950.85946  20610428.9844                   20610426.4344
  12062335.14147   9406083.09045  22293640.7194                   22293642.8444
  12473868.02346   9725176.39144  24546004.8914                   24546014.6564
  -9601541.31247  -7439527.64846  21025319.1954                   21025319.2114
 -18288305.14148 -14203296.09046  20926896.7504                   20926896.2974
  10705972.06646   8333458.21143  23865941.6174                   23865947.2194
 -16486960.05948 -12831574.98046  21377912.0084                   21377912.7074
  -5033098.12947  -3899238.73845  23020020.9534                   23020024.9064
 11  9 21 22 31  0.0000000  0  8G02G04G09G10G12G17G05G25
  -6748749.90648  -5224781.66047  20606807.0634                   20606804.4104
  12113580.89547   9446014.77745  22303392.9064                   22303394.3794
  12528994.35546   9768131.66843  24556496.3834                   24556504.3204
  -9602658.68448  -7440398.32446  21025106.7274                   21025107.4534
 -18350322.91847 -14251621.64146  20915095.3134                   20915094.6954
  10741411.43846   8361073.17643  23872686.2274                   23872690.4494
 -16593420.20348 -12914530.85546  21357652.7814                   21357653.6414
  -5147393.87947  -3988300.27745  22998271.0004                   22998275.3834
 11  9 21 22 31 30.0000000  0  8G02G04G09G10G12G17G05G25
  -6767538.69948  -5239422.25846  20603231.8054                   20603229.2704
  12164896.79347   9486001.14845  22313157.8754                   22313159.0944
  12584109.23046   9811078.05543  24566984.3984                   24566992.1884
  -9603163.60547  -7440791.77746  21025010.7344                   21025010.8484
 -18411801.01248 -14299526.65646  20903396.4454                   20903395.8674
  10777022.46146   8388821.94943  23879462.8204                   23879467.9184
 -16699466.68048 -12997164.38346  21337472.9144                   21337474.1374
  -5261355.83247  -4077101.73845  22976585.1724                   22976588.7504
 11  9 21 22 32  0.0000000  0  8G02G04G09G10G12G17G05G25
  -6786079.81648  -5253869.88746  20599703.2034                   20599701.0904
  12216286.33647   9526044.87145  22322936.9384                   22322938.5634
  12639214.52746   9854016.97743  24577470.3834                   24577479.5044
  -9603052.12547  -7440704.93046  21025031.6334                   21025032.2424
 -18472732.85547 -14347006.02746  20891801.5394                   20891800.5904
  10812810.79346   8416708.82443  23886273.4144                   23886278.8364
 -16805092.01248 -13079469.73046  21317372.8594                   21317374.1134
  -5374976.32047  -4165637.11345  22954963.7424                   22954967.1334
 11  9 21 22 32 30.0000000  0  8G02G04G09G10G12G17G05G25
  -6804379.49248  -5268129.36346  20596220.9614                   20596218.4414
  12267742.69547   9566140.64545  22332729.1174                   22332730.2344
  12694301.80146   9896941.82443  24587952.1414                   24587963.1914
  -9602330.41047  -7440142.55146  21025169.7034                   21025169.8134
 -18533122.20348 -14394062.66846  20880309.8134                   20880309.3404
  10848771.07446   8444729.68043  23893115.5394                   23893120.7074
 -16910299.08648 -13161449.18746  21297353.0314                   21297353.5394
  -5488258.01247  -4253908.49245  22933407.1884                   22933411.1914
 11  9 21 22 33  0.0000000  0  8G02G04G09G10G12G17G05G25
  -6822434.93448  -5282198.53146  20592785.3524                   20592782.7934
  12319268.26647   9606290.38345  22342533.8914                   22342535.3754
  12749372.16046   9939853.48842  24598431.9454                   24598442.6174
  -9600995.79747  -7439102.59446  21025423.0704                   21025423.4344
 -18592963.66447 -14440692.38746  20868922.2584                   20868921.9884
  10884907.40646   8472887.73443  23899992.4844                   23899997.1134
 -17015081.44148 -13243097.67646  21277413.1094                   21277414.8244
  -5601194.27047  -4341910.70345  22911916.2194                   22911919.8914
 11  9 21 22 33 30.0000000  0  8G02G04G09G10G12G17G05G25
  -6840247.66848  -5296078.59046  20589395.3984                   20589393.3484
  12370861.06347   9646492.48445  22352351.5084                   22352353.6294
  12804422.21546   9982749.25043  24608908.7584                   24608917.1564
  -9599050.51247  -7437586.80546  21025793.4384                   21025793.6484
 -18652256.43048 -14486894.54346  20857639.0944                   20857638.7624
  10921219.81646   8501182.94143  23906903.6884                   23906907.8444
 -17119437.33648 -13324413.86346  21257554.6094                   21257556.2464
  -5713782.91447  -4429642.05945  22890490.9694                   22890494.6994
 11  9 21 22 34  0.0000000  0  8G02G04G09G10G12G17G05G25
  -6857818.97348  -5309770.52046  20586051.9694                   20586049.9694
  12422519.37547   9686745.64845  22362181.9534                   22362183.4304
  12859448.40246  10025626.57843  24619379.6174                   24619389.7974
  -9596495.59447  -7435595.96946  21026279.7344                   21026279.3444
 -18710999.16047 -14532668.10246  20846460.8984                   20846460.3874
  10957708.17246   8529615.31643  23913846.5784                   23913852.1094
 -17223364.30548 -13405395.82446  21237778.3284                   21237779.5004
  -5826021.53547  -4517100.64845  22869132.3524                   22869136.5004
 11  9 21 22 34 30.0000000  0  8G02G04G09G10G12G17G05G25
  -6875150.68448  -5323275.75446  20582753.7344                   20582751.0784
  12474241.30147   9727048.37545  22372024.2664                   22372026.2854
  12914447.31346  10068482.57843  24629846.5394                   24629855.5354
  -9593332.67248  -7433131.34046  21026881.5004                   21026881.3834
 -18769191.16448 -14578012.51246  20835387.0004                   20835386.6684
  10994372.30146   8558184.63344  23920824.6024                   23920829.2584
 -17326860.50448 -13486042.12946  21218083.1334                   21218084.5634
  -5937908.04347  -4604284.86745  22847841.0634                   22847845.1334
 11  9 21 22 35  0.0000000  0  8G02G04G09G10G12G17G05G25
  -6892244.57848  -5336595.68446  20579500.8284                   20579498.4964
  12526024.14547   9767398.58645  22381878.4224                   22381879.4024
  12969414.69147  10111314.02743  24640306.8054                   24640315.6254
  -9589564.20347  -7430194.89846  21027598.8754                   21027598.8834
 -18826832.18047 -14622927.57846  20824418.3754                   20824418.0234
  11031211.32446   8586890.25043  23927834.6564                   23927839.3244
 -17429924.53948 -13566351.68446  21198470.8984                   21198472.2234
  -6049440.84847  -4691193.46945  22826617.1024                   22826621.4224
 11  9 21 22 35 30.0000000  0  8G02G04G09G10G12G17G05G25
  -6909099.48448  -5349729.38746  20576293.4774                   20576291.1804
  12577869.05147   9807797.16845  22391744.0084                   22391745.6764
  13024350.02747  10154120.52043  24650760.7664                   24650768.9144
  -9585188.67247  -7426785.39846  21028431.2814                   21028431.7384
 -18883918.23848 -14667410.21946  20813555.4064                   20813554.6214
  11068227.37546   8615733.83243  23934878.4694                   23934883.3984
 -17532551.68048 -13646320.79346  21178941.6884                   21178942.3674
  -6160614.84447  -4777822.48045  22805461.5394                   22805464.8444
 11  9 21 22 36  0.0000000  0  8G02G04G09G10G12G17G05G25
  -6925715.09048  -5362676.62146  20573131.7584                   20573129.7304
  12629776.26647   9848244.27745  22401621.8444                   22401623.5704
  13079251.92247  10196900.92243  24661208.4774                   24661218.4964
  -9580205.84847  -7422902.68746  21029379.3524                   21029380.1254
 -18940446.34848 -14711458.07046  20802798.6804                   20802797.8204
  11105422.87546   8644717.19943  23941956.8204                   23941961.8324
 -17634737.55148 -13725946.05546  21159495.8674                   21159497.0944
  -6271425.69947  -4864168.53945  22784374.3754                   22784378.7734
 11  9 21 22 36 30.0000000  0  8G02G04G09G10G12G17G05G25
  -6942094.04748  -5375439.46546  20570014.9924                   20570012.4024
  12681742.38347   9888737.29345  22411510.7344                   22411512.9064
  13134115.54746  10239651.52043  24671648.2274                   24671658.2664
  -9574619.05947  -7418549.35946  21030442.6884                   21030442.4574
 -18996417.18748 -14755071.69146  20792147.4384                   20792146.6334
  11142795.91446   8673838.88343  23949067.5864                   23949072.9414
 -17736481.80148 -13805227.20346  21140134.8364                   21140135.7974
  -6381872.66847  -4950231.03545  22763357.1484                   22763360.9654
 11  9 21 22 37  0.0000000  0  8G02G04G09G10G12G17G05G25
  -6958237.00448  -5388018.41046  20566943.0084                   20566940.5434
  12733766.82447   9929275.75845  22421410.7504                   22421412.0704
  13188938.45746  10282370.35243  24682082.4614                   24682091.5274
  -9568428.82847  -7413725.80546  21031620.3284                   21031620.9964
 -19051828.52748 -14798249.34446  20781603.1334                   20781602.5944
  11180347.55145   8703099.75443  23956214.6644                   23956219.0634
 -17837781.28948 -13884161.78546  21120858.0314                   21120859.0514
  -6491952.35947  -5036007.35945  22742409.9224                   22742413.3484
 11  9 21 22 37 30.0000000  0  8G02G04G09G10G12G17G05G25
  -6974143.28548  -5400412.94146  20563916.1334                   20563913.7894
  12785849.68047   9969859.74245  22431321.7584                   22431323.3984
  13243719.15246  10325056.28943  24692505.0944                   24692516.0044
  -9561635.22347  -7408432.09846  21032913.6644                   21032913.9304
 -19106677.77348 -14840989.00046  20771165.5314                   20771165.2194
  11218079.27745   8732501.01243  23963393.7504                   23963401.3524
 -17938632.50048 -13962747.05546  21101666.9064                   21101667.2664
  -6601660.69947  -5121494.29745  22721532.7194                   22721536.6684
 11  9 21 22 38  0.0000000  0  8G02G04G09G10G12G17G05G25
  -6989816.65248  -5412625.96147  20560933.5394                   20560931.6484
  12837986.57447  10010485.82444  22441243.4844                   22441244.7194
  13298452.27346  10367705.08243  24702921.9144                   24702931.7814
  -9554242.21547  -7402671.32446  21034320.3204                   21034320.6054
 -19160966.90248 -14883292.19946  20760834.4924                   20760834.2774
  11255988.53145   8762040.55143  23970609.3364                   23970613.7584
 -18039035.48448 -14040983.05946  21082560.3444                   21082561.0904
  -6710997.95747  -5206692.09445  22700726.4844                   22700730.1644
 11  9 21 22 38 30.0000000  0  8G02G04G09G10G12G17G05G25
  -7005255.65248  -5424656.37146  20557995.9844                   20557993.5234
  12890179.05947  10051155.23845  22451175.2344                   22451177.5554
  13353137.32046  10410316.50843  24713328.3204                   24713338.6804
  -9546248.64547  -7396442.59446  21035841.2664                   21035842.0704
 -19214691.31248 -14925155.35546  20750611.2504                   20750611.0864
  11294078.43445   8791720.79343  23977857.0084                   23977861.7114
 -18138985.08248 -14118865.78146  21063540.8284                   21063541.2814
  -6819958.54747  -5291596.37945  22679992.2344                   22679995.5744
 11  9 21 22 39  0.0000000  0  8G02G04G09G10G12G17G05G25
  -7020462.83248  -5436506.13346  20555101.6484                   20555099.7194
  12942424.08647  10091865.59045  22461116.6724                   22461119.3484
  13407769.61346  10452886.82843  24723724.0164                   24723734.6844
  -9537657.84448  -7389748.46546  21037476.0944                   21037476.3324
 -19267851.68448 -14966579.01646  20740495.0394                   20740494.7344
  11332347.12545   8821540.49642  23985139.3054                   23985142.7974
 -18238481.01248 -14196394.98846  21044607.0234                   21044608.4184
  -6928541.68748  -5376206.53145  22659329.3054                   22659333.2304
 11  9 21 22 39 30.0000000  0  8G02G04G09G10G12G17G05G25
  -7035439.93448  -5448176.61346  20552251.8914                   20552249.9734
  12994719.94147  10132615.54744  22471068.6724                   22471070.3794
  13462346.01647  10495413.60543  24734110.2194                   24734120.6484
  -9528470.89547  -7382589.82446  21039224.4384                   21039224.6764
 -19320446.92648 -15007562.30146  20730486.6884                   20730486.2854
  11370794.57845   8851499.36342  23992455.7974                   23992459.7584
 -18337521.12948 -14273569.02346  21025760.2114                   21025761.2814
  -7036745.12547  -5460520.84045  22638738.7504                   22638741.9414
 11  9 21 22 40  0.0000000  0  7G02G04G10G12G17G05G25
  -7050188.50448  -5459669.01247  20549445.2114                   20549443.0594
  13047064.65247  10173403.57444  22481029.5004                   22481031.0004
  -9518690.22347  -7374968.54746  21041085.8754                   21041085.8674
 -19372476.88348 -15048105.11346  20720585.4614                   20720585.0744
                                  23999805.4384                   23999811.5394
 -18436103.52748 -14350386.39546  21007000.6094                   21007001.0864
  -7144566.81247  -5544537.66445  22618221.0004                   22618224.0554
 11  9 21 22 40 30.0000000  0  7G02G04G10G12G17G05G25
  -7064701.34848  -5470977.72346  20546683.4064                   20546681.4184
  13099465.29347  10214235.18045  22491001.0944                   22491003.3954
  -9508309.02347  -7366879.30546  21043061.0164                   21043061.5594
 -19423932.02348 -15088200.02746  20710794.2894                   20710793.2624
  11448232.84445   8911840.52742  24007192.3364                   24007196.0864
 -18534217.94948 -14426839.09446  20988330.2664                   20988330.8834
  -7251995.84447  -5628248.55145  22597777.9614                   22597780.9024
 11  9 21 22 41  0.0000000  0  7G02G04G10G12G17G05G25
  -7078973.33648  -5482098.75846  20543967.2034                   20543965.7704
  13151926.48447  10255113.95745  22500984.1254                   22500986.0434
  -9497322.97747  -7358318.77746  21045151.8524                   21045151.7544
 -19474805.03148 -15127841.30946  20701113.1254                   20701112.6214
  11487238.06355   8942234.16052  24014613.7194                   24014619.2814
 -18631855.75848 -14502920.43446  20969750.2194                   20969751.0944
  -7359023.55947  -5711646.71145  22577411.1484                   22577414.9024
 11  9 21 22 41 30.0000000  0  7G02G04G10G12G17G05G25
  -7093006.23848  -5493033.49246  20541297.3284                   20541295.1994
  13204446.13747  10296038.29345  22510978.5554                   22510979.9454
  -9485734.27747  -7349288.64146  21047357.4534                   21047356.9264
 -19525095.77048 -15167028.89146  20691543.3594                   20691543.0314
  11526435.94945   8972777.80142  24022073.8054                   24022078.9304
 -18729015.50448 -14578629.24646  20951261.2194                   20951262.2734
  -7465648.15247  -5794730.75845  22557121.1724                   22557124.4844
 11  9 21 22 42  0.0000000  0  7G02G04G10G12G17G05G25
  -7106805.14548  -5503785.89546  20538671.7344                   20538669.0234
  13257019.00447  10337004.10945  22520983.1414                   22520984.3954
  -9473548.35548  -7339793.12546  21049675.5394                   21049676.3054
 -19574806.69148 -15205764.67646  20682083.3204                   20682083.1214
  11565822.18846   9003468.20742  24029569.6024                   24029574.0784
 -18825699.20748 -14653967.12146  20932863.0864                   20932864.0554
  -7571871.07847  -5877501.80545  22536907.9454                   22536911.5164
 11  9 21 22 42 30.0000000  0  7G02G04G10G12G17G05G25
  -7120376.53948  -5514360.99246  20536089.0234                   20536086.5744
  13309638.82047  10378006.48445  22530996.1334                   22530998.9384
  -9460771.73047  -7329837.34446  21052106.9144                   21052107.3244
 -19623942.37148 -15244052.21146  20672733.4224                   20672733.0234
  11605392.03945   9034301.65242  24037098.8914                   24037103.9614
 -18921909.68048 -14728936.23446  20914554.7344                   20914555.4804
  -7677694.76647  -5959961.78145  22516770.1334                   22516773.3204
 11  9 21 22 43  0.0000000  0  7G02G04G10G12G17G05G25
  -7133725.71148  -5524762.95346  20533548.6564                   20533545.9694
  13362299.64847  10419040.78944  22541016.5554                   22541019.5664
  -9447410.80547  -7319426.25046  21054649.7734                   21054649.5704
 -19672506.10548 -15281894.08246  20663492.3284                   20663491.5434
  11645141.28145   9065275.01242  24044662.0474                   24044667.7154
 -19017649.26648 -14803538.43746  20896336.0784                   20896336.5354
  -7783121.27747  -6042112.25845  22496707.8524                   22496710.7774
 11  9 21 22 43 30.0000000  0  7G02G04G10G12G17G05G25
  -5571431.00048  -4307390.45346  20830843.7894                   20830841.2704
  14990420.78547  11687706.54344  22850838.5394                   22850840.5204
  -7858045.64847  -6080959.91446  21357095.5944                   21357095.9534
 -18145072.89148 -14091686.37946  20954152.7274                   20954152.5864
  13260490.55945  10323988.55542  24352054.0864                   24352060.2464
 -17537490.21148 -13650167.68046  21178000.6954                   21178001.0664
  -6312722.17647  -4896346.67645  22776515.7894                   22776519.3594
 11  9 21 22 44  0.0000000  0  7G02G04G10G12G17G05G25
  -5584334.59448  -4317445.20346  20828387.8524                   20828386.0594
  15043163.89847  11728804.98845  22860875.2194                   22860877.9774
  -7843517.24247  -6069639.09446  21359860.6724                   21359860.8954
 -18192485.72348 -14128631.43446  20945130.8204                   20945129.7664
  13300602.02345  10355244.12542  24359686.2034                   24359692.5594
 -17632276.96948 -13724027.41846  21159963.6954                   21159964.2234
  -6417342.46147  -4977868.94945  22756606.5234                   22756610.6684
 11  9 21 22 44 30.0000000  0  7G02G04G10G12G17G05G25
  -5597019.00848  -4327329.17646  20825974.2584                   20825971.7584
  15095944.63347  11769932.72745  22870919.1484                   22870922.0634
  -7828409.19947  -6057866.60946  21362735.7114                   21362736.3204
 -18239323.57048 -14165128.45746  20936217.6254                   20936217.0274
  13340893.08246  10386639.47342  24367355.1174                   24367360.2624
 -17726585.84448 -13797514.78146  21142017.0234                   21142017.8364
  -6521557.68747  -5059075.57445  22736775.7344                   22736779.4144
 11  9 21 22 45  0.0000000  0  7G02G04G10G12G17G05G25
  -5609487.91848  -4337045.21146  20823601.4454                   20823598.9844
  15148759.03947  11811086.72745  22880969.6174                   22880972.3134
  -7812725.68447  -6045645.70746  21365719.7584                   21365720.3634
 -18285587.84048 -14201178.52746  20927413.9614                   20927413.2584
  13381361.48446  10418173.17642  24375055.2664                   24375061.1564
 -17820417.54748 -13870630.31246  21124161.5554                   21124161.9774
  -6625367.76647  -5139966.51645  22717021.4224                   22717023.8984
 11  9 21 22 45 30.0000000  0  7G02G04G10G12G17G05G25
  -5621742.08648  -4346593.93046  20821269.6024                   20821267.0594
  15201606.24247  11852266.30544  22891025.9384                   22891028.0864
  -7796468.39847  -6032977.71546  21368813.5234                   21368813.9844
 -18331277.37148 -14236780.74246  20918718.9694                   20918718.1684
  13422007.34446  10449845.07442  24382790.9144                   24382794.5594
 -17913769.57048 -13943372.07446  21106397.2034                   21106397.2624
  -6728770.07047  -5220539.69945  22697343.7114                   22697347.9064
 11  9 21 22 46  0.0000000  0  7G02G04G10G12G17G05G25
  -5633781.09848  -4355974.97346  20818978.6724                   20818976.2034
  15254486.12547  11893471.32845  22901089.0704                   22901090.9574
  -7779637.94547  -6019863.07046  21372016.5704                   21372016.6454
 -18376390.28148 -14271933.65246  20910134.5554                   20910133.9734
  13462831.99246  10481656.36742  24390559.1174                   24390564.0664
 -18006638.58648 -14015737.46146  21088724.4144                   21088724.7854
  -6831760.79347  -5300792.17245  22677745.7814                   22677748.9494
 11  9 21 22 46 30.0000000  0  7G02G04G10G12G17G05G25
  -5645605.97348  -4365189.17646  20816728.5474                   20816726.0554
  15307397.57447  11934700.93845  22911157.8364                   22911160.1914
  -7762236.07047  -6006303.18446  21375328.3284                   21375328.4264
 -18420925.63748 -14306636.50846  20901660.0784                   20901659.2854
  13503835.50046  10513606.89142  24398361.7974                   24398366.6884
 -18099022.50048 -14087724.85246  21071144.2504                   21071144.8204
  -6934337.48847  -5380722.02045  22658225.6334                   22658229.3094
 11  9 21 22 47  0.0000000  0  7G02G04G10G12G17G05G25
  -5657218.77048  -4374238.12546  20814518.8444                   20814516.1374
  15360338.48847  11975953.54744  22921232.1254                   22921233.0204
  -7744265.15247  -5992299.87946  21378747.8914                   21378748.3364
 -18464883.04348 -14340889.02047  20893295.1884                   20893294.6174
  13545017.18046  10545696.36742  24406198.9384                   24406203.6054
 -18190919.98448 -14159333.20346  21053656.9694                   21053657.6174
  -7036498.33647  -5460327.82045  22638785.0164                   22638788.5044
 11  9 21 22 47 30.0000000  0  7G02G04G10G12G17G05G25
  -5668621.30148  -4383123.21546  20812348.6644                   20812346.2384
  15413306.89547  12017227.55545  22931311.7424                   22931313.4574
  -7725727.87147  -5977855.24246  21382275.0234                   21382275.2664
 -18508263.02048 -14374691.58646  20885040.1414                   20885039.3634
  13586375.99246  10577923.92642  24414068.5314                   24414075.1684
 -18282330.26648 -14230561.90646  21036261.6954                   21036262.6914
  -7138241.86347  -5539608.46145  22619424.4144                   22619427.4264
 11  9 21 22 48  0.0000000  0  7G02G04G10G12G17G05G25
  -5679812.59048  -4391843.71146  20810219.0314                   20810216.9384
  15466303.47747  12058523.52344  22941396.2974                   22941398.7074
  -7706624.18047  -5962969.27046  21385910.5234                   21385910.5704
 -18551062.89848 -14408042.13747  20876895.4774                   20876894.8054
  13627914.00046  10610291.05942  24421972.7734                   24421979.8674
 -18373249.03548 -14301407.62946  21018960.5864                   21018961.3094
  -7239563.64547  -5618560.46145  22600143.2894                   22600146.5044
 11  9 21 22 48 30.0000000  0  7G02G04G10G12G17G05G25
  -5690792.94947  -4400399.84046  20808130.0234                   20808126.9654
  15519328.25847  12099841.46544  22951486.3674                   22951489.1024
  -7686955.25847  -5947642.86346  21389653.1724                   21389653.8054
 -18593280.59447 -14440939.03947  20868861.7584                   20868861.3094
  13669632.42645  10642798.69542  24429911.8674                   24429918.1604
 -18463673.21948 -14371867.95746  21001753.5704                   21001753.8284
  -7340460.19947  -5697181.09045  22580943.1564                   22580946.0554
 11  9 21 22 49  0.0000000  0  7G02G04G10G12G17G05G25
  -5701567.27347  -4408795.43446  20806079.4224                   20806077.0904
  15572375.81347  12141177.21544  22961581.3594                   22961583.5824
  -7666726.88747  -5931880.50446  21393502.8204                   21393502.5594
 -18634919.58247 -14473384.99246  20860938.1094                   20860937.2584
  13711527.105 6                  24437884.336
 -18553605.03948 -14441944.62946  20984639.6954                   20984640.7734
  -7440933.14547  -5775471.64845  22561823.7114                   22561827.1994
 11  9 21 22 49 30.0000000  0  7G02G04G10G12G17G05G25
  -5712134.45348  -4417029.60246  20804068.8674                   20804066.1804
  15625447.19547  12182531.48044  22971679.8204                   22971683.1764
  -7645938.68747  -5915681.91846  21397459.1254                   21397458.5474
 -18675976.82448 -14505377.62947  20853125.2034                   20853124.5744
  13753600.223 6                  24445891.547
 -18643040.23848 -14511634.30946  20967620.6804                   20967621.7894
  -7540977.85547  -5853428.53545  22542785.8204                   22542788.4224
 11  9 21 22 50  0.0000000  0  7G02G04G10G12G17G05G25
  -5722494.60248  -4425102.44946  20802097.1644                   20802094.7504
  15678542.21547  12223904.15644  22981784.2114                   22981786.7624
  -7624591.82847  -5899048.03146  21401521.0234                   21401520.7274
 -18716450.97748 -14536915.92246  20845423.3364                   20845422.4694
  13795852.594 5                  24453933.188
 -18731975.93048 -14580934.77346  20950696.7664                   20950697.5704
  -7640591.04747  -5931049.15646  22523830.3444                   22523833.9774
 11  9 21 22 50 30.0000000  0  7G02G04G10G12G17G05G25
  -5732649.89548  -4433015.66046  20800164.5704                   20800162.2464
  15731658.39147  12265293.35544  22991892.1884                   22991893.9694
  -7602689.37947  -5881981.19146  21405688.3594                   21405689.1024
 -18756342.05148 -14567999.87946  20837832.1644                   20837831.3554
  13838282.984 6                  24462006.781
 -18820411.31648 -14649845.39146  20933868.2114                   20933868.8634
  -7739771.59847  -6008332.66845  22504957.1254                   22504959.6804
 11  9 21 22 51  0.0000000  0  7G02G04G10G12G17G05G25
  -5742600.86348  -4440769.66846  20798271.2274                   20798268.7814
  15784795.35546  12306698.74244  23002003.4064                   23002005.7894
  -7580232.41847  -5864482.27046  21409962.0084                   21409962.6454
 -18795650.04748 -14598629.48446  20830352.1564                   20830351.4384
  13880892.109 5                  24470113.852
 -18908344.67248 -14718364.80546  20917134.7584                   20917135.8484
  -7838516.40247  -6085276.62945  22486166.0394                   22486168.5904
 11  9 21 22 51 30.0000000  0  7G02G04G10G12G17G05G25
  -5752347.80947  -4448364.69546  20796416.3984                   20796413.8954
  15837952.67647  12348119.95744  23012119.3444                   23012121.5824
  -7557222.46547  -5846552.46946  21414340.9144                   21414341.3444
 -18834372.73447 -14628803.01647  20822983.3834                   20822982.8754
  13923680.684 6                  24478256.891
 -18995772.57048 -14786490.35546  20900497.7114                   20900498.4144
  -7936822.23847  -6161878.53145  22467458.8524                   22467462.7304
 11  9 21 22 52  0.0000000  0  7G02G04G10G12G17G05G25
  -5761890.54348  -4455800.58246  20794600.5554                   20794597.5944
  15891130.27346  12389556.98845  23022238.6954                   23022240.5744
  -7533660.35247  -5828192.41046  21418824.8834                   21418825.2194
 -18872508.64147 -14658519.31647  20815726.3204                   20815725.9924
  13966649.914 5                  24486431.859
 -19082692.16048 -14854219.82846  20883957.5474                   20883958.0864
  -8034685.66047  -6238135.69545  22448836.4384                   22448839.1524
 11  9 21 22 52 30.0000000  0  7G02G04G10G12G17G05G25
  -5771232.05148  -4463079.67646  20792822.8674                   20792819.6994
  15944325.27347  12431007.58244  23032360.6884                   23032363.3984
  -7509550.28947  -5809405.36345  21423412.5084                   21423412.6954
 -18910058.87548 -14687779.24246  20808580.8984                   20808579.8754
  14009797.512 5                  24494645.258
 -19169103.60248 -14921553.35546  20867513.8524                   20867513.8984
  -8132106.25047  -6314047.79345  22430297.4614                   22430301.6024
 11  9 21 22 53  0.0000000  0  7G02G04G10G12G17G05G25
  -5780371.16048  -4470201.06246  20791083.5944                   20791081.2704
  15997538.63746  12472472.48844  23042487.5004                   23042489.1724
  -7484892.25447  -5790191.32445  21428104.7194                   21428104.9264
 -18947021.02048 -14716580.91847  20801547.1484                   20801546.1724
  14053125.664 5                  24502889.305
 -19255003.07048 -14988487.94146  20851167.8054                   20851168.4964
  -8229079.55547  -6389611.35546  22411844.0704                   22411847.6524
 11  9 21 22 53 30.0000000  0  7G02G04G10G12G17G05G25
  -5789311.65648  -4477167.67646  20789381.8204                   20789379.8714
  16050766.70747  12513948.84044  23052616.7194                   23052619.2114
  -7459690.70347  -5770553.77346  21432900.7974                   21432901.6644
 -18983397.09448 -14744925.91446  20794625.0394                   20794624.1214
  14096631.902 5                  24511168.563
 -19340391.18448 -15055024.05546  20834918.9454                   20834919.3204
  -8325605.96147  -6464826.66046  22393475.8594                   22393479.3324
 11  9 21 22 54  0.0000000  0  8G02G04G30G10G12G17G05G25
  -5798058.02348  -4483983.03946  20787717.7814                   20787715.7934
  16104004.89546  12555433.03944  23062747.1644                   23062750.0274
   7636805.93015                  24371730.086
  -7433951.08247  -5750496.94146  21437798.5474                   21437799.5594
 -19019189.87147 -14772816.40646  20787814.0164                   20787813.1174
  14140312.289 5                  24519480.164
 -19425269.72748 -15121163.11346  20818766.9144                   20818767.2854
  -8421686.35947  -6539694.45346  22375192.1414                   22375195.7384
 11  9 21 22 54 30.0000000  0  9G02G04G30G10G12G17G05G25G29
  -5806626.80948  -4490659.99646  20786087.4304                   20786084.9694
  16157236.40246  12596912.06644  23072877.1024                   23072879.3554
   7513195.82045   5872162.37953  24348207.3594                   24348210.0944
  -7407691.32047  -5730034.81245  21442795.8834                   21442796.0784
 -19054414.61348 -14800264.27046  20781111.1414                   20781110.1804
  14184151.438 5                  24527822.195
 -19509652.67248 -15186915.98846  20802709.6334                   20802709.6604
  -8517334.30147  -6614225.23846  22356990.9534                   22356993.9064
   7661474.89156   5984285.66453  24661560.1804                   24661563.8754
 11  9 21 22 55  0.0000000  0  9G02G04G30G10G12G17G05G25G29
  -5815023.09448  -4497202.55546  20784489.2194                   20784486.8204
  16210456.26246  12638382.02744  23083003.8524                   23083007.4384
   7389878.69146   5776071.18843  24324742.1334                   24324744.7384
  -7380917.51247  -5709172.11746  21447890.7814                   21447891.1024
 -19089075.55147 -14827272.80146  20774514.9304                   20774514.3484
  14228145.098 5                  24536195.305
 -19593542.19948 -15252284.38746  20786745.5004                   20786745.7464
  -8612551.46547  -6688420.35246  22338871.9534                   22338874.6644
   7550292.18846   5897649.88743  24640403.4844                   24640407.0124
 11  9 21 22 55 30.0000000  0  8G02G04G30G10G12G05G25G29
  -5823245.48848  -4503609.60546  20782924.8134                   20782922.2544
  16263665.93846  12679844.01644  23093129.9144                   23093132.3324
   7266859.75846   5680212.36743  24301332.2344                   24301335.3714
  -7353629.33647  -5687908.62946  21453083.2584                   21453083.5354
 -19123169.73448 -14853839.71146  20768027.4844                   20768026.5204
 -19676934.26248 -15317265.14146  20770876.7814                   20770876.7424
  -8707333.14547  -6762276.13746  22320835.2894                   22320839.0514
   7439023.89846   5810947.48443  24619229.6484                   24619233.0944
 11  9 21 22 56  0.0000000  0  8G02G04G30G10G12G05G25G29
  -5831281.44548  -4509871.39846  20781395.7974                   20781393.7384
  16316877.71547  12721307.66844  23103256.1094                   23103258.6334
   7144155.30546   5584598.59844  24277982.1334                   24277985.7734
  -7325815.53147  -5666235.55146  21458376.0784                   21458376.8634
 -19156682.76647 -14879953.77746  20761649.6724                   20761649.2034
 -19759813.53548 -15381846.34046  20755105.1094                   20755105.3524
  -8801663.52047  -6835780.23446  22302884.7034                   22302887.4614
   7327684.13746   5724189.40643  24598042.2734                   24598046.9614
 11  9 21 22 56 30.0000000  0  8G02G04G30G10G12G05G25G29
  -5839115.85248  -4515976.12946  20779904.7194                   20779902.7384
  16370106.82847  12762784.80544  23113385.2974                   23113387.1174
   7021784.33646   5489244.67644  24254696.2194                   24254699.1844
  -7297462.04347  -5644141.94545  21463771.8674                   21463772.5744
 -19189598.42647 -14905602.35246  20755386.1174                   20755385.5984
 -19842162.13348 -15446013.99647  20739434.8364                   20739434.7894
  -8895524.22347  -6908918.37146  22285023.9614                   22285026.4614
   7216289.54346   5637388.61744  24576844.0474                   24576848.6914
 11  9 21 22 57  0.0000000  0  8G02G04G30G10G12G05G25G29
  -5846749.34848  -4521924.30146  20778452.3204                   20778449.6844
  16423352.60947  12804274.97344  23123517.8594                   23123519.5864
   6899749.91846   5394153.02044  24231472.7344                   24231476.8754
  -7268570.85547  -5621629.35946  21469269.5394                   21469270.2074
 -19221916.18748 -14930785.03546  20749236.3914                   20749235.8984
 -19923978.20748 -15509766.71146  20723865.6564                   20723865.6764
  -8988912.70747  -6981688.54746  22267252.1644                   22267255.5124
   7104841.04746   5550545.78543  24555636.5634                   24555640.1454
 11  9 21 22 57 30.0000000  0  8G02G04G30G10G12G05G25G29
  -5854184.54748  -4527717.96546  20777037.2974                   20777035.1724
  16476612.07447  12845775.78144  23133653.0634                   23133654.8954
   6778053.21546   5299324.51243  24208315.4144                   24208318.5744
  -7239145.68747  -5598700.67646  21474868.7664                   21474869.6994
 -19253637.31647 -14955502.80946  20743200.0554                   20743199.1684
 -20005261.72748 -15573104.46146  20708397.9614                   20708397.7734
  -9081828.35547  -7054090.27746  22249570.8444                   22249574.2074
   6993337.77346   5463660.28944  24534417.8834                   24534422.4344
 11  9 21 22 58  0.0000000  0  8G02G04G30G10G12G05G25G29
  -5861425.54748  -4533360.30546  20775659.4844                   20775657.3094
  16529881.61747  12887284.43044  23143789.8594                   23143791.9534
   6656693.98046   5204758.99644  24185221.1884                   24185224.3444
  -7209192.05547  -5575360.21145  21480569.0394                   21480568.8364
 -19284764.52747 -14979757.78946  20737276.5864                   20737276.0234
 -20086014.19948 -15636028.41046  20693031.3524                   20693031.3204
  -9174271.99647  -7126124.19946  22231979.4534                   22231982.8164
   6881777.26246   5376730.16844  24513188.8594                   24513192.7974
 11  9 21 22 58 30.0000000  0  8G02G04G30G10G12G05G25G29
  -5868475.08648  -4538853.45746  20774317.9064                   20774315.6254
  16583158.20747  12928798.56644  23153927.6644                   23153929.5744
   6535673.21946   5110457.19543  24162191.5234                   24162194.4224
  -7178713.90647  -5551611.01645  21486368.6024                   21486369.2624
 -19315299.32848 -15003551.14846  20731466.1174                   20731465.2774
 -20166235.50448 -15698538.45346  20677765.7734                   20677765.3284
  -9266243.16447  -7197789.98046  22214477.9224                   22214481.2074
   6770158.61346   5289754.75044  24491948.7344                   24491951.9024
 11  9 21 22 59  0.0000000  0  8G02G04G30G10G12G05G25G29
  -5875336.18748  -4544199.78546  20773012.2114                   20773009.8524
  16636438.99247  12970316.02344  23164066.6094                   23164068.9574
   6414991.62546   5016419.68843  24139227.0704                   24139229.8834
  -7147715.33247  -5527456.31246  21492267.3984                   21492268.4304
 -19345243.82847 -15026884.53546  20725768.0704                   20725767.3634
 -20245926.47748 -15760635.24247  20662601.0164                   20662601.0204
  -9357741.76247  -7269087.53946  22197066.4454                   22197069.3284
   6658479.99246   5202732.60944  24470696.1804                   24470699.8554
 11  9 21 22 59 30.0000000  0  8G02G04G30G10G12G05G25G29
  -5882011.98848  -4549401.70746  20771741.8674                   20771739.4884
  16689720.80547  13011834.26644  23174205.8524                   23174208.1764
   6294649.96546   4922647.07443  24116325.9844                   24116329.0784
  -7116200.76247  -5502899.53946  21498265.0234                   21498265.3244
 -19374599.46947 -15049759.07046  20720181.7194                   20720180.8594
 -20325087.52348 -15822319.11747  20647537.1334                   20647537.0044
  -9448767.71947  -7340016.78546  22179744.4694                   22179747.7384
   6546740.44147   5115662.99244  24449433.6334                   24449437.0634
 11  9 21 23  0  0.0000000  0  8G02G04G30G10G12G05G25G29
  -5888502.00448  -4554458.87146  20770506.5394                   20770504.6524
  16743003.98447  13053353.53544  23184345.6414                   23184348.4264
   6174652.06645   4829142.35543  24093490.5944                   24093494.4804
  -7084171.50847  -5477941.70346  21504359.9454                   21504360.3594
 -19403364.98848 -15072173.77746  20714707.7814                   20714707.2854
 -20403716.07048 -15883588.06247  20632574.5004                   20632574.3484
  -9539317.61747  -7410575.09446  22162513.6804                   22162516.8674
   6434941.54747   5028547.10544  24428158.2894                   24428162.2114
 11  9 21 23  0 30.0000000  0  8G02G04G30G10G12G05G25G29
  -5894809.84848  -4559374.09046  20769306.5084                   20769304.7544
  16796284.93447  13094871.09844  23194484.1954                   23194487.1914
   6054998.17645   4735905.66042  24070721.0234                   24070723.4454
  -7051632.36347  -5452586.55946  21510551.6174                   21510552.3954
 -19431543.20748 -15094130.85246  20709345.8834                   20709345.0824
 -20481812.80148 -15944442.59446  20617713.2894                   20617712.9654
  -9629391.85547  -7480762.77346  22145372.9774                   22145375.6524
   6323081.56347   4941383.61744  24406871.7194                   24406875.1254
 11  9 21 23  1  0.0000000  0  8G02G04G30G10G12G05G25G29
  -5900935.44948  -4564147.29746  20768140.8594                   20768138.8874
  16849563.81646  13136387.05944  23204623.2274                   23204625.7584
   5935692.34845   4642940.16042  24048017.8444                   24048019.5314
  -7018584.34047  -5426834.87545  21516840.1414                   21516840.9264
 -19459132.87148 -15115629.30146  20704095.4064                   20704094.6214
 -20559375.32848 -16004880.87147  20602953.5394                   20602953.0514
  -9718987.21548  -7550577.27746  22128323.5234                   22128326.6094
   6211162.15246   4854173.82044  24385574.1254                   24385578.1374
 11  9 21 23  1 30.0000000  0  8G02G04G30G10G12G05G25G29
  -5906877.23848  -4568777.27746  20767010.1334                   20767008.0474
  16902842.39846  13177902.76644  23214761.7734                   23214765.1804
   5816739.73446   4550249.85242  24025382.5554                   24025384.7154
  -6985027.48847  -5400686.72745  21523226.2194                   21523227.5944
 -19486130.93448 -15136666.76247  20698958.0084                   20698957.4414
 -20636399.62148 -16064899.72747  20588296.0474                   20588296.2384
  -9808098.95748  -7620014.95346  22111366.4694                   22111368.6294
   6099186.75846   4766920.38343  24364265.5164                   24364269.6724
 11  9 21 23  2  0.0000000  0  8G02G04G30G10G12G05G25G29
  -5912640.46948  -4573268.10546  20765913.3444                   20765911.4574
  16956115.42646  13219414.13344  23224899.7034                   23224902.1684
   5698138.79746   4457833.66042  24002812.8204                   24002816.3634
  -6950968.30147  -5374147.15645  21529707.6484                   21529707.8284
 -19512541.87148 -15157246.71146  20693932.0634                   20693931.7074
 -20712888.66448 -16124501.52047  20573740.4534                   20573740.6334
  -9896729.32847  -7689077.51246  22094499.9614                   22094502.7774
   5987151.59446   4679620.36743  24342946.6024                   24342949.2424
 11  9 21 23  2 30.0000000  0  8G02G04G30G10G12G05G25G29
  -5918226.29748  -4577620.71546  20764850.7584                   20764848.2934
  17009381.89147  13260920.41444  23235035.1884                   23235038.6214
   5579892.23446   4365693.58643  23980311.8594                   23980314.9024
  -6916409.25447  -5347218.04345  21536284.0394                   21536283.9224
 -19538365.75848 -15177369.23846  20689017.9384                   20689017.2194
 -20788841.04748 -16183685.13747  20559287.3754                   20559287.0824
  -9984876.32447  -7757763.43746  22077726.4844                   22077729.0314
   5875057.43846   4592274.39543  24321614.2424                   24321618.5984
 11  9 21 23  3  0.0000000  0  8G02G04G30G10G12G05G25G29
  -5923633.03948  -4581833.76646  20763821.7974                   20763819.9344
  17062643.25447  13302422.69144  23245171.2664                   23245174.2704
   5462004.97747   4273833.48044  23957878.8134                   23957881.2974
  -6881350.30947  -5319899.41045  21542955.5634                   21542955.9384
 -19563600.36348 -15197032.57846  20684216.0394                   20684215.6134
 -20864253.11748 -16242447.72347  20544937.0004                   20544936.7304
 -10072535.55147  -7826069.27346  22061044.7664                   22061047.3524
   5762907.13746   4504884.69143  24300273.3754                   24300276.2974
 11  9 21 23  3 30.0000000  0  8G02G04G30G10G12G05G25G29
  -5928862.15648  -4585908.40646  20762826.9774                   20762824.6094
  17115898.10247  13343919.90644  23255305.1564                   23255308.0944
   5344479.55147   4182255.25044  23935513.8134                   23935517.8524
  -6845794.32847  -5292193.50845  21549721.8284                   21549721.9454
 -19588245.99648 -15216236.98846  20679526.2344                   20679525.9184
 -20939123.67648 -16300788.35547  20530689.3524                   20530689.4104
 -10159705.23848  -7893993.66446  22044457.3524                   22044460.3014
   5650701.40246   4417451.75043  24278921.5864                   24278924.7464
 11  9 21 23  4  0.0000000  0  8G02G04G30G10G12G05G25G29
  -5933916.50048  -4589846.85946  20761864.8914                   20761863.0164
  17169143.83247  13385410.00844  23265436.9224                   23265440.3954
   5227316.78947   4090959.64544  23913218.6804                   23913222.7664
  -6809745.54348  -5264103.57045  21556581.5234                   21556581.8094
 -19612304.20748 -15234983.65246  20674947.9534                   20674947.5084
 -21013453.08248 -16358707.30147  20516544.7424                   20516545.1174
 -10246385.21148  -7961536.44546  22027963.0004                   22027965.2234
   5538439.12546   4329974.75043  24257558.7274                   24257561.5354
 11  9 21 23  4 30.0000000  0  8G02G04G30G10G12G05G25G29
  -5938794.71148  -4593648.06646  20760936.4924                   20760933.8714
  17222381.68847  13426893.96144  23275568.5164                   23275571.3244
   5110521.31646   3999950.29744  23890993.3444                   23890996.4064
  -6773204.52347  -5235630.07845  21563534.5004                   21563535.3284
 -19635773.47748 -15253271.40246  20670482.2974                   20670481.1884
 -21087238.22748 -16416202.15647  20502504.0234                   20502503.9804
 -10332571.55948  -8028694.57846  22011562.0234                   22011565.1254
   5426122.80946   4242455.64143  24236185.0234                   24236187.5044
 11  9 21 23  5  0.0000000  0  8G02G04G30G10G12G05G25G29
  -5943498.62148  -4597313.46146  20760041.3674                   20760039.0944
  17275609.99247  13468370.46544  23285698.0474                   23285700.4734
   4994095.24647   3909228.79344  23868837.8754                   23868840.8284
  -6736174.25047  -5206775.35245  21570581.6024                   21570582.3914
 -19658654.44148 -15271100.73046  20666128.2194                   20666127.4964
 -21160478.45348 -16473272.40247  20488566.5394                   20488566.8954
 -10418262.81248  -8095466.94546  21995255.2664                   21995258.5904
   5313752.73446   4154894.60243  24214802.3204                   24214804.3364
 11  9 21 23  5 30.0000000  0  8G02G04G30G10G12G05G25G29
  -5948028.10248  -4600842.93046  20759179.6334                   20759177.5234
  17328828.90247  13509839.67244  23295824.9304                   23295828.1604
   4878042.26647   3818798.02044  23846754.0394                   23846756.9064
  -6698656.32047  -5177540.62145  21577721.1414                   21577721.5554
 -19680946.26648 -15288470.98846  20661885.6564                   20661885.3914
 -21233171.61748 -16529916.36347  20474733.5784                   20474734.1644
 -10503456.04348  -8161851.22346  21979043.4924                   21979046.4804
   5201330.65246   4067293.09444  24193409.2424                   24193412.2274
 11  9 21 23  6  0.0000000  0  8G02G04G30G10G12G05G25G29
  -5952384.40648  -4604237.45346  20758350.2894                   20758348.3324
  17382037.34847  13551300.71544  23305950.1414                   23305952.9654
   4762364.78146   3728659.84044  23824741.0394                   23824744.3204
  -6660653.38747  -5147927.98445  21584952.9534                   21584953.3594
 -19702649.36748 -15305382.50046  20657755.8594                   20657755.2584
 -21305316.66848 -16586133.21947  20461005.1724                   20461005.0234
 -10588149.48048  -8227846.04746  21962927.1094                   21962930.1724
   5088857.35546   3979651.64144  24172006.1724                   24172008.7304
 11  9 21 23  6 30.0000000  0  8G02G04G30G10G12G05G25G29
  -5956565.60248  -4607495.53946  20757554.9614                   20757553.0314
  17435237.34047  13592755.16444  23316073.9924                   23316076.2974
   4647068.33246   3638818.56343  23802800.5554                   23802803.7584
  -6622165.15247  -5117937.18045  21592277.0704                   21592277.0124
 -19723761.05548 -15321833.18046  20653738.6334                   20653738.1604
 -21376909.37948 -16641919.68447  20447380.9304                   20447381.2934
 -10672338.32848  -8293447.69946  21946906.3204                   21946909.0314
   4976336.16446   3891972.87144  24150593.9694                   24150596.9924
 11  9 21 23  7  0.0000000  0  8G02G04G30G10G12G05G25G29
  -5960571.98848  -4610617.39546  20756792.9924                   20756789.8524
  17488428.59447  13634202.81344  23326196.5164                   23326198.9264
   4532156.11346   3549276.69143  23780933.7974                   23780936.5084
  -6583193.48847  -5087569.66445  21599693.2664                   21599693.7194
 -19744281.07848 -15337822.80546  20649834.0164                   20649833.4264
 -21447948.19948 -16697274.53947  20433862.7584                   20433863.2974
 -10756020.05148  -8358654.18446  21930982.3524                   21930985.3834
   4863768.19947   3804257.65244  24129172.8594                   24129175.6334
 11  9 21 23  7 30.0000000  0  8G02G04G30G10G12G05G25G29
  -5964406.79348  -4613605.56246  20756062.6724                   20756060.5514
  17541607.91847  13675641.17644  23336315.6644                   23336317.7854
   4417628.57046   3460034.50843  23759139.6954                   23759142.8914
  -6543743.13747  -5056829.15645  21607200.3754                   21607200.3554
 -19764211.89548 -15353353.30546  20646041.0944                   20646040.0514
 -21518434.03948 -16752198.50847  20420449.5394                   20420450.3714
 -10839195.21148  -8423465.93746  21915154.6024                   21915156.8714
   4751152.20747   3716505.02044  24107742.6644                   24107746.0984
 11  9 21 23  8  0.0000000  0  8G02G04G30G10G12G05G25G29
  -5968069.59848  -4616459.68746  20755365.9064                   20755363.6094
  17594775.79347  13717070.57844  23346433.4224                   23346435.8554
   4303489.41846   3371095.00843  23737420.0084                   23737422.5164
  -6503815.18448  -5025716.48045  21614798.3204                   21614798.3524
 -19783552.58648 -15368423.98046  20642360.9694                   20642360.3954
 -21588364.48848 -16806689.70347  20407142.3524                   20407142.9774
 -10921860.52748  -8487880.41846  21899423.4454                   21899426.6724
   4638490.35546   3628716.68044  24086304.0394                   24086307.5234
 11  9 21 23  8 30.0000000  0  8G02G04G30G10G12G05G25G29
  -5971559.70348  -4619179.25446  20754701.7424                   20754699.0354
  17647933.06647  13758491.74244  23356548.8984                   23356551.4614
   4189742.94146   3282461.47343  23715773.1334                   23715777.2894
  -6463410.91447  -4994232.66045  21622486.6564                   21622486.8594
 -19802301.98048 -15383033.89546  20638792.7894                   20638792.0784
 -21657736.95348 -16860746.10547  20393940.8984                   20393941.7074
 -11004012.52348  -8551894.91446  21883790.2664                   21883793.2274
   4525785.08646   3540894.48044  24064856.4924                   24064859.9844
 11  9 21 23  9  0.0000000  0  8G02G04G30G10G12G05G25G29
  -5974879.86748  -4621766.39546  20754069.9614                   20754066.6094
  17701077.23447  13799902.71143  23366661.7274                   23366663.9884
   4076390.14146   3194134.68843  23694203.2974                   23694207.1454
  -6422534.55947  -4962380.96145  21630265.0784                   21630265.9494
 -19820461.97748 -15397184.54346  20635337.1644                   20635336.2114
 -21726551.78148 -16914367.97747  20380845.9064                   20380846.3364
 -11085651.17648  -8615509.40246  21868255.2274                   21868258.0704
   4413035.27746   3453037.63744  24043401.1024                   24043403.4414
 11  9 21 23  9 30.0000000  0  8G02G04G30G10G12G05G25G29
  -5978028.56648  -4624219.93446  20753470.8054                   20753468.1804
  17754209.93846  13841304.73444  23376772.6414                   23376775.2584
   3963435.93047   3106118.44543  23672709.5554                   23672712.1844
  -6381186.24647  -4930161.52745  21638133.6954                   21638134.8914
 -19838030.51248 -15410874.30546  20631993.9774                   20631993.4884
 -21794805.98048 -16967553.01647  20367857.7114                   20367857.8914
 -11166772.16048  -8678720.51646  21852818.2734                   21852821.6024
   4300244.14846   3365148.57443  24021936.6644                   24021940.0824
 11  9 21 23 10  0.0000000  0  8G02G04G30G10G12G05G25G29
  -4405584.88348  -3398939.14146  21052696.6564                   21052694.5664
  19382750.03946  15110296.93444  23686673.9614                   23686676.2854
   5426308.60246   4246019.25843  23951084.5704                   23951087.4304
  -4763948.26247  -3669976.12145  21945884.5704                   21945884.4614
 -18279585.60948 -14196501.66046  20928556.1724                   20928555.5664
 -20287074.17648 -15792697.00047  20654769.4614                   20654769.4414
  -9671949.18748  -7513923.35946  22137273.7504                   22137276.2194
   5762838.54746   4504832.64143  24300259.2344                   24300262.1644
 11  9 21 23 10 30.0000000  0  8G02G04G30G10G12G05G25G29
  -4408390.84048  -3401125.60946  21052163.2814
  21052160.5634   19435859.54746  15151680.89144  23696780.6644   23696783.3634
   5314161.98846   4158632.33643  23929743.6254                   23929746.2384
  -4721661.34447  -3637025.30145  21953931.1414                   21953931.1174
 -18295970.14148 -14209268.82046  20925438.2894                   20925437.6024
 -20354200.91048 -15845003.48847  20641995.6334                   20641995.5474
  -9752026.87548  -7576321.50046  22122035.1334                   22122038.3524
   5649970.26646   4416883.44143  24278781.4304                   24278783.9384
 11  9 21 23 11  0.0000000  0  8G02G04G30G10G12G05G25G29
  -4411026.43048  -3403179.30946  21051661.3594                   21051658.9184
  19488956.94146                  15193055.39844  23706883.7584   23706888.2814
   5202423.54746   4071563.37943  23908480.8134                   23908482.5864
  -4678908.71547  -3603711.58645  21962066.6724                   21962066.6024
 -18311762.72748 -14221574.74246  20922432.8674                   20922432.1954
 -20420761.98448 -15896869.20347  20629329.3984                   20629329.4654
  -9831579.82848  -7638310.77746  22106897.1174                   22106899.8284
   5537064.95746   4328905.39843  24257295.5234                   24257298.0744
 11  9 21 23 11 30.0000000  0  8G02G04G30G10G12G05G25G29
  -4413493.53548  -3405101.74246  21051191.9304                   21051189.4884
  19542040.41446                  15234419.05144  23716985.7194   23716988.0864
   5091094.69547   3984813.64843  23887296.3054                   23887298.7274
  -4635694.06647  -3570037.85245  21970289.8914                   21970290.7074
 -18326965.07448 -14233420.72346  20919540.2344                   20919539.3524
 -20486757.71948 -15948294.39847  20616770.9694                   20616770.5784
  -9910607.43448  -7699890.68046  22091858.4614                   22091861.3094
   5424122.57447   4240898.41843  24235803.7734                   24235806.0664
 11  9 21 23 12  0.0000000  0  8G02G04G30G10G12G05G25G29
  -4415788.48048  -3406890.01646  21050755.2344                   21050753.0044
  19595113.24647                  15275774.42644  23727085.1414   23727087.6844
   4980182.27347   3898388.39143  23866190.3134                   23866191.8794
  -4592015.69147  -3536002.79745  21978601.7974                   21978602.4924
 -18341573.45748 -14244803.88346  20916760.2344                   20916759.9064
 -20552182.53948 -15999274.72347  20604321.0164                   20604321.1134
  -9989103.48848  -7761056.39846  22076921.0314                   22076923.8594
   5311148.39847   4152866.64543  24214305.7504                   24214307.1054
 11  9 21 23 12 30.0000000  0  8G02G04G30G10G12G05G25G29
  -4417913.90648  -3408546.18746  21050350.7344                   21050348.4414
  19648173.34847                  15317119.88744  23737182.4844   23737185.0634
   4869687.41047   3812288.54744  23845163.6724                   23845166.0234
  -4547877.69547  -3501609.58245  21987000.9304                   21987001.5164
 -18355589.68748 -14255725.62546  20914093.2344                   20914092.2934
 -20617037.05148 -16049810.64547  20591979.6644                   20591979.6884
 -10067067.84848  -7821807.80946  22062084.6724                   22062087.9614
   5198141.45347   4064809.32844  24192801.2814                   24192802.5394
 11  9 21 23 13  0.0000000  0  8G02G04G30G10G12G05G25G29
  -4419869.41048  -3410069.96146  21049978.3914                   21049976.2034
  19701221.06647                  15358455.67244  23747277.2344   23747280.7734
   4759613.67647   3726516.85243  23824217.0634                   23824219.4574
  -4503281.82847  -3466859.59845  21995487.3674                   21995488.0204
 -18369013.29348 -14266185.58246  20911538.5234                   20911537.6844
 -20681319.30948 -16099900.66847  20579747.2734                   20579746.8484
 -10144497.77348  -7882142.78546  22047350.6024                   22047353.3554
   5085103.83647   3976728.12544  24171290.1804                   24171292.5704
 11  9 21 23 13 30.0000000  0  8G02G04G30G10G12G05G25G29
  -4421654.64548  -3411461.05946  21049639.1174                   21049636.3284
  19754257.37947                  15399782.59844  23757369.4924   23757372.8324
   4649965.22747   3641076.54344  23803351.7504                   23803353.6994
  -4458228.95747  -3431753.50045  22004060.7974                   22004061.9224
 -18381843.23448 -14276182.94546  20909097.1484                   20909096.5704
 -20745027.11348 -16149543.07047  20567623.6644                   20567623.4104
 -10221389.96948  -7942058.73846  22032718.4534                   22032720.9574
   4972038.03547   3888625.00044  24149774.7734                   24149776.6604
 11  9 21 23 14  0.0000000  0  8G02G04G30G10G12G05G25G29
  -4423266.80947  -3412717.28946  21049331.8284                   21049329.3244
  19807284.73447                  15441102.52344  23767460.3754   23767463.5554
   4540748.05547   3555972.29744  23782568.9224                   23782570.5664
  -4412718.23447  -3396290.63345  22012720.7664                   22012721.7584
 -18394076.82848 -14285715.61746  20906769.3984                   20906768.6294
 -20808155.80548 -16198734.19547  20555610.7504                   20555610.3204
 -10297739.34448  -8001551.72346  22018189.4844                   22018191.8594
   4858948.36747   3800503.25844  24128254.6644                   24128256.2974
 11  9 21 23 14 30.0000000  0  8G02G04G30G10G12G05G25G29
  -4424710.58247  -3413842.31646  21049057.3524                   21049054.9344
  19860298.75847                  15482412.09044  23777548.9614   23777551.7194
   4431960.61746   3471202.90644  23761866.5314                   23761869.2974
  -4366756.39847  -3360476.25045  22021467.5704                   22021467.8674
 -18405718.43448 -14294787.00846  20904553.8134                   20904553.3914
 -20870708.53948 -16247476.52047  20543707.3524                   20543707.2894
 -10373548.13748  -8060623.46946  22003763.5554                   22003766.5704
   4745832.16047   3712360.83644  24106729.3594                   24106732.0514
 11  9 21 23 15  0.0000000  0  8G02G04G30G10G12G05G25G29
  -4425984.96148  -3414835.32846  21048814.7974                   21048812.4414
  19913300.52747                  15523712.09044  23787634.6724   23787637.9144
   4323607.50046   3386771.98044  23741247.6724                   23741251.1914
  -4320344.27747  -3324311.00445  22030299.1484                   22030299.8324
 -18416766.87148 -14303396.18746  20902451.4614                   20902450.8634
 -20932682.87148 -16295768.16447  20531914.1484                   20531913.6684
 -10448812.76648  -8119271.18446  21989441.1804                   21989443.4844
   4632692.15647   3624199.91444  24085199.3834                   24085202.3834
 11  9 21 23 15 30.0000000  0  8G02G04G30G10G12G05G25G29
  -4427089.36348  -3415695.89846  21048604.7504                   21048602.2584
  19966290.66847                  15565003.05544  23797718.6484   23797721.9494
   4215692.28546   3302682.28144  23720712.0864                   23720715.3324
  -4273483.38347  -3287796.05945  22039216.7814                   22039216.8954
 -18427221.77348 -14311542.86346  20900461.8364                   20900461.0864
 -20994076.61348 -16343607.39147  20520230.9534                   20520231.0824
 -10523530.55948  -8177492.80146  21975222.9924                   21975225.7234
   4519530.16047   3536021.84444  24063665.3674                   24063668.6214
 11  9 21 23 16  0.0000000  0  8G02G04G30G10G12G05G25G29
  -4428027.52348  -3416426.93446  21048426.0004                   21048423.7074
  20019266.10947                  15606282.54344  23807799.7114   23807803.6604
   4108215.11747   3218933.93844  23700258.8984                   23700262.1054
  -4226178.79747  -3250935.37945  22048218.4224                   22048218.9224
 -18437085.69548 -14319229.04346  20898584.9144                   20898584.3914
 -21054891.27748 -16390995.39147  20508658.2194                   20508657.7894
 -10597702.11348  -8235288.79746  21961108.5864                   21961111.4264
   4406344.99646   3447825.70344  24042126.1024                   24042129.6684
 11  9 21 23 16 30.0000000  0  8G02G04G30G10G12G05G25G29
  -4428799.44147  -3417028.43046  21048279.4774                   21048276.8364
  20072226.42647                  15647550.27044  23817878.0314   23817881.8014
   4001178.97347   3135529.23444  23679891.2114                   23679893.1214
  -4178432.69147  -3213730.65245  22057303.6094                   22057305.2344
 -18446359.45348 -14326455.35546  20896820.2274                   20896819.6454
 -21115125.92248 -16437931.41847  20497195.9224                   20497195.6684
 -10671325.57448  -8292657.68046  21947098.3204                   21947100.8754
   4293138.16447   3359612.73444  24020583.6644                   24020586.8834
 11  9 21 23 17  0.0000000  0  8G02G04G30G10G12G05G25G29
  -4429405.68447  -3417500.81646  21048164.0004                   21048161.4454
  20125171.85247                  15688806.39144  23827953.0864   23827956.6414
   3894586.74647   3052470.44544  23659607.3444                   23659609.8954
  -4130247.38347  -3176183.70345  22066473.7734                   22066473.8524
 -18455043.34448 -14333222.02346  20895167.9694                   20895167.0594
 -21174779.03148 -16484414.30547  20485844.5394                   20485844.2154
 -10744398.82848  -8349597.85546  21933193.1094                   21933195.6724
   4179910.85546   3271383.75444  23999037.3364                   23999040.2664
 11  9 21 23 17 30.0000000  0  8G02G04G30G10G12G05G25G29
  -4429847.79347  -3417845.30946  21048080.1094                   21048077.7704
  20178100.65246                  15730049.57043  23838025.5004   23838028.1414
   3788440.14547   2969758.89544  23639408.5864                   23639411.2704
  -4081626.18447  -3138297.07845  22075725.8914                   22075726.3404
 -18463138.53548 -14339529.94946  20893627.3444                   20893626.3554
 -21233850.82047 -16530444.21947  20474603.2814                   20474602.9064
 -10816921.12948  -8406108.71146  21919392.4304                   21919395.0044
   4066663.64147   3183139.28944  23977487.5394                   23977490.8674
 11  9 21 23 18  0.0000000  0  8G02G04G30G10G12G05G25G29
  -4430124.70347  -3418061.07446  21048027.1484                   21048024.9344
  20231013.69146                  15771280.44144  23848093.7664   23848097.7544
   3682743.04347   2887397.65644  23619294.5474                   23619297.8554
  -4032570.75047  -3100072.09845  22085060.6334                   22085061.6254
 -18470644.48048 -14345378.73846  20892199.1804                   20892197.9774
 -21292339.16848 -16576019.50847  20463473.4304                   20463472.8204
 -10888889.48848  -8462187.90646  21905697.2274                   21905699.8954
   3953398.78547   3094881.09444  23955933.5234                   23955936.2854
 11  9 21 23 18 30.0000000  0  8G02G04G30G10G12G05G25G29
  -4430237.63748  -3418149.06246  21048005.6414                   21048003.2234
  20283910.22746                  15812498.44943  23858159.4224   23858163.0864
   3577497.61747   2805388.33644  23599267.0634                   23599269.3054
  -3983084.02047  -3061511.04345  22094477.6414                   22094478.9064
 -18477562.16848 -14350769.14146  20890882.4384                   20890881.7704
 -21350243.98848 -16621140.10247  20452454.5554                   20452454.2934
 -10960302.64148  -8517834.48846  21892107.9534                   21892110.7344
   3840116.93847   3006609.60544  23934376.6564                   23934379.4694
 11  9 21 23 19  0.0000000  0  8G02G04G30G10G12G05G25G29
  -4430188.35248  -3418110.66046  21048014.6804                   21048012.1134
  20336788.58646                  15853702.28943  23868222.2034   23868225.5554
   3472705.54747   2723732.26244  23579326.4304                   23579328.0664
  -3933169.26647  -3022616.46545  22103976.0394                   22103976.9454
 -18483893.82448 -14355702.90246  20889677.6564                   20889677.1884
 -21407565.03948 -16665805.79747  20441546.4304                   20441546.4614
 -11031159.96548  -8573047.95346  21878623.9844                   21878626.5394
   3726818.32447   2918325.07444  23912816.6334                   23912818.8954
 11  9 21 23 19 30.0000000  0  8G02G04G30G10G12G05G25G29
  -4429976.23448  -3417945.36746  21048055.5554                   21048052.9494
  20389649.84046                  15894892.80943  23878282.1174   23878285.0204
   3368370.66847   2642432.46143  23559471.3674                   23559473.6054
  -3882827.69147  -2983389.29745  22113556.3204                   22113557.0434
 -18489638.37948 -14360179.17646  20888584.2504                   20888583.6334
 -21464300.20348 -16710014.96147  20430750.2894                   20430750.0634
 -11101458.46948  -8627825.97746  21865246.8284                   21865248.7344
   3613505.84447   2830029.77044  23891253.8914                   23891256.7234
 11  9 21 23 20  0.0000000  0  8G02G04G30G10G12G05G25G29
  -4429602.69548  -3417654.30146  21048126.4454                   21048124.3834
  20442492.78546                  15936069.05143  23888337.5314   23888340.8674
   3264494.69147   2561490.25844  23539704.5084                   23539706.2894
  -3832063.01247  -2943832.44545  22123216.4224                   22123217.2154
 -18494797.74248 -14364199.43746  20887602.6564                   20887601.9654
 -21520450.00048 -16753768.00447  20420065.3364                   20420064.8204
 -11171197.48848  -8682168.03546  21851975.5554                   21851978.0944
   3500179.89147   2741723.96544  23869688.5314                   23869691.2774
 11  9 21 23 20 30.0000000  0  8G02G04G30G10G12G05G25G29
  -4429065.03948  -3417235.33246  21048228.8204                   21048226.9384
  20495320.12246                  15977233.11343  23898389.9614   23898393.7074
   3161083.38747   2480910.08243  23520025.8204                   23520027.6884
  -3780874.43747  -2903945.26245  22132957.2974                   22132957.8834
 -18499368.95748 -14367761.41446  20886732.6804                   20886731.7194
 -21576010.20748 -16797061.62147  20409492.5864                   20409492.2074
 -11240372.11348  -8736070.30946  21838812.3594                   21838814.3754
   3386844.53547   2653410.81644  23848121.2584                   23848123.3134
 11  9 21 23 21  0.0000000  0  8G02G04G30G10G12G05G25G29
  -4428366.67248  -3416691.14546  21048361.7894                   21048358.9734
  20548128.61746                  16018382.55543  23908438.3204   23908442.2814
   3058136.51647   2400691.87543  23500435.3284                   23500437.5664
  -3729267.27347  -2863731.89545  22142778.0314                   22142778.7194
 -18503355.77048 -14370868.02046  20885974.1334                   20885973.6374
 -21630983.16848 -16839897.64147  20399031.3674                   20399030.8164
 -11308983.64548  -8789533.81646  21825755.4614                   21825758.6294
   3273498.51647   2565089.37944  23826552.2894                   23826555.2194
 11  9 21 23 21 30.0000000  0  8G02G04G30G10G12G05G25G29
  -4427507.05548  -3416021.30546  21048525.2114                   21048522.6564
  20600918.98047                  16059517.81644  23918485.1334   23918487.9264
   2955657.62947   2320838.29743  23480934.5164                   23480935.5634
  -3677243.50047  -2823193.92245  22152677.6724                   22152678.2584
 -18506757.62948 -14373518.81246  20885326.6334                   20885326.4844
 -21685367.00848 -16882274.61347  20388682.4224                   20388681.9104
 -11377029.49248  -8842556.51646  21812807.1094                   21812809.5904
   3160144.03546   2476761.34044  23804980.8754                   23804984.6254
 11  9 21 23 22  0.0000000  0  8G02G04G30G10G12G05G25G29
  -4426487.66048  -3415226.97746  21048719.5314                   21048717.0234
  20653689.92246                  16100637.94943  23928527.7504   23928530.4344
   2853648.24647   2241350.61744  23461522.3134                   23461524.7504
  -3624806.38347  -2782333.87145  22162656.3524                   22162656.8834
 -18509576.08648 -14375715.00846  20884790.4064                   20884789.7034
 -21739161.94548 -16924192.69547  20378445.6094                   20378444.6054
 -11444509.07848  -8895137.98846  21799966.2504                   21799968.5984
   3046781.54347   2388427.05944  23783409.5784                   23783412.2304
 11  9 21 23 22 30.0000000  0  8G02G04G30G10G12G05G25G29
  -4425307.82448  -3414307.62946  21048943.6644                   21048941.5664
  20706442.30146                  16141743.62143  23938565.0784   23938568.5744
   2752112.25047   2162231.78944  23442201.1644                   23442202.4104
  -3571957.34447  -2741152.82045  22172712.4924                   22172713.6684
 -18511811.87148 -14377457.17246  20884364.7664                   20884364.2624
 -21792366.11348 -16965650.43047  20368320.7894                   20368320.5004
 -11511419.65248  -8947276.06246  21787233.5234                   21787236.0274
   2933413.16447   2300088.23444  23761836.2814                   23761838.0514
 11  9 21 23 23  0.0000000  0  8G02G04G30G10G12G05G25G29
  -4423971.53548  -3413266.35546  21049198.0164                   21049196.0554
  20759172.58646                  16182832.09443  23948599.9144   23948602.5164
   2651048.95347   2083481.26244  23422968.8914                   23422970.3554
  -3518701.76647  -2699655.00845  22182846.8204                   22182848.1024
 -18513468.48448 -14378748.04746  20884049.7194                   20884048.8244
 -21844981.83248 -17006649.63347  20358308.6414                   20358308.3754
 -11577762.80148  -8998971.98846  21774608.9694                   21774611.4654
   2820037.25847   2211743.52744  23740261.5944                   23740262.5664
 11  9 21 23 23 30.0000000  0  8G02G04G30G10G12G05G25G29
  -4422477.99648  -3412102.56646  21049481.8444                   21049480.4884
  20811881.65247                  16223904.02743  23958630.2584   23958632.3954
   2550462.08247   2005102.03944  23403827.3444                   23403830.2034
  -3465041.29347  -2657841.67645  22193058.4614                   22193058.8014
 -18514544.89548 -14379586.80546  20883844.5554                   20883844.5824
 -21897007.60948 -17047189.15647  20348408.7584                   20348408.0634
 -11643535.82848  -9050223.66046  21762092.6334                   21762094.7464
   2706655.98446   2123394.63744  23718685.0944                   23718686.6454
 11  9 21 23 24  0.0000000  0  8G02G04G30G10G12G05G25G29
  -4420826.66848  -3410815.83246  21049796.3754                   21049794.4654
  20864570.03547                  16264959.87143  23968656.6254   23968659.2974
   2450354.94147   1927096.55944  23384777.8524                   23384780.3874
  -3410977.96947  -2615714.41445  22203346.3054                   22203347.2194
 -18515042.34448 -14379974.43446  20883750.1564                   20883749.4964
 -21948442.14848 -17087267.95747  20338620.6954                   20338620.1724
 -11708736.50448  -9101029.34846  21749685.2114                   21749687.4494
   2593271.98447   2035043.65244  23697108.5474                   23697110.8404
 11  9 21 23 24 30.0000000  0  8G02G04G30G10G12G05G25G29
  -4419020.66847  -3409408.57046  21050140.1804                   21050137.9414
  20917235.03546                  16305997.43843  23978678.4694   23978681.1884
   2350727.65647   1849465.02744  23365819.4064                   23365821.5634
  -3356516.58647  -2573276.99645  22213709.9534                   22213710.6484
 -18514963.55547 -14379913.04346  20883765.2734                   20883764.9184
 -21999287.09448 -17126887.33247  20328945.0004                   20328944.7584
 -11773365.73848  -9151389.74646  21737386.6094                   21737389.5204
   2479884.14547   1946689.73044  23675531.6334                   23675533.8324
 11  9 21 23 25  0.0000000  0  8G02G04G30G10G12G05G25G29
  -4417057.58247  -3407878.89846  21050513.5394                   21050511.0594
  20969879.19947                  16347018.80143  23988695.9694   23988699.4494
   2251585.40247   1772211.45344  23346952.8284                   23346955.6804
  -3301657.05147  -2530529.35245  22224149.6804                   22224150.0594
 -18514306.71947 -14379401.23446  20883890.5864                   20883889.6294
 -22049539.21948 -17166044.77347  20319382.5004                   20319382.2664
 -11837419.38348  -9201301.62546  21725197.5004                   21725200.1994
   2366496.61347   1858335.97344  23653953.9064                   23653956.1294
 11  9 21 23 25 30.0000000  0  8G02G04G30G10G12G05G25G29
  -4414939.06248  -3406228.12546  21050916.9614                   21050914.5084
  21022500.91847                  16388022.72343  23998709.5634   23998713.4534
   2152929.43447   1695336.81344  23328179.6804                   23328181.6914
  -3246403.32847  -2487474.53145  22234663.9774                   22234664.7934
 -18513074.07048 -14378440.73846  20884124.8524                   20884123.9774
 -22099199.23848 -17204740.84447  20309932.4614                   20309932.0904
 -11900897.28548  -9250764.88746  21713117.8204                   21713120.5394
   2253109.43047   1769982.47344  23632377.2974                   23632379.9454
 11  9 21 23 26  0.0000000  0  8G02G04G30G10G12G05G25G29
  -4412669.63747  -3404459.73846  21051348.7194                   21051346.5704
  21075096.09847                  16429005.91843  24008718.4304   24008722.4574
   2054758.48847   1618840.09044  23309497.9384                   23309499.8674
  -3190761.54747  -2444117.33245  22245251.8524                   22245252.7344
 -18511270.11348 -14377035.07846  20884468.1094                   20884467.7854
 -22148270.33248 -17242978.00047  20300594.3914                   20300593.7544
 -11963801.73048  -9299781.28946  21701147.7274                   21701149.8874
   2139719.65647   1681627.00444  23610799.6024                   23610802.8364
 11  9 21 23 26 30.0000000  0  8G02G04G30G10G12G05G25G29
  -4410246.72348  -3402571.76246  21051809.5634                   21051807.4884
  21127667.34447                  16469970.48843  24018722.5474   24018725.5204
   1957077.72347   1542725.33644  23290909.9614                   23290912.0554
  -3134731.59447  -2400457.64545  22255914.4224                   22255915.0864
 -18508893.10248 -14375182.87146  20884920.5554                   20884919.5984
 -22196749.30948 -17280753.77347  20291369.2274                   20291368.7704
 -12026128.64148  -9348347.66446  21689287.3914                   21689289.8204
   2026332.39547   1593273.46544  23589223.2814                   23589225.8284
 11  9 21 23 27  0.0000000  0  8G02G04G30G10G12G05G25G29
  -4407671.86348  -3400565.39846  21052299.5634                   21052297.5164
  21180213.56347                  16510915.53943  24028721.9304   24028724.7624
   1859888.64147   1466993.69544  23272414.8754                   23272417.4224
  -3078317.17647  -2356498.37545  22266649.2584                   22266650.1684
 -18505945.19548 -14372885.82446  20885481.3134                   20885480.8134
 -22244636.30948 -17318068.27047  20282256.5474                   20282256.2034
 -12087877.52348  -9396463.62546  21677537.0554                   21677539.3674
   1912947.93447   1504922.08644  23567646.5004                   23567649.3714
 11  9 21 23 27 30.0000000  0  8G02G04G30G10G12G05G25G29
  -4404943.43048  -3398439.33646  21052818.8364                   21052816.3754
  21232736.27046                  16551842.28143  24038716.2424   24038720.1174
   1763195.57847   1391648.55944  23254015.6024                   23254017.8054
  -3021518.63747  -2312239.80545  22277457.9384                   22277459.2114
 -18502425.54348 -14370143.25846  20886151.0474                   20886150.3794
 -22291929.68748 -17354920.19147  20273256.7974                   20273256.3594
 -12149045.19148  -9444126.67646  21665897.2344                   21665899.5274
   1799569.43847   1416575.36744  23546071.6954                   23546072.9024
 11  9 21 23 28  0.0000000  0  8G02G04G30G10G12G05G25G29
  -4402063.91447  -3396195.58246  21053366.8204                   21053364.6174
  21285233.73847                  16592749.34043  24048706.1094   24048710.0514
   1666999.30947   1316690.50444  23235710.1174                   23235712.2704
  -2964340.42247  -2267685.39145  22288338.6884                   22288340.2894
 -18498336.75847 -14366957.21546  20886929.4304                   20886928.8244
 -22338630.30948 -17391310.23847  20264370.0554                   20264369.4654
 -12209632.00048  -9491337.12146  21654367.7114                   21654370.2734
   1686196.70347   1328233.09444  23524496.5864                   23524498.6954
 11  9 21 23 28 30.0000000  0  8G02G04G30G10G12G05G25G29
  -4399034.54748  -3393835.03546  21053943.4224                   21053940.7424
  21337704.52747                  16633635.62543  24058691.6254   24058694.9304
   1571301.09047   1242120.58644  23217498.8834                   23217500.4884
  -2906786.12947  -2222837.93445  22299291.1254                   22299291.8134
 -18493680.88348 -14363329.27746  20887815.2504                   20887815.1684
 -22384738.99248 -17427239.02347  20255595.7194                   20255595.1254
 -12269637.71548  -9538094.74246  21642949.0084                   21642951.2934
   1572830.03147   1239895.55145  23502923.8364                   23502926.0944
 11  9 21 23 29  0.0000000  0  8G02G04G30G10G12G05G25G29
  -4395855.13348  -3391357.56646  21054548.5784                   21054546.0824
  21390149.48846                  16674501.75043  24068671.0314   24068674.7234
   1476104.30147   1167941.35944  23199383.5314                   23199385.3794
  -2848857.88347  -2177699.09045  22310314.7274                   22310315.3634
 -18488457.87548 -14359259.43046  20888809.1884                   20888808.5474
 -22430254.11348 -17462705.30547  20246934.4534                   20246933.9304
 -12329060.09848  -9584397.84046  21631641.2034                   21631643.5474
   1459472.02347   1151564.78544  23481352.7424                   23481355.0664
 11  9 21 23 29 30.0000000  0  8G02G04G30G10G12G05G25G29
  -4392524.84848  -3388762.53146  21055181.9384                   21055180.1414
  21442568.88746                  16715347.96943  24078646.4614   24078649.9884
   1381411.69547   1094155.00444  23181364.1254                   23181365.2974
  -2790557.55147  -2132270.32045  22321408.8054                   22321409.1484
 -18482668.96948 -14354748.60546  20889910.8364                   20889910.4414
 -22475175.12548 -17497708.63347  20238386.2974                   20238385.6054
 -12387897.53148  -9630245.13746  21620444.7734                   21620447.1804
   1346124.45347   1063242.10545  23459783.6564                   23459785.9384
 11  9 21 23 30  0.0000000  0  8G02G04G30G10G12G05G25G29
  -4389046.03947  -3386051.76246  21055844.1414                   21055841.9024
  21494961.02747                  16756172.93843  24088616.6414   24088620.3444
   1287224.13747   1020762.16044  23163441.0784                   23163441.4494
  -2731889.23047  -2086554.78945  22332573.2274                   22332573.6994
 -18476316.48448 -14349798.64146  20891119.7814                   20891119.2074
 -22519503.21548 -17532249.95747  20229950.7424                   20229950.0274
 -12446150.24647  -9675636.81246  21609359.4534                   21609362.0944
   1232787.34847    974927.56645  23438215.7424                   23438218.3404
 11  9 21 23 30 30.0000000  0  8G02G04G30G10G12G05G25G29
  -4385418.48447  -3383225.08646  21056534.3204                   21056532.0704
  21547326.44146                  16796977.12143  24098581.0394   24098585.3324
   1193544.81647    947765.39144  23145613.7894                   23145616.0434
  -2672854.36347  -2040553.64545  22343807.0704                   22343808.1294
 -18469400.76648 -14344409.77346  20892435.7114                   20892435.1094
 -22563237.29748 -17566328.40247  20221628.4144                   20221627.9264
 -12503816.22347  -9720571.28146  21598386.0554                   21598388.5594
   1119462.96947    886622.98044  23416650.9144                   23416652.4414
 11  9 21 23 31  0.0000000  0  8G02G04G30G10G12G05G25G29
  -4381643.64148  -3380283.62946  21057252.4924                   21057250.2814
  21599663.77346                  16837759.41843  24108539.7664   24108545.0124
   1100374.68847    875165.39544  23127884.4384                   23127886.0314
  -2613457.50047  -1994270.43745  22355109.7114                   22355110.7344
 -18461924.41048 -14338584.05546  20893858.1564                   20893857.9734
 -22606378.33248 -17599944.75047  20213418.9694                   20213418.5204
 -12560895.62948  -9765048.67646  21587523.8984                   21587526.0634
   1006151.59047    798328.50445  23395088.9534                   23395090.6994
 11  9 21 23 31 30.0000000  0  8G02G04G30G10G12G05G25G29
  -4377724.35248  -3377229.62946  21057998.2974                   21057995.8674
  21651970.93446                  16878518.19943  24118493.9924   24118498.6954
   1007714.02747    802962.37144  23110251.3914                   23110253.1764
  -2553703.10947  -1947708.64145  22366481.2664                   22366481.4494
 -18453890.53148 -14332323.90246  20895387.0004                   20895386.6524
 -22648927.96548 -17633100.26647  20205321.6414                   20205321.4064
 -12617389.21148  -9809069.59446  21576773.9534                   21576775.9844
    892852.62947    710043.70344  23373528.3674                   23373529.2934
 11  9 21 23 32  0.0000000  0  8G02G04G30G10G12G05G25G29
  -4373660.08248  -3374062.65246  21058772.1564                   21058769.3914
  21704248.03546                  16919253.52043  24128442.5634   24128446.4964
    915565.59047    731158.49244  23092716.8984                   23092717.5474
  -2493593.34847  -1900869.92245  22377919.0084                   22377920.4844
 -18445300.01248 -14325630.01246  20897022.0084                   20897021.5164
 -22690885.71548 -17665794.56247  20197337.8134                   20197337.0664
 -12673295.58648  -9852632.93446  21566135.4384                   21566137.5354
    779568.11347    621770.14544  23351970.6884                   23351972.1294
 11  9 21 23 32 30.0000000  0  8G02G04G30G10G12G05G25G29
  -4369450.56647  -3370782.48446  21059573.1804                   21059570.7544
  21756495.31346                  16959965.63743  24138384.6414   24138388.8244
    823932.17247    659755.90644  23075278.9454                   23075280.5824
  -2433130.19947  -1853755.84844  22389425.1254                   22389426.1174
 -18436153.70348 -14318503.02746  20898762.5314                   20898761.8284
 -22732251.40648 -17698027.51647  20189466.0704                   20189465.3834
 -12728613.12148  -9895737.43446  21555608.5944                   21555610.6484
    666300.12147    533509.51644  23330416.4384                   23330418.4614
 11  9 21 23 33  0.0000000  0  8G02G04G30G10G12G05G25G29
  -4365096.82848  -3367389.93446  21060401.4924                   21060398.7774
  21808712.67246                  17000654.45743  24148321.8524   24148324.7704
    732815.59446    588756.06644  23057939.5784                   23057941.5234
  -2372316.45747  -1806368.57444  22400997.6174                   22400998.7774
 -18426452.97348 -14310944.01646  20900608.3054                   20900607.9064
 -22773024.54348 -17729798.75847  20181707.3524                   20181706.5434
 -12783340.94948  -9938382.44946  21545194.1414                   21545196.2344
    553049.83246    445262.63744  23308865.7894                   23308867.1804
 11  9 21 23 33 30.0000000  0  8G02G04G30G10G12G05G25G29
  -4360600.88348  -3363886.59446  21061256.4534                   21061254.5124
  21860898.03146                  17041318.32443  24158252.2424   24158255.7194
    642216.39146    518159.38744  23040698.9144                   23040700.5784
  -2311156.75447  -1758711.71944  22412635.5084                   22412636.2734
 -18416200.86748 -14302955.37946  20902559.4064                   20902559.0234
 -22813206.85548 -17761109.60247  20174060.6414                   20174060.0664
 -12837479.87148  -9980568.56646  21534891.3594                   21534893.5904
    439817.12547    357029.46144  23287317.5084                   23287319.4414
 11  9 21 23 34  0.0000000  0  8G02G04G30G10G12G05G25G29
  -4355963.48048  -3360273.01646  21062139.2664                   21062136.4414
  21913050.84446                  17081956.81343  24168176.7344   24168180.4184
    552136.45346    447967.30544  23023557.5314                   23023559.3674
  -2249654.16447  -1710787.69945  22424339.5944                   22424340.6174
 -18405399.05548 -14294538.38746  20904615.1484                   20904614.7274
 -22852798.64848 -17791960.31247  20166526.5394                   20166525.6054
 -12891029.15648 -10022295.22346  21524701.6884                   21524704.0124
    326603.43847    268811.11744  23265773.4454                   23265775.4884
 11  9 21 23 34 30.0000000  0  9G02G04G30G10G12G26G05G25G29
  -4351189.27348  -3356552.84046  21063047.8834                   21063044.8364
  21965166.94946                  17122566.73043  24178093.8204   24178097.4024
    462573.61347    378178.18444  23006514.5864                   23006515.9024
  -2187815.72747  -1662601.94945  22436107.0634                   22436108.3834
 -18394053.30948 -14285697.55146  20906773.8284                   20906773.2734
                                  24679877.711
 -22891803.90648 -17822353.96947  20159104.0164                   20159103.2344
 -12943992.11748 -10063565.01246  21514622.7734                   21514625.6374
    213405.41846    180604.95745  23244233.1564                   23244235.0124
 11  9 21 23 35  0.0000000  0  9G02G04G30G10G12G26G05G25G29
  -4346288.46148  -3352734.02046  21063980.8524                   21063978.1954
  22017236.21146                  17163140.12943  24188002.2894   24188006.0784
    373520.05947    308785.90244  22989567.5554                   22989569.1414
  -2125653.67247  -1614164.03145  22447936.1564                   22447937.4384
 -18382175.31648 -14276441.98046  20909034.2504                   20909034.0474
   9088409.43846   7102683.27353  24656273.5314                   24656281.0554
 -22930232.90248 -17852298.59447  20151791.2734                   20151790.6294
 -12996377.74248 -10104384.92246  21504654.2344                   21504656.5634
    100215.17646     92404.90245  23222693.8524                   23222695.1994
 11  9 21 23 35 30.0000000  0  9G02G04G30G10G12G26G05G25G29
  -4341260.10248  -3348815.79346  21064937.1724                   21064934.9654
  22069259.78546                  17203677.93443  24197902.6724   24197905.3714
    284979.44947    239793.28944  22972718.8444                   22972720.5004
  -2063169.31247  -1565474.97344  22459826.1954                   22459827.9224
 -18369764.66848 -14266771.36746  20911395.8134                   20911395.2194
   8964239.36347   7005927.71144  24632643.9924                   24632651.6174
 -22968084.18048 -17881793.05547  20144588.4304                   20144587.6844
 -13048183.65648 -10144753.13346  21494796.1954                   21494798.0594
    -12964.47347      4213.06645  23201156.5004                   23201157.5234
 11  9 21 23 36  0.0000000  0  9G02G04G30G10G12G26G05G25G29
  -4336101.78548  -3344796.32846  21065918.6804                   21065916.2344
  22121240.48846                  17244182.36743  24207794.0314   24207797.2974
    196956.65647    171204.17644  22955968.6484                   22955970.5204
  -2000362.36747  -1516534.54744  22471778.4774                   22471778.7504
 -18356820.05948 -14256684.65646  20913859.0234                   20913858.6604
   8839963.39147   6909089.62144  24608995.3364                   24609002.5784
 -23005354.72348 -17910834.99647  20137495.7034                   20137495.1334
 -13099406.16848 -10184666.73846  21485048.7114                   21485050.7934
   -126129.04747    -83966.99244  23179621.7814                   23179622.3754
 11  9 21 23 36 30.0000000  0  9G02G04G30G10G12G26G05G25G29
  -4330810.15248  -3340672.96546  21066925.5864                   21066923.5634
  22173181.99246                  17284656.20343  24217678.3054   24217681.6524
    109457.32047    103022.95744  22939318.4534                   22939320.3204
  -1937232.25847  -1467342.28544  22483792.0704                   22483791.9534
 -18343339.35248 -14246180.21946  20916424.5314                   20916424.3594
   8715588.27346   6812174.28143  24585326.8284                   24585333.8594
 -23042040.94148 -17939421.60547  20130515.0234                   20130513.9534
 -13150040.84848 -10224122.29746  21475413.1564                   21475415.4064
   -239273.25447   -172131.19945  23158091.1804                   23158092.0314
 11  9 21 23 37  0.0000000  0  9G02G04G30G10G12G26G05G25G29
  -2749962.84848  -2108843.90246  21367751.2344   21367748.6684   23800504.91046
  18552700.00043                  24527347.2584                   24527350.1294
   1597909.21547   1262855.65644  23222561.5314                   23222562.7344
   -298361.08247   -190299.85545  22795658.7034                   22795659.7734
 -16753901.57048 -13007657.28546  21218884.3594                   21218884.0004
  10166544.19146   7942789.60943  24861433.9614                   24861441.2544
 -21502719.03948 -16739949.94547  20423437.7974                   20423437.0394
 -11624662.35548  -9035515.63346  21765682.7814                   21765685.0904
   1223030.92647    967326.72345  23436358.0474                   23436359.4534
 11  9 21 23 37 30.0000000  0  9G02G04G30G10G12G26G05G25G29
  -2744398.91048  -2104508.36746  21368809.8914   21368807.4614   23852373.78546
  18593117.27043                  24537217.4924                   24537221.4534
   1511469.66846   1195500.23044  23206112.0474                   23206114.0514
   -234585.83647   -140604.90244  22807794.1644                   22807796.0354
 -16739346.33648 -12996315.55146  21221654.5004                   21221653.7624
  10041986.92646   7845732.35943  24837730.5864                   24837737.8834
 -21538230.37548 -16767621.06647  20416680.1804                   20416679.6134
 -11674112.10948  -9074047.88746  21756273.0164                   21756275.4264
   1109938.68447    879203.01645  23414837.4844                   23414838.7464
 11  9 21 23 38  0.0000000  0  9G02G04G30G10G12G26G05G25G29
  -2738699.38348  -2100067.17246  21369894.3364   21369892.0474   23904206.40647
  18633506.32443                  24547081.3834                   24547084.7274
   1425563.05947   1128560.09044  23189764.8754                   23189766.5044
   -170492.16047    -90661.82044  22819990.7034                   22819992.3054
 -16724256.15648 -12984556.98046  21224525.8284                   21224525.5634
   9917343.45346   7748607.89142  24814011.9534                   24814017.9344
 -21573154.44548 -16794834.59047  20410034.4844                   20410033.6134
 -11722968.21148  -9112117.55146  21746975.8594                   21746978.1334
    996874.82447    791101.43045  23393321.4454                   23393323.1914
 11  9 21 23 38 30.0000000  0  9G02G04G30G10G12G26G05G25G29
  -2732866.49647  -2095522.06246  21371004.4924   21371002.4304   23956000.59847
  18673865.48043                  24556937.5944                   24556940.5084
   1340189.49647   1062035.29344  23173518.8284                   23173520.0314
   -106084.46147    -40474.02344  22832247.3984                   22832248.6884
 -16708634.71548 -12972384.43446  21227498.2274                   21227498.0784
   9792615.13747   7651417.28543  24790276.8674                   24790283.8754
 -21607493.32848 -16821592.11347  20403499.7734                   20403499.0784
 -11771231.79348  -9149725.52346  21737791.6724                   21737793.9964
    883839.04747    703021.73445  23371811.7814                   23371813.1884
 11  9 21 23 39  0.0000000  0  9G02G04G30G10G12G26G05G25G29
  -2726898.32448  -2090871.53946  21372139.8984   21372138.1254   24007758.66446
  18714196.44143                  24566785.7114                   24566789.7774
   1255353.20347    995929.18444  23157374.3054                   23157376.7034
    -41363.33647      9958.00044  22844563.8594                   22844564.8634
 -16692480.92648 -12959797.07446  21230572.9384                   21230571.6294
   9667807.50047   7554164.93044  24766526.5634                   24766533.1844
 -21641245.03148 -16847892.09047  20397077.2894                   20397076.3754
 -11818899.90248  -9186869.49646  21728720.6804                   21728722.8244
    770835.33247    614967.05145  23350307.2814                   23350308.5044
 11  9 21 23 39 30.0000000  0  9G02G04G30G10G12G26G05G25G29
  -2720794.48047  -2086115.29346  21373301.8364   21373299.3754   24059481.34846
  18754499.82443                  24576628.4224                   24576631.7624
   1171056.90647    930243.81344  23141333.5784                   23141334.4344
     23669.52747     60632.92644  22856938.7114                   22856940.4494
 -16675795.66048 -12946795.58246  21233747.6174                   21233746.7584
   9542924.27347   7456853.65244  24742761.7274                   24742768.7234
 -21674408.70348 -16873733.85947  20390766.0944                   20390765.5474
 -11865971.07848  -9223548.32446  21719763.5164                   21719765.6484
    657866.17247    526939.28145  23328810.5474                   23328811.3404
 11  9 21 23 40  0.0000000  0  9G02G04G30G10G12G26G05G25G29
  -2714556.52348  -2081254.54746  21374488.4534   21374486.3484   24111167.37147
  18794774.61743                  24586464.2664                   24586468.3244
   1087301.55547    864979.96944  23125395.1484                   23125397.0204
     89010.30147    111547.78944  22869372.7344                   22869374.6644
 -16658581.97748 -12933382.32846  21237023.0314                   21237023.0234
   9417967.69546   7359485.17643  24718983.3364                   24718989.1254
 -21706985.97748 -16899118.69547  20384567.3054                   20384566.2194
 -11912445.59048  -9259762.21546  21710919.6954                   21710922.0824
    544931.92247    438938.70345  23307319.2974                   23307320.7424
 11  9 21 23 40 30.0000000  0  9G02G04G30G10G12G26G05G25G29
  -2708186.13348  -2076290.59046  21375701.1954   21375698.4414   24162814.58646
  18835019.23443                  24596292.9534                   24596295.5864
   1004086.76647    800137.37144  23109560.1954                   23109561.9734
    154654.09847    162698.74244  22881864.1564                   22881865.2934
 -16640843.94548 -12919560.48846  21240398.8834                   21240397.9574
   9292938.68046   7262060.37143  24695190.5004                   24695197.6134
 -21738979.37548 -16924048.57847  20378479.0234                   20378478.0004
 -11958325.10248  -9295512.47346  21702188.9774                   21702190.7584
    432032.02347    350964.92245  23285834.8914                   23285836.8094
 11  9 21 23 41  0.0000000  0  9G02G04G30G10G12G26G05G25G29
  -2701681.49648  -2071222.04346  21376939.2504   21376936.5824   24214425.27347
  18875235.36743                  24606113.9614                   24606117.8524
    921417.14847    735719.57044  23093828.4064                   23093829.8244
    220600.77347    214085.75444  22894414.3594                   22894414.8094
 -16622579.87948 -12905328.75046  21243874.2664                   21243873.7704
   9167843.29746   7164583.83243  24671384.9774                   24671391.8134
 -21770386.02048 -16948521.24647  20372502.3444                   20372501.6294
 -12003606.25848  -9330796.47746  21693572.3054                   21693574.3754
    319170.84447    263021.30545  23264358.1254                   23264359.9804
 11  9 21 23 41 30.0000000  0  9G02G04G30G10G12G26G05G25G29
  -2695043.15248  -2066049.30146  21378201.7034   21378199.5084   24265999.53146
  18915423.10243                  24615928.0784                   24615931.5044
    839294.18447    671727.73044  23078200.8204                   23078201.9574
    286847.55547    265706.60944  22907020.5084                   22907022.2624
 -16603792.20348 -12890689.00446  21247449.5944                   21247448.7464
   9042684.50846   7067057.85542  24647568.2894                   24647574.2854
 -21801206.83248 -16972537.41447  20366637.2504                   20366636.1214
 -12048288.81248  -9365614.03146  21685069.5234                   21685071.5234
    206349.84447    175108.98845  23242889.0234                   23242890.7274
 11  9 21 23 42  0.0000000  0  9G02G04G30G10G12G26G05G25G29
  -2688273.55548  -2060774.27346  21379490.0084   21379487.8634   24317535.05946
  18955580.67643                  24625734.9614                   24625737.9774
    757717.93047    608161.89544  23062677.5234                   23062679.3164
    353389.96147    317557.80144  22919683.0944                   22919684.5084
 -16584484.01248 -12875643.66446  21251123.7344                   21251122.8244
   8917463.71547   6969483.47743  24623740.1884                   24623744.2734
 -21831443.58648 -16996098.46147  20360883.1954                   20360882.7194
 -12092374.05948  -9399966.16846  21676680.2034                   21676681.8954
     93568.81647     87227.80544  23221426.8054                   23221428.1134
 11  9 21 23 42 30.0000000  0  9G02G04G30G10G12G26G05G25G29
  -2681372.85248  -2055397.09446  21380803.3914   21380801.0944   24369032.06646
  18995708.20743                  24635534.2504                   24635537.8524
    676690.25447    545023.52344  23047258.7584                   23047260.5164
    420225.36747    369637.30144  22932400.5784                   22932402.7114
 -16564657.52748 -12860194.47746  21254896.0394                   21254895.7974
   8792183.96547   6871863.20743  24599899.5474                   24599904.2034
 -21861097.15248 -17019205.10247  20355240.8054                   20355239.2734
 -12135861.34448  -9433852.34846  21668404.9694                   21668407.3094
    -19170.64147      -620.98445  23199973.5554                   23199974.7854
 11  9 21 23 43  0.0000000  0  9G02G04G30G10G12G26G05G25G29
  -2674341.88348  -2049918.40646  21382141.1024   21382138.9924   24420489.91845
  19035805.19943                  24645326.8754                   24645330.8284
    596212.32047    482313.52344  23031943.9224                   23031945.3134
    487350.11747    421942.23044  22945174.5704                   22945176.4144
 -16544315.23448 -12844343.34046  21258767.5864                   21258767.0594
   8666848.17246   6774199.30543  24576048.5944                   24576053.8364
 -21890168.25048 -17041857.86747  20349708.3674                   20349707.3094
 -12178750.87948  -9467272.75846  21660243.4144                   21660245.1564
   -131867.49647    -88436.59845  23178528.0234                   23178528.8284
 11  9 21 23 43 30.0000000  0  9G02G04G30G10G12G26G05G25G29
  -2667181.62548  -2044338.98046  21383503.8284   21383501.3014   24471907.78946
  19075871.03143                  24655110.8204                   24655114.6484
    516285.03947    420032.60944  23016734.2974                   23016735.4384
    554760.66447    474469.87944  22958002.5784                   22958004.1954
 -16523459.44948 -12828092.09846  21262735.9924                   21262735.5944
   8541458.65646   6676493.55943  24552186.5634                   24552193.7624
 -21918658.49648 -17064058.00847  20344286.9774                   20344286.3554
 -12221042.94548  -9500227.59846  21652195.5784                   21652197.7194
   -244520.73047   -176218.22745  23157090.8674                   23157091.9224
 11  9 21 23 44  0.0000000  0  9G02G04G30G10G12G26G05G25G29
  -2659891.30548  -2038658.19546  21384891.3984   21384888.3094   24523286.42646
  19115906.32843                  24664887.9384                   24664891.4494
    436911.35247    358183.09044  23001629.2344                   23001630.9024
    622455.68447    527219.20744  22970885.1954                   22970885.5864
 -16502090.93448 -12811441.32446  21266802.6024                   21266802.2624
   8416019.92646   6578749.50443  24528316.8204                   24528322.3674
 -21946567.01648 -17085804.86747  20338976.0784                   20338975.0594
 -12262735.98448  -9532715.66846  21644261.8364                   21644263.5664
   -357127.46947   -263963.62545  23135662.2974                   23135663.8014
 11  9 21 23 44 30.0000000  0  9G02G04G30G10G12G26G05G25G29
  -2652472.62548  -2032877.38746  21386302.4774   21386300.7664   24574624.73446
  19155910.17243                  24674657.4774                   24674660.6374
    358091.51647    296765.12145  22986631.1174                   22986631.9064
    690431.12147    580187.03944  22983820.0474                   22983820.2974
 -16480212.76248 -12794393.41446  21270965.8984                   21270965.2934
   8290533.83646   6480968.51243  24504437.3134                   24504442.6024
 -21973895.68048 -17107099.88747  20333775.4774                   20333774.6214
 -12303831.01248  -9564737.75446  21636441.2734                   21636443.5474
   -469687.54747   -351672.68745  23114242.8914                   23114244.1054
 11  9 21 23 45  0.0000000  0  9G02G04G30G10G12G26G05G25G29
  -2644925.22748  -2026996.29346  21387739.0474   21387736.3554   24625923.07446
  19195882.91043                  24684418.9304                   24684422.6374
    279827.72347    235780.45744  22971737.0394                   22971739.0594
    758684.78147    633371.65644  22996808.1414                   22996808.9654
 -16457826.27748 -12776949.41046  21275225.7274                   21275225.0824
   8165004.15646   6383153.46543  24480549.9534                   24480554.9924
 -22000644.37548 -17127942.98047  20328685.4224                   20328684.1524
 -12344327.13748  -9596293.15646  21628735.4064                   21628737.4384
   -582198.59447   -439343.54745  23092832.9304                   23092833.8524
 11  9 21 23 45 30.0000000  0  9G02G04G30G10G12G26G05G25G29
  -2637251.36348  -2021016.62946  21389199.0394   21389196.9884   24677179.72745
  19235823.07843                  24694172.0704                   24694177.6214
    202119.87147    175228.98044  22956950.1804                   22956951.0234
    827212.00847    686769.43844  23009848.7664                   23009849.7114
 -16434935.54348 -12759112.49246  21279581.8134                   21279581.2544
   8039432.26646   6285305.52743  24456653.5944                   24456658.8914
 -22026815.20348 -17148335.79347  20323705.1484                   20323704.4184
 -12384225.81248  -9627383.01246  21621142.8914                   21621144.4064
   -694660.85247   -526976.38745  23071431.1174                   23071432.4574
 11  9 21 23 46  0.0000000  0  9G02G04G30G10G12G26G05G25G29
  -2629450.18048  -2014937.80146  21390684.1414   21390681.9024   24728395.60545
  19275731.50043                  24703918.8754                   24703922.8364
    124970.64147    115112.75844  22942269.4304                   22942269.9964
    896011.19946    740379.14144  23022940.1024                   23022942.3914
 -16411541.12148 -12740883.08646  21284033.6724                   21284033.2664
   7913822.74246   6187428.31343  24432750.4774                   24432755.1254
 -22052408.09848 -17168278.26647  20318835.1024                   20318834.2814
 -12423525.54348  -9658006.16846  21613664.1954                   21613665.9104
   -807071.67647   -614569.14145  23050040.5784                   23050041.2974
 11  9 21 23 46 30.0000000  0  9G02G04G30G10G12G26G05G25G29
  -2621523.35948  -2008761.05146  21392192.4304   21392189.7704   24779569.53146
  19315607.25443                  24713658.0084                   24713660.9614
     48380.44947     55432.19144  22927694.3204                   22927695.8674
    965078.38346    794197.66844  23036083.1334                   23036085.0084
 -16387646.07848 -12722263.59046  21288580.5944                   21288580.4884
   7788177.78146   6089523.50043  24408840.7034                   24408846.2464
 -22077424.81648 -17187771.76647  20314074.3594                   20314073.5234
 -12462227.35548  -9688163.38746  21606299.4694                   21606301.7814
   -919430.24647   -702121.18445  23028659.7734                   23028660.6054
 11  9 21 23 47  0.0000000  0  8G02G30G10G12G26G05G25G29
  -2613468.60248  -2002484.61746  21393725.1644   21393722.0864
    -27646.60247     -3809.57844  22913226.8984                   22913228.0204
   1034413.39846    848224.89844  23049277.5784                   23049279.2704
 -16363249.90248 -12703253.59446  21293223.1024                   21293222.6414
   7662502.91446   5991595.33243  24384925.6644                   24384931.2704
 -22101863.32448 -17206814.72747  20309423.8594                   20309423.0274
 -12500328.53548  -9717852.58246  21599049.2424                   21599050.9694
  -1031732.21547   -789629.10245  23007288.4774                   23007290.2194
 11  9 21 23 47 30.0000000  0  8G02G30G10G12G26G05G25G29
  -2605286.40247  -1996108.88746  21395282.6724   21395278.8094
   -103109.32447    -62611.63744  22898866.7734                   22898867.2584
   1104012.99647    902458.28544  23062522.5394                   23062523.8634
 -16338355.31248 -12683855.23846  21297960.2194                   21297959.8954
   7536801.27046   5893646.30943  24361005.4844                   24361010.9734
 -22125724.67248 -17225407.93447  20304883.2664                   20304882.3674
 -12537829.18048  -9747073.83646  21591913.0784                   21591914.6374
  -1143976.51247   -877092.10945  22985929.4144                   22985930.6764
 11  9 21 23 48  0.0000000  0  8G02G30G10G12G26G05G25G29
  -2596966.29747  -1989625.68446  21396865.4844   21396862.4734
   -177995.47747   -120964.42244  22884616.9304                   22884616.9534
   1173885.51647    956904.34444  23075818.4694                   23075819.5084
 -16312953.34448 -12664061.52746  21302794.0864                   21302794.0354
   7411086.85246   5795687.31343  24337082.9534                   24337087.7034
 -22148998.54748 -17243543.39147  20300454.3594                   20300453.8164
 -12574718.23448  -9775818.53946  21584893.2194                   21584895.0274
  -1256150.69947   -964500.45345  22964583.1724                   22964584.4654
 11  9 21 23 48 30.0000000  0  8G02G30G10G12G26G05G25G29
  -2588509.08247  -1983035.65246  21398474.9224   21398472.3634
   -252304.26647   -178867.27744  22870475.6414                   22870476.7734
   1244027.50847   1011560.37944  23089166.5634                   23089166.8484
 -16287046.75048 -12643874.58646  21307724.1174                   21307723.9384
   7285362.55146   5697720.58643  24313157.6954                   24313161.8134
 -22171686.50448 -17261222.27047  20296137.1954                   20296136.0084
 -12610996.32448  -9804087.15246  21577989.6414                   21577991.7154
  -1368253.54347  -1051853.20745  22943250.0944                   22943251.3674
 11  9 21 23 49  0.0000000  0  8G02G30G10G12G26G05G25G29
  -2579920.53947  -1976343.28946  21400109.1644   21400107.4804
   -326039.27747   -236323.07444  22856444.4144                   22856445.4104
   1314430.82847   1066420.07444  23102563.5944                   23102564.3324
 -16260642.09448 -12623299.54746  21312748.8834                   21312748.3094
   7159626.12546   5599744.42243  24289230.2504                   24289236.7074
 -22193794.58648 -17278449.30547  20291930.1174                   20291928.8984
 -12646668.50448  -9831883.63746  21571201.4534                   21571203.1294
  -1480288.28147  -1139152.88345  22921930.9534                   22921932.5354
 11  9 21 23 49 30.0000000  0  8G02G30G10G12G26G05G25G29
  -2571204.01248  -1969551.19946  21401768.0084   21401765.9694
   -399202.38347   -293333.21944  22842522.5004                   22842522.2544
   1385089.74247   1121478.91444  23116010.0474                   23116010.8874
 -16233745.61348 -12602341.27046  21317866.9614                   21317866.8554
   7033877.87946   5501759.07843  24265300.4844                   24265306.0664
 -22215326.68448 -17295227.53147  20287832.3444                   20287831.8554
 -12681737.88348  -9859210.40246  21564528.0234                   21564530.0824
  -1592256.83247  -1226400.98445  22900623.9384                   22900625.4614
 11  9 21 23 50  0.0000000  0  8G02G30G10G12G26G05G25G29
  -2562361.85947  -1962661.22746  21403450.1724   21403448.1484
   -471794.21947   -349898.19545  22828708.0634                   22828709.3164
   1455999.43446   1176733.18044  23129503.0704                   23129504.2504
 -16206361.14548 -12581002.72746  21323078.5164                   21323077.8714
   6908119.09846   5403765.49643  24241370.2734                   24241374.9804
 -22236285.59048 -17311559.10247  20283844.0474                   20283842.9024
 -12716206.48048  -9886069.02346  21557968.6024                   21557970.7624
  -1704159.47347  -1313597.75445  22879330.2274                   22879331.1054
 11  9 21 23 50 30.0000000  0  8G02G30G10G12G26G05G25G29
  -2553397.12548  -1955675.73446  21405156.3674   21405154.1804
   -543816.31247   -406019.25445  22815002.8054                   22815003.6564
   1527154.01246   1232178.23844  23143043.1884                   23143044.6454
 -16178493.73047 -12559287.87546  21328381.0864                   21328381.1294
   6782350.21147   5305764.02743  24217437.0394                   24217441.1094
 -22256675.19548 -17327447.07047  20279964.0554                   20279962.6214
 -12750077.13348  -9912461.73846  21551523.5784                   21551525.2544
  -1815996.97347  -1400743.74245  22858047.8054                   22858048.5824
 11  9 21 23 51  0.0000000  0  8G02G30G10G12G26G05G25G29
  -2544309.43447  -1948594.43046  21406885.8754   21406883.1414
   -615266.54347   -461694.68745  22801406.1724                   22801407.7114
   1598551.91446   1287812.91444  23156630.4774                   23156630.8324
 -16150144.51647 -12537197.59446  21333776.0004                   21333775.0784
   6656575.45346   5207758.04743  24193501.8834                   24193507.6024
 -22276495.44548 -17342891.38347  20276192.4774                   20276191.1994
 -12783349.12948  -9938387.94146  21545191.8754                   21545193.8954
  -1927767.07847  -1487837.23045  22836778.2504                   22836779.1524
 11  9 21 23 51 30.0000000  0  8G02G30G10G12G26G05G25G29
  -2535100.37147  -1941418.54346  21408638.1024   21408635.3134
   -686144.98047   -516924.56244  22787917.9924                   22787919.3134
   1670188.95346   1343633.92244  23170262.2424                   23170264.0904
 -16121317.30147 -12514734.82846  21339261.2974                   21339260.9694
   6530796.61346   5109748.82043  24169566.7344                   24169572.5594
 -22295748.59448 -17357893.80147  20272528.4064                   20272527.5594
 -12816023.84448  -9963848.73446  21538974.2974                   21538975.9414
  -2039469.55147  -1574878.03145  22815522.6804                   22815522.6884
 11  9 21 23 52  0.0000000  0  8G02G30G10G12G26G05G25G29
  -2525770.42248  -1934148.46946  21410413.5784   21410410.5354
   -756450.58647   -571708.10544  22774539.9224                   22774540.9534
   1742062.12547   1399638.94544  23183939.5314                   23183940.8914
 -16092014.47347 -12491901.46946  21344837.5634                   21344837.4654
   6405016.86347   5011738.87143  24145632.2894                   24145636.1844
 -22314435.63748 -17372455.09847  20268972.3984                   20268971.2894
 -12848101.62948  -9988844.40246  21532869.8284                   21532872.0824
  -2151102.69147  -1661864.80145  22794278.9144                   22794280.3164
 11  9 21 23 52 30.0000000  0  8G02G30G10G12G26G05G25G29
  -2516319.42248  -1926784.05546  21412212.0784   21412208.8594
   -826181.51647   -626043.82444  22761270.2424                   22761271.5904
   1814169.05546   1455826.10544  23197660.6174                   23197662.6954
 -16062237.54347 -12468698.67646  21350504.0944                   21350503.5824
   6279240.14147   4913731.34444  24121697.8054                   24121702.3594
 -22332557.10248 -17386575.68747  20265524.1254                   20265523.1604
 -12879582.03148 -10013374.59046  21526879.3284                   21526881.0784
  -2262664.34047  -1748795.85945  22773049.8984                   22773050.0704
 11  9 21 23 53  0.0000000  0  8G02G30G10G12G26G05G25G29
  -2506750.57848  -1919327.82046  21414032.6954   21414030.3014
   -895339.53147   -679933.12945  22748110.0704                   22748110.6884
   1886503.77346   1512190.77044  23211425.8984                   23211427.0084
 -16031991.65647 -12445130.44946  21356259.5704                   21356258.9224
   6153466.90247   4815726.52744  24097762.6644                   24097767.2774
 -22350117.19948 -17400258.85247  20262182.6804                   20262181.4304
 -12910468.15648 -10037441.69146  21521001.8674                   21521003.8094
  -2374155.25447  -1835671.80945  22751833.0944                   22751834.3634
 11  9 21 23 53 30.0000000  0  8G02G30G10G12G26G05G25G29
  -2497064.30948  -1911780.07446  21415876.2814   21415873.5664
   -963923.71547   -733375.29744  22735058.7734                   22735060.3054
   1959063.48046   1568730.74244  23225233.3204                   23225234.4494
 -16001279.74247 -12421199.08646  21362103.8134                   21362103.8204
   6027699.99247   4717726.62944  24073829.9614                   24073835.3444
 -22367117.07448 -17413505.46147  20258947.1804                   20258946.2504
 -12940760.47748 -10061046.09846  21515237.8134                   21515239.6174
  -2485574.21147  -1922491.69145  22730631.2034                   22730631.6054
 11  9 21 23 54  0.0000000  0  8G02G30G10G12G26G05G25G29
  -2487261.73848  -1904141.69546  21417741.5474   21417738.6484
  -1031933.28147   -786369.69145  22722117.0394                   22722118.2114
   2031845.26246   1625443.78144  23239083.0704                   23239085.1804
 -15970104.29347 -12396906.53946  21368036.2974                   21368035.7154
   5901942.48446   4619734.07443  24049898.3054                   24049903.5744
 -22383557.74648 -17426316.35247  20255819.0704                   20255817.8364
 -12970459.55548 -10084188.23046  21509586.0554                   21509588.0634
  -2596919.95347  -2009254.56645  22709442.3754                   22709443.8914
 11  9 21 23 54 30.0000000  0  8G02G30G10G12G26G05G25G29
  -2477338.44547  -1896409.24246  21419629.5164   21419627.1994
  -1099363.09447   -838912.35545  22709285.3134                   22709286.2074
   2104850.27746   1682330.76244  23252976.0004                   23252976.0984
 -15938463.70347 -12372251.53946  21374057.6094                   21374057.2304
   5776201.84847   4521754.66044  24025971.5944                   24025975.4224
 -22399436.55548 -17438689.41047  20252797.2504                   20252796.1454
 -12999561.66048 -10106865.18046  21504048.1724                   21504050.2034
  -2708186.71947  -2095955.85545  22688269.5004                   22688269.7034
 11  9 21 23 55  0.0000000  0  8G02G30G10G12G26G05G25G29
  -2467299.39548  -1888586.60946  21421540.4144   21421537.8484
  -1166216.53147   -891005.86745  22696563.8134                   22696564.3364
   2178071.24646   1739386.02744  23266908.9224                   23266910.0664
 -15906364.63347 -12347239.29746  21380165.7194                   21380164.7304
   5650476.84046   4423787.39544  24002046.7584                   24002050.9574
 -22414759.00048 -17450628.95347  20249881.5164                   20249880.2194
 -13028071.47348 -10129080.61346  21498622.9694                   21498625.1604
  -2819377.12547  -2182597.67645  22667110.0004                   22667110.8634
 11  9 21 23 55 30.0000000  0  8G02G30G10G12G26G05G25G29
  -2457141.65648  -1880671.46546  21423473.3364   21423470.1914
  -1232489.19947   -942646.85245  22683952.6484                   22683952.5314
   2251508.53547   1796609.85544  23280883.9614                   23280885.7664
 -15873805.96948 -12321868.91446  21386361.4454                   21386361.2234
   5524774.28546   4325837.64844  23978125.8834                   23978130.4654
 -22429523.00848 -17462133.34447  20247072.3674                   20247070.6214
 -13055986.08248 -10150832.23846  21493311.0394                   21493312.4224
  -2930486.06247  -2269175.98445  22645966.6804                   22645967.8204
 11  9 21 23 56  0.0000000  0  8G02G30G10G12G26G05G25G29
  -2446867.50448  -1872665.61346  21425428.5864   21425426.0744
  -1298182.21947   -993836.15645  22671451.2974                   22671451.8054
   2325157.39847   1853998.54344  23294898.9384                   23294900.6374
 -15840793.00447 -12296144.53546  21392643.5234                   21392643.6844
   5399095.12146   4227906.17244  23954209.0704                   23954214.3524
 -22443731.80548 -17473205.10247  20244368.2504                   20244367.3594
 -13083307.98848 -10172122.03146  21488111.6954                   21488113.2934
  -3041513.98047  -2355691.18445  22624838.6954                   22624839.9414
 11  9 21 23 56 30.0000000  0  8G02G30G10G12G26G05G25G29
  -2436476.39548  -1864568.62146  21427405.4384   21427402.4104
  -1363293.49647  -1044572.16445  22659061.0944                   22659061.9614
   2399016.24647   1911550.85544  23308953.7114                   23308955.0634
 -15807326.65248 -12270066.86346  21399011.8364                   21399011.0744
   5273443.99646   4129996.48043  23930297.9384                   23930302.7234
 -22457385.44548 -17483844.27747  20241769.7504                   20241769.0434
 -13110036.44148 -10192949.36346  21483025.6644                   21483027.3404
  -3152457.77047  -2442140.84845  22603727.5394                   22603727.5354
 11  9 21 23 57  0.0000000  0  8G02G30G10G12G26G05G25G29
  -2425969.25848  -1856381.22346  21429404.8444   21429402.5314
  -1427822.74247  -1094854.61745  22646781.0004                   22646781.6684
   2473081.64547   1969264.08244  23323048.0634                   23323049.0274
 -15773409.60548 -12243637.99646  21405466.3984                   21405465.7934
   5147823.78146   4032110.88743  23906393.0944                   23906398.1804
 -22470485.60248 -17494052.16447  20239276.9534                   20239275.6764
 -13136172.52348 -10213315.12146  21478051.7814                   21478053.8284
  -3263316.58247  -2528524.27045  22582630.6884                   22582632.8094
 11  9 21 23 57 30.0000000  0  8G02G30G10G12G26G05G25G29
  -2415344.91448  -1848102.48846  21431426.3834   21431424.4614
  -1491767.82847  -1144681.87544  22634613.1334                   22634613.8954
   2547352.19147   2027137.23044  23337181.8134                   23337182.1564
 -15739043.13748 -12216858.95346  21412005.6254                   21412005.4224
   5022238.99646   3934252.87543  23882495.3524                   23882499.5664
 -22483032.54348 -17503828.96547  20236889.4774                   20236887.9384
 -13161715.46948 -10233218.70346  21473191.1334                   21473192.9884
  -3374087.22347  -2614838.96945  22561551.7664                   22561553.0594
 11  9 21 23 58  0.0000000  0  8G02G30G10G12G26G05G25G29
  -2404605.57448  -1839734.16046  21433470.7344   21433468.0084
  -1555129.59047  -1194054.62145  22622555.4534                   22622557.2734
   2621822.80147   2085166.23844  23351352.2274                   23351353.8674
 -15704231.92248 -12189733.36346  21418630.5784                   21418630.1374
   4896691.05547   3836423.59843  23858604.2584                   23858607.9574
 -22495029.42648 -17513177.16447  20234606.3754                   20234605.4964
 -13186667.55548 -10252661.85946  21468442.7974                   21468444.6024
  -3484769.89847  -2701085.12545  22540490.0864                   22540490.6454
 11  9 21 23 58 30.0000000  0  8G02G30G10G12G26G05G25G29
  -2393750.10248  -1831275.32446  21435536.0394   21435533.7774
  -1617905.91447  -1242971.15645  22610609.2274                   22610610.6454
   2696492.23847   2143350.18844  23365561.4844                   23365563.5234
 -15668977.29748 -12162262.23446  21425339.3054                   21425338.6724
   4771184.80147   3738626.81643  23834721.1954                   23834724.2074
 -22506475.89848 -17522096.46547  20232428.2814                   20232427.1724
 -13211028.03148 -10271644.02046  21463807.4924                   21463809.0234
  -3595361.64847  -2787260.44945  22519445.2194                   22519445.6684
 11  9 21 23 59  0.0000000  0  8G02G30G10G12G26G05G25G29
  -2382779.48048  -1822726.76646  21437624.0474   21437621.4614
  -1680096.43047  -1291431.23045  22598775.1094                   22598775.6024
   2771357.12547   2201686.43044  23379807.9694                   23379810.1954
 -15633281.93047 -12134447.68446  21432131.5704                   21432130.9414
   4645722.88347   3640864.55144  23810846.8984                   23810849.8914
 -22517373.74648 -17530588.27347  20230354.3674                   20230353.1414
 -13234797.90248 -10290165.96946  21459283.9774                   21459286.0354
  -3705860.89547  -2873363.65245  22498416.9224                   22498418.1914
